<?xml version="1.0" encoding="UTF-8" standalone="no" ?>
<gpx xmlns="http://www.topografix.com/GPX/1/1" xmlns:xsi="http://www.w3.org/2001/XMLSchema-instance" xsi:schemaLocation="http://www.topografix.com/GPX/1/1 http://www.topografix.com/GPX/1/1/gpx.xsd" version="1.1" creator="VisuGPX - https://www.visugpx.com">
  <metadata>
    <name>Marche ACC du 08/03/2022</name>
    <desc><![CDATA[Circuit au départ du Château de l'Hôpitau à Gesvrine - Direction La commune libre de St Joseph de Porterie par le rond-point de La Rivière et les bords du Gesvres, le chemin de la pierre percée,  le pont de la Jonelière, Le Ranzay, route de St Joseph de Porterie, rue des Pays de Loire, La Bretonnière, rue de La Grange au loup et le parc dédié à la chanteuse Barbara, chemin du Linot, chemin du Cellier, les bords de l'Erdre, le Parc floral de La Beaujoire, les bords de l'Erdre jusqu'à  Port Barbe, Boulevard Becquerel et retour point de départ.]]></desc>
  </metadata>
  <trk>
    <name><![CDATA[20220308_084615.gpx]]></name>
    <trkseg>
      <trkpt lat="47.26976" lon="-1.55253">
        <ele>71.01349</ele>
        <time>2022-03-08T07:46:17Z</time>
      </trkpt>
      <trkpt lat="47.26975" lon="-1.55253">
        <ele>70.83634</ele>
        <time>2022-03-08T07:46:18Z</time>
      </trkpt>
      <trkpt lat="47.2697" lon="-1.55252">
        <ele>71.79589</ele>
        <time>2022-03-08T07:46:29Z</time>
      </trkpt>
      <trkpt lat="47.2697" lon="-1.55252">
        <ele>71.79589</ele>
        <time>2022-03-08T07:46:29Z</time>
      </trkpt>
      <trkpt lat="47.2697" lon="-1.55252">
        <ele>71.79589</ele>
        <time>2022-03-08T07:46:29Z</time>
      </trkpt>
      <trkpt lat="47.2697" lon="-1.55252">
        <ele>71.79589</ele>
        <time>2022-03-08T07:46:29Z</time>
      </trkpt>
      <trkpt lat="47.26969" lon="-1.55234">
        <ele>69.37679</ele>
        <time>2022-03-08T07:47:46Z</time>
      </trkpt>
      <trkpt lat="47.26966" lon="-1.55224">
        <ele>69.26552</ele>
        <time>2022-03-08T07:47:57Z</time>
      </trkpt>
      <trkpt lat="47.26962" lon="-1.55229">
        <ele>69.278564</ele>
        <time>2022-03-08T07:48:00Z</time>
      </trkpt>
      <trkpt lat="47.26956" lon="-1.55231">
        <ele>69.144585</ele>
        <time>2022-03-08T07:48:06Z</time>
      </trkpt>
      <trkpt lat="47.26951" lon="-1.55232">
        <ele>69.02434</ele>
        <time>2022-03-08T07:48:09Z</time>
      </trkpt>
      <trkpt lat="47.26946" lon="-1.55235">
        <ele>68.94524</ele>
        <time>2022-03-08T07:48:12Z</time>
      </trkpt>
      <trkpt lat="47.26941" lon="-1.55238">
        <ele>68.9721</ele>
        <time>2022-03-08T07:48:17Z</time>
      </trkpt>
      <trkpt lat="47.26934" lon="-1.55239">
        <ele>68.93492</ele>
        <time>2022-03-08T07:48:22Z</time>
      </trkpt>
      <trkpt lat="47.2693" lon="-1.55242">
        <ele>68.926674</ele>
        <time>2022-03-08T07:48:26Z</time>
      </trkpt>
      <trkpt lat="47.26925" lon="-1.55243">
        <ele>68.75344</ele>
        <time>2022-03-08T07:48:30Z</time>
      </trkpt>
      <trkpt lat="47.2692" lon="-1.55246">
        <ele>68.45608</ele>
        <time>2022-03-08T07:48:34Z</time>
      </trkpt>
      <trkpt lat="47.26915" lon="-1.55246">
        <ele>68.05897</ele>
        <time>2022-03-08T07:48:38Z</time>
      </trkpt>
      <trkpt lat="47.2691" lon="-1.55249">
        <ele>67.871765</ele>
        <time>2022-03-08T07:48:42Z</time>
      </trkpt>
      <trkpt lat="47.26905" lon="-1.5525">
        <ele>67.75288</ele>
        <time>2022-03-08T07:48:45Z</time>
      </trkpt>
      <trkpt lat="47.26901" lon="-1.55253">
        <ele>67.66008</ele>
        <time>2022-03-08T07:48:48Z</time>
      </trkpt>
      <trkpt lat="47.26897" lon="-1.55257">
        <ele>67.67009</ele>
        <time>2022-03-08T07:48:51Z</time>
      </trkpt>
      <trkpt lat="47.26893" lon="-1.55262">
        <ele>67.76359</ele>
        <time>2022-03-08T07:48:55Z</time>
      </trkpt>
      <trkpt lat="47.26889" lon="-1.55267">
        <ele>67.78649</ele>
        <time>2022-03-08T07:48:57Z</time>
      </trkpt>
      <trkpt lat="47.26885" lon="-1.55274">
        <ele>67.84797</ele>
        <time>2022-03-08T07:49:00Z</time>
      </trkpt>
      <trkpt lat="47.26882" lon="-1.55285">
        <ele>67.96925</ele>
        <time>2022-03-08T07:49:06Z</time>
      </trkpt>
      <trkpt lat="47.26877" lon="-1.55288">
        <ele>68.05419</ele>
        <time>2022-03-08T07:49:11Z</time>
      </trkpt>
      <trkpt lat="47.26872" lon="-1.55289">
        <ele>68.160934</ele>
        <time>2022-03-08T07:49:13Z</time>
      </trkpt>
      <trkpt lat="47.26866" lon="-1.55289">
        <ele>68.49375</ele>
        <time>2022-03-08T07:49:16Z</time>
      </trkpt>
      <trkpt lat="47.26862" lon="-1.55292">
        <ele>68.913826</ele>
        <time>2022-03-08T07:49:20Z</time>
      </trkpt>
      <trkpt lat="47.26858" lon="-1.55297">
        <ele>69.249466</ele>
        <time>2022-03-08T07:49:25Z</time>
      </trkpt>
      <trkpt lat="47.26854" lon="-1.55302">
        <ele>68.97663</ele>
        <time>2022-03-08T07:49:30Z</time>
      </trkpt>
      <trkpt lat="47.26849" lon="-1.55304">
        <ele>68.61032</ele>
        <time>2022-03-08T07:49:34Z</time>
      </trkpt>
      <trkpt lat="47.26844" lon="-1.55301">
        <ele>68.42628</ele>
        <time>2022-03-08T07:49:36Z</time>
      </trkpt>
      <trkpt lat="47.2684" lon="-1.55299">
        <ele>68.2672</ele>
        <time>2022-03-08T07:49:38Z</time>
      </trkpt>
      <trkpt lat="47.26834" lon="-1.55297">
        <ele>68.14951</ele>
        <time>2022-03-08T07:49:41Z</time>
      </trkpt>
      <trkpt lat="47.26828" lon="-1.55296">
        <ele>68.085846</ele>
        <time>2022-03-08T07:49:44Z</time>
      </trkpt>
      <trkpt lat="47.26823" lon="-1.55297">
        <ele>67.89029</ele>
        <time>2022-03-08T07:49:47Z</time>
      </trkpt>
      <trkpt lat="47.26818" lon="-1.55294">
        <ele>67.79853</ele>
        <time>2022-03-08T07:49:50Z</time>
      </trkpt>
      <trkpt lat="47.26813" lon="-1.55292">
        <ele>67.87701</ele>
        <time>2022-03-08T07:49:53Z</time>
      </trkpt>
      <trkpt lat="47.26808" lon="-1.55289">
        <ele>68.05985</ele>
        <time>2022-03-08T07:49:56Z</time>
      </trkpt>
      <trkpt lat="47.26802" lon="-1.55286">
        <ele>68.35729</ele>
        <time>2022-03-08T07:50:00Z</time>
      </trkpt>
      <trkpt lat="47.26798" lon="-1.55284">
        <ele>68.60389</ele>
        <time>2022-03-08T07:50:04Z</time>
      </trkpt>
      <trkpt lat="47.26793" lon="-1.5528">
        <ele>68.83948</ele>
        <time>2022-03-08T07:50:08Z</time>
      </trkpt>
      <trkpt lat="47.26788" lon="-1.55277">
        <ele>68.96512</ele>
        <time>2022-03-08T07:50:11Z</time>
      </trkpt>
      <trkpt lat="47.26783" lon="-1.55272">
        <ele>69.060646</ele>
        <time>2022-03-08T07:50:15Z</time>
      </trkpt>
      <trkpt lat="47.26778" lon="-1.5527">
        <ele>69.132744</ele>
        <time>2022-03-08T07:50:19Z</time>
      </trkpt>
      <trkpt lat="47.26775" lon="-1.55266">
        <ele>69.184875</ele>
        <time>2022-03-08T07:50:24Z</time>
      </trkpt>
      <trkpt lat="47.26772" lon="-1.55261">
        <ele>69.351654</ele>
        <time>2022-03-08T07:50:28Z</time>
      </trkpt>
      <trkpt lat="47.26767" lon="-1.55257">
        <ele>69.51775</ele>
        <time>2022-03-08T07:50:31Z</time>
      </trkpt>
      <trkpt lat="47.26762" lon="-1.55251">
        <ele>69.624054</ele>
        <time>2022-03-08T07:50:34Z</time>
      </trkpt>
      <trkpt lat="47.26757" lon="-1.55246">
        <ele>69.62152</ele>
        <time>2022-03-08T07:50:37Z</time>
      </trkpt>
      <trkpt lat="47.26753" lon="-1.5524">
        <ele>69.57741</ele>
        <time>2022-03-08T07:50:40Z</time>
      </trkpt>
      <trkpt lat="47.26749" lon="-1.55235">
        <ele>69.53494</ele>
        <time>2022-03-08T07:50:43Z</time>
      </trkpt>
      <trkpt lat="47.26745" lon="-1.55229">
        <ele>69.587555</ele>
        <time>2022-03-08T07:50:47Z</time>
      </trkpt>
      <trkpt lat="47.26741" lon="-1.55225">
        <ele>69.61543</ele>
        <time>2022-03-08T07:50:50Z</time>
      </trkpt>
      <trkpt lat="47.26737" lon="-1.55222">
        <ele>69.57458</ele>
        <time>2022-03-08T07:50:54Z</time>
      </trkpt>
      <trkpt lat="47.26732" lon="-1.55217">
        <ele>69.5493</ele>
        <time>2022-03-08T07:50:57Z</time>
      </trkpt>
      <trkpt lat="47.26728" lon="-1.55212">
        <ele>69.59616</ele>
        <time>2022-03-08T07:51:01Z</time>
      </trkpt>
      <trkpt lat="47.26724" lon="-1.55206">
        <ele>69.647514</ele>
        <time>2022-03-08T07:51:04Z</time>
      </trkpt>
      <trkpt lat="47.26718" lon="-1.55203">
        <ele>69.64267</ele>
        <time>2022-03-08T07:51:11Z</time>
      </trkpt>
      <trkpt lat="47.26714" lon="-1.55198">
        <ele>69.61638</ele>
        <time>2022-03-08T07:51:14Z</time>
      </trkpt>
      <trkpt lat="47.2671" lon="-1.55193">
        <ele>69.60679</ele>
        <time>2022-03-08T07:51:17Z</time>
      </trkpt>
      <trkpt lat="47.26706" lon="-1.55188">
        <ele>69.673355</ele>
        <time>2022-03-08T07:51:21Z</time>
      </trkpt>
      <trkpt lat="47.26702" lon="-1.55184">
        <ele>69.76913</ele>
        <time>2022-03-08T07:51:24Z</time>
      </trkpt>
      <trkpt lat="47.26697" lon="-1.55182">
        <ele>69.86059</ele>
        <time>2022-03-08T07:51:27Z</time>
      </trkpt>
      <trkpt lat="47.26694" lon="-1.55176">
        <ele>69.9681</ele>
        <time>2022-03-08T07:51:30Z</time>
      </trkpt>
      <trkpt lat="47.2669" lon="-1.55171">
        <ele>70.087036</ele>
        <time>2022-03-08T07:51:33Z</time>
      </trkpt>
      <trkpt lat="47.26686" lon="-1.55166">
        <ele>70.289116</ele>
        <time>2022-03-08T07:51:37Z</time>
      </trkpt>
      <trkpt lat="47.26682" lon="-1.55161">
        <ele>70.483925</ele>
        <time>2022-03-08T07:51:41Z</time>
      </trkpt>
      <trkpt lat="47.26679" lon="-1.55155">
        <ele>70.76613</ele>
        <time>2022-03-08T07:51:46Z</time>
      </trkpt>
      <trkpt lat="47.26676" lon="-1.5515">
        <ele>70.89723</ele>
        <time>2022-03-08T07:51:50Z</time>
      </trkpt>
      <trkpt lat="47.26671" lon="-1.55145">
        <ele>70.97012</ele>
        <time>2022-03-08T07:51:54Z</time>
      </trkpt>
      <trkpt lat="47.26667" lon="-1.5514">
        <ele>71.049904</ele>
        <time>2022-03-08T07:51:59Z</time>
      </trkpt>
      <trkpt lat="47.26665" lon="-1.55134">
        <ele>71.18014</ele>
        <time>2022-03-08T07:52:04Z</time>
      </trkpt>
      <trkpt lat="47.26661" lon="-1.5513">
        <ele>71.177315</ele>
        <time>2022-03-08T07:52:08Z</time>
      </trkpt>
      <trkpt lat="47.26657" lon="-1.55124">
        <ele>71.04571</ele>
        <time>2022-03-08T07:52:13Z</time>
      </trkpt>
      <trkpt lat="47.26657" lon="-1.55116">
        <ele>70.932655</ele>
        <time>2022-03-08T07:52:17Z</time>
      </trkpt>
      <trkpt lat="47.26653" lon="-1.55111">
        <ele>70.783554</ele>
        <time>2022-03-08T07:52:22Z</time>
      </trkpt>
      <trkpt lat="47.26649" lon="-1.55106">
        <ele>70.63756</ele>
        <time>2022-03-08T07:52:26Z</time>
      </trkpt>
      <trkpt lat="47.26645" lon="-1.551">
        <ele>70.531204</ele>
        <time>2022-03-08T07:52:29Z</time>
      </trkpt>
      <trkpt lat="47.26643" lon="-1.55094">
        <ele>70.51777</ele>
        <time>2022-03-08T07:52:32Z</time>
      </trkpt>
      <trkpt lat="47.26639" lon="-1.55086">
        <ele>70.606964</ele>
        <time>2022-03-08T07:52:36Z</time>
      </trkpt>
      <trkpt lat="47.26634" lon="-1.55082">
        <ele>70.777145</ele>
        <time>2022-03-08T07:52:41Z</time>
      </trkpt>
      <trkpt lat="47.2663" lon="-1.55077">
        <ele>70.82864</ele>
        <time>2022-03-08T07:52:44Z</time>
      </trkpt>
      <trkpt lat="47.26626" lon="-1.5507">
        <ele>70.982956</ele>
        <time>2022-03-08T07:52:48Z</time>
      </trkpt>
      <trkpt lat="47.26625" lon="-1.55063">
        <ele>71.072334</ele>
        <time>2022-03-08T07:52:52Z</time>
      </trkpt>
      <trkpt lat="47.26623" lon="-1.55057">
        <ele>71.09769</ele>
        <time>2022-03-08T07:52:55Z</time>
      </trkpt>
      <trkpt lat="47.26621" lon="-1.55051">
        <ele>71.07785</ele>
        <time>2022-03-08T07:53:00Z</time>
      </trkpt>
      <trkpt lat="47.26621" lon="-1.55042">
        <ele>71.074646</ele>
        <time>2022-03-08T07:53:04Z</time>
      </trkpt>
      <trkpt lat="47.26619" lon="-1.55035">
        <ele>71.05641</ele>
        <time>2022-03-08T07:53:08Z</time>
      </trkpt>
      <trkpt lat="47.26617" lon="-1.55027">
        <ele>70.895096</ele>
        <time>2022-03-08T07:53:12Z</time>
      </trkpt>
      <trkpt lat="47.26613" lon="-1.5502">
        <ele>70.455986</ele>
        <time>2022-03-08T07:53:16Z</time>
      </trkpt>
      <trkpt lat="47.26609" lon="-1.55014">
        <ele>69.89232</ele>
        <time>2022-03-08T07:53:20Z</time>
      </trkpt>
      <trkpt lat="47.26603" lon="-1.55012">
        <ele>69.253174</ele>
        <time>2022-03-08T07:53:25Z</time>
      </trkpt>
      <trkpt lat="47.266" lon="-1.55019">
        <ele>68.6489</ele>
        <time>2022-03-08T07:53:30Z</time>
      </trkpt>
      <trkpt lat="47.26595" lon="-1.55018">
        <ele>67.78181</ele>
        <time>2022-03-08T07:53:34Z</time>
      </trkpt>
      <trkpt lat="47.26589" lon="-1.55022">
        <ele>67.12393</ele>
        <time>2022-03-08T07:53:37Z</time>
      </trkpt>
      <trkpt lat="47.26585" lon="-1.55026">
        <ele>66.827576</ele>
        <time>2022-03-08T07:53:40Z</time>
      </trkpt>
      <trkpt lat="47.26583" lon="-1.55032">
        <ele>66.568</ele>
        <time>2022-03-08T07:53:45Z</time>
      </trkpt>
      <trkpt lat="47.26582" lon="-1.5504">
        <ele>66.45589</ele>
        <time>2022-03-08T07:53:49Z</time>
      </trkpt>
      <trkpt lat="47.2658" lon="-1.55048">
        <ele>66.44448</ele>
        <time>2022-03-08T07:53:53Z</time>
      </trkpt>
      <trkpt lat="47.2658" lon="-1.55056">
        <ele>66.507614</ele>
        <time>2022-03-08T07:53:56Z</time>
      </trkpt>
      <trkpt lat="47.2658" lon="-1.55063">
        <ele>66.644066</ele>
        <time>2022-03-08T07:54:01Z</time>
      </trkpt>
      <trkpt lat="47.26581" lon="-1.55071">
        <ele>66.77351</ele>
        <time>2022-03-08T07:54:07Z</time>
      </trkpt>
      <trkpt lat="47.26582" lon="-1.55079">
        <ele>66.77556</ele>
        <time>2022-03-08T07:54:11Z</time>
      </trkpt>
      <trkpt lat="47.26583" lon="-1.55088">
        <ele>66.76467</ele>
        <time>2022-03-08T07:54:15Z</time>
      </trkpt>
      <trkpt lat="47.26582" lon="-1.55094">
        <ele>66.75374</ele>
        <time>2022-03-08T07:54:19Z</time>
      </trkpt>
      <trkpt lat="47.26582" lon="-1.55102">
        <ele>66.84449</ele>
        <time>2022-03-08T07:54:22Z</time>
      </trkpt>
      <trkpt lat="47.2658" lon="-1.55109">
        <ele>67.10372</ele>
        <time>2022-03-08T07:54:25Z</time>
      </trkpt>
      <trkpt lat="47.2658" lon="-1.55116">
        <ele>67.54522</ele>
        <time>2022-03-08T07:54:29Z</time>
      </trkpt>
      <trkpt lat="47.26582" lon="-1.55123">
        <ele>67.72528</ele>
        <time>2022-03-08T07:54:32Z</time>
      </trkpt>
      <trkpt lat="47.26582" lon="-1.55132">
        <ele>67.80481</ele>
        <time>2022-03-08T07:54:36Z</time>
      </trkpt>
      <trkpt lat="47.26582" lon="-1.5514">
        <ele>67.84415</ele>
        <time>2022-03-08T07:54:40Z</time>
      </trkpt>
      <trkpt lat="47.26582" lon="-1.55149">
        <ele>67.87679</ele>
        <time>2022-03-08T07:54:44Z</time>
      </trkpt>
      <trkpt lat="47.26581" lon="-1.55157">
        <ele>67.86487</ele>
        <time>2022-03-08T07:54:48Z</time>
      </trkpt>
      <trkpt lat="47.2658" lon="-1.55164">
        <ele>67.84833</ele>
        <time>2022-03-08T07:54:51Z</time>
      </trkpt>
      <trkpt lat="47.26579" lon="-1.55172">
        <ele>67.83145</ele>
        <time>2022-03-08T07:54:55Z</time>
      </trkpt>
      <trkpt lat="47.26578" lon="-1.55181">
        <ele>67.82548</ele>
        <time>2022-03-08T07:54:59Z</time>
      </trkpt>
      <trkpt lat="47.26577" lon="-1.55188">
        <ele>67.846085</ele>
        <time>2022-03-08T07:55:03Z</time>
      </trkpt>
      <trkpt lat="47.26576" lon="-1.55197">
        <ele>67.82656</ele>
        <time>2022-03-08T07:55:07Z</time>
      </trkpt>
      <trkpt lat="47.26575" lon="-1.55204">
        <ele>67.891655</ele>
        <time>2022-03-08T07:55:11Z</time>
      </trkpt>
      <trkpt lat="47.26575" lon="-1.55212">
        <ele>68.005936</ele>
        <time>2022-03-08T07:55:15Z</time>
      </trkpt>
      <trkpt lat="47.26576" lon="-1.55221">
        <ele>68.02663</ele>
        <time>2022-03-08T07:55:19Z</time>
      </trkpt>
      <trkpt lat="47.26574" lon="-1.55228">
        <ele>67.985504</ele>
        <time>2022-03-08T07:55:23Z</time>
      </trkpt>
      <trkpt lat="47.26573" lon="-1.55235">
        <ele>67.750725</ele>
        <time>2022-03-08T07:55:29Z</time>
      </trkpt>
      <trkpt lat="47.26569" lon="-1.55239">
        <ele>67.61645</ele>
        <time>2022-03-08T07:55:34Z</time>
      </trkpt>
      <trkpt lat="47.26566" lon="-1.55246">
        <ele>67.46446</ele>
        <time>2022-03-08T07:55:38Z</time>
      </trkpt>
      <trkpt lat="47.26563" lon="-1.55253">
        <ele>67.48466</ele>
        <time>2022-03-08T07:55:41Z</time>
      </trkpt>
      <trkpt lat="47.26561" lon="-1.55258">
        <ele>67.59459</ele>
        <time>2022-03-08T07:55:44Z</time>
      </trkpt>
      <trkpt lat="47.26558" lon="-1.55264">
        <ele>67.701546</ele>
        <time>2022-03-08T07:55:47Z</time>
      </trkpt>
      <trkpt lat="47.26557" lon="-1.55272">
        <ele>67.89858</ele>
        <time>2022-03-08T07:55:51Z</time>
      </trkpt>
      <trkpt lat="47.26551" lon="-1.55276">
        <ele>68.101204</ele>
        <time>2022-03-08T07:55:54Z</time>
      </trkpt>
      <trkpt lat="47.26549" lon="-1.55282">
        <ele>68.33398</ele>
        <time>2022-03-08T07:55:57Z</time>
      </trkpt>
      <trkpt lat="47.26548" lon="-1.55289">
        <ele>68.597916</ele>
        <time>2022-03-08T07:56:01Z</time>
      </trkpt>
      <trkpt lat="47.26544" lon="-1.55296">
        <ele>68.88728</ele>
        <time>2022-03-08T07:56:05Z</time>
      </trkpt>
      <trkpt lat="47.26541" lon="-1.55302">
        <ele>69.067</ele>
        <time>2022-03-08T07:56:08Z</time>
      </trkpt>
      <trkpt lat="47.26537" lon="-1.55308">
        <ele>69.04701</ele>
        <time>2022-03-08T07:56:12Z</time>
      </trkpt>
      <trkpt lat="47.26534" lon="-1.55314">
        <ele>68.92998</ele>
        <time>2022-03-08T07:56:15Z</time>
      </trkpt>
      <trkpt lat="47.26531" lon="-1.5532">
        <ele>68.839264</ele>
        <time>2022-03-08T07:56:18Z</time>
      </trkpt>
      <trkpt lat="47.26526" lon="-1.55325">
        <ele>68.56278</ele>
        <time>2022-03-08T07:56:23Z</time>
      </trkpt>
      <trkpt lat="47.26521" lon="-1.55327">
        <ele>68.358055</ele>
        <time>2022-03-08T07:56:27Z</time>
      </trkpt>
      <trkpt lat="47.26516" lon="-1.55327">
        <ele>68.24306</ele>
        <time>2022-03-08T07:56:31Z</time>
      </trkpt>
      <trkpt lat="47.26511" lon="-1.55323">
        <ele>68.2278</ele>
        <time>2022-03-08T07:56:34Z</time>
      </trkpt>
      <trkpt lat="47.26506" lon="-1.55317">
        <ele>68.8335</ele>
        <time>2022-03-08T07:56:40Z</time>
      </trkpt>
      <trkpt lat="47.26502" lon="-1.55314">
        <ele>69.42688</ele>
        <time>2022-03-08T07:56:45Z</time>
      </trkpt>
      <trkpt lat="47.26497" lon="-1.55314">
        <ele>69.96696</ele>
        <time>2022-03-08T07:56:50Z</time>
      </trkpt>
      <trkpt lat="47.26492" lon="-1.55311">
        <ele>70.48075</ele>
        <time>2022-03-08T07:56:54Z</time>
      </trkpt>
      <trkpt lat="47.26488" lon="-1.55306">
        <ele>70.94403</ele>
        <time>2022-03-08T07:56:58Z</time>
      </trkpt>
      <trkpt lat="47.26485" lon="-1.55301">
        <ele>71.38466</ele>
        <time>2022-03-08T07:57:01Z</time>
      </trkpt>
      <trkpt lat="47.26481" lon="-1.55297">
        <ele>71.93545</ele>
        <time>2022-03-08T07:57:04Z</time>
      </trkpt>
      <trkpt lat="47.26479" lon="-1.55295">
        <ele>72.1344</ele>
        <time>2022-03-08T07:57:05Z</time>
      </trkpt>
      <trkpt lat="47.26478" lon="-1.55294">
        <ele>72.34149</ele>
        <time>2022-03-08T07:57:06Z</time>
      </trkpt>
      <trkpt lat="47.26476" lon="-1.55293">
        <ele>72.554146</ele>
        <time>2022-03-08T07:57:07Z</time>
      </trkpt>
      <trkpt lat="47.26474" lon="-1.55291">
        <ele>72.7633</ele>
        <time>2022-03-08T07:57:08Z</time>
      </trkpt>
      <trkpt lat="47.26473" lon="-1.5529">
        <ele>72.97826</ele>
        <time>2022-03-08T07:57:09Z</time>
      </trkpt>
      <trkpt lat="47.26471" lon="-1.55288">
        <ele>73.20046</ele>
        <time>2022-03-08T07:57:10Z</time>
      </trkpt>
      <trkpt lat="47.2647" lon="-1.55287">
        <ele>73.42607</ele>
        <time>2022-03-08T07:57:11Z</time>
      </trkpt>
      <trkpt lat="47.26468" lon="-1.55287">
        <ele>73.64721</ele>
        <time>2022-03-08T07:57:12Z</time>
      </trkpt>
      <trkpt lat="47.26466" lon="-1.55286">
        <ele>73.86051</ele>
        <time>2022-03-08T07:57:13Z</time>
      </trkpt>
      <trkpt lat="47.26465" lon="-1.55285">
        <ele>74.066864</ele>
        <time>2022-03-08T07:57:14Z</time>
      </trkpt>
      <trkpt lat="47.26464" lon="-1.55285">
        <ele>74.26905</ele>
        <time>2022-03-08T07:57:15Z</time>
      </trkpt>
      <trkpt lat="47.26463" lon="-1.55284">
        <ele>74.46198</ele>
        <time>2022-03-08T07:57:16Z</time>
      </trkpt>
      <trkpt lat="47.26461" lon="-1.55282">
        <ele>74.64762</ele>
        <time>2022-03-08T07:57:17Z</time>
      </trkpt>
      <trkpt lat="47.26459" lon="-1.5528">
        <ele>74.835144</ele>
        <time>2022-03-08T07:57:18Z</time>
      </trkpt>
      <trkpt lat="47.26458" lon="-1.55278">
        <ele>75.02446</ele>
        <time>2022-03-08T07:57:19Z</time>
      </trkpt>
      <trkpt lat="47.26456" lon="-1.55277">
        <ele>75.211525</ele>
        <time>2022-03-08T07:57:20Z</time>
      </trkpt>
      <trkpt lat="47.26454" lon="-1.55276">
        <ele>75.40298</ele>
        <time>2022-03-08T07:57:21Z</time>
      </trkpt>
      <trkpt lat="47.26452" lon="-1.55275">
        <ele>75.581955</ele>
        <time>2022-03-08T07:57:22Z</time>
      </trkpt>
      <trkpt lat="47.26452" lon="-1.55273">
        <ele>75.75665</ele>
        <time>2022-03-08T07:57:23Z</time>
      </trkpt>
      <trkpt lat="47.26451" lon="-1.55271">
        <ele>75.92653</ele>
        <time>2022-03-08T07:57:24Z</time>
      </trkpt>
      <trkpt lat="47.2645" lon="-1.5527">
        <ele>76.07988</ele>
        <time>2022-03-08T07:57:25Z</time>
      </trkpt>
      <trkpt lat="47.26448" lon="-1.55268">
        <ele>76.23541</ele>
        <time>2022-03-08T07:57:26Z</time>
      </trkpt>
      <trkpt lat="47.26448" lon="-1.55268">
        <ele>76.25008</ele>
        <time>2022-03-08T07:57:27Z</time>
      </trkpt>
      <trkpt lat="47.26447" lon="-1.55267">
        <ele>76.39148</ele>
        <time>2022-03-08T07:57:28Z</time>
      </trkpt>
      <trkpt lat="47.26447" lon="-1.55267">
        <ele>76.52594</ele>
        <time>2022-03-08T07:57:29Z</time>
      </trkpt>
      <trkpt lat="47.26445" lon="-1.55265">
        <ele>76.65099</ele>
        <time>2022-03-08T07:57:30Z</time>
      </trkpt>
      <trkpt lat="47.26445" lon="-1.55264">
        <ele>76.75763</ele>
        <time>2022-03-08T07:57:31Z</time>
      </trkpt>
      <trkpt lat="47.26444" lon="-1.55263">
        <ele>76.86533</ele>
        <time>2022-03-08T07:57:32Z</time>
      </trkpt>
      <trkpt lat="47.26442" lon="-1.55263">
        <ele>76.977776</ele>
        <time>2022-03-08T07:57:33Z</time>
      </trkpt>
      <trkpt lat="47.26442" lon="-1.55262">
        <ele>77.090454</ele>
        <time>2022-03-08T07:57:34Z</time>
      </trkpt>
      <trkpt lat="47.2644" lon="-1.55261">
        <ele>77.20329</ele>
        <time>2022-03-08T07:57:35Z</time>
      </trkpt>
      <trkpt lat="47.26439" lon="-1.5526">
        <ele>77.31845</ele>
        <time>2022-03-08T07:57:36Z</time>
      </trkpt>
      <trkpt lat="47.26438" lon="-1.55259">
        <ele>77.426414</ele>
        <time>2022-03-08T07:57:37Z</time>
      </trkpt>
      <trkpt lat="47.26437" lon="-1.55257">
        <ele>77.52281</ele>
        <time>2022-03-08T07:57:38Z</time>
      </trkpt>
      <trkpt lat="47.26436" lon="-1.55256">
        <ele>77.60604</ele>
        <time>2022-03-08T07:57:39Z</time>
      </trkpt>
      <trkpt lat="47.26435" lon="-1.55255">
        <ele>77.678665</ele>
        <time>2022-03-08T07:57:40Z</time>
      </trkpt>
      <trkpt lat="47.26433" lon="-1.55255">
        <ele>77.731636</ele>
        <time>2022-03-08T07:57:41Z</time>
      </trkpt>
      <trkpt lat="47.26432" lon="-1.55255">
        <ele>77.7514</ele>
        <time>2022-03-08T07:57:42Z</time>
      </trkpt>
      <trkpt lat="47.26431" lon="-1.55254">
        <ele>77.76352</ele>
        <time>2022-03-08T07:57:43Z</time>
      </trkpt>
      <trkpt lat="47.2643" lon="-1.55253">
        <ele>77.777626</ele>
        <time>2022-03-08T07:57:44Z</time>
      </trkpt>
      <trkpt lat="47.26428" lon="-1.55252">
        <ele>77.79106</ele>
        <time>2022-03-08T07:57:45Z</time>
      </trkpt>
      <trkpt lat="47.26427" lon="-1.55251">
        <ele>77.806114</ele>
        <time>2022-03-08T07:57:46Z</time>
      </trkpt>
      <trkpt lat="47.26426" lon="-1.5525">
        <ele>77.817444</ele>
        <time>2022-03-08T07:57:47Z</time>
      </trkpt>
      <trkpt lat="47.26425" lon="-1.55249">
        <ele>77.82649</ele>
        <time>2022-03-08T07:57:48Z</time>
      </trkpt>
      <trkpt lat="47.26424" lon="-1.55249">
        <ele>77.83827</ele>
        <time>2022-03-08T07:57:49Z</time>
      </trkpt>
      <trkpt lat="47.26423" lon="-1.55248">
        <ele>77.84415</ele>
        <time>2022-03-08T07:57:50Z</time>
      </trkpt>
      <trkpt lat="47.26423" lon="-1.55248">
        <ele>77.84415</ele>
        <time>2022-03-08T07:57:50Z</time>
      </trkpt>
      <trkpt lat="47.26419" lon="-1.55244">
        <ele>77.835014</ele>
        <time>2022-03-08T07:57:52Z</time>
      </trkpt>
      <trkpt lat="47.26417" lon="-1.55243">
        <ele>77.82542</ele>
        <time>2022-03-08T07:57:53Z</time>
      </trkpt>
      <trkpt lat="47.26412" lon="-1.5524">
        <ele>77.76644</ele>
        <time>2022-03-08T07:57:56Z</time>
      </trkpt>
      <trkpt lat="47.26408" lon="-1.55237">
        <ele>77.653595</ele>
        <time>2022-03-08T07:57:59Z</time>
      </trkpt>
      <trkpt lat="47.26405" lon="-1.55231">
        <ele>77.52354</ele>
        <time>2022-03-08T07:58:03Z</time>
      </trkpt>
      <trkpt lat="47.26401" lon="-1.55225">
        <ele>77.48817</ele>
        <time>2022-03-08T07:58:07Z</time>
      </trkpt>
      <trkpt lat="47.26395" lon="-1.55224">
        <ele>77.47703</ele>
        <time>2022-03-08T07:58:10Z</time>
      </trkpt>
      <trkpt lat="47.26391" lon="-1.55222">
        <ele>77.42765</ele>
        <time>2022-03-08T07:58:12Z</time>
      </trkpt>
      <trkpt lat="47.26385" lon="-1.55221">
        <ele>77.2074</ele>
        <time>2022-03-08T07:58:16Z</time>
      </trkpt>
      <trkpt lat="47.2638" lon="-1.55219">
        <ele>77.00056</ele>
        <time>2022-03-08T07:58:19Z</time>
      </trkpt>
      <trkpt lat="47.26375" lon="-1.55215">
        <ele>76.910545</ele>
        <time>2022-03-08T07:58:21Z</time>
      </trkpt>
      <trkpt lat="47.26371" lon="-1.55212">
        <ele>76.75167</ele>
        <time>2022-03-08T07:58:26Z</time>
      </trkpt>
      <trkpt lat="47.26366" lon="-1.55207">
        <ele>75.48252</ele>
        <time>2022-03-08T07:58:37Z</time>
      </trkpt>
      <trkpt lat="47.26362" lon="-1.55202">
        <ele>74.937935</ele>
        <time>2022-03-08T07:58:40Z</time>
      </trkpt>
      <trkpt lat="47.26357" lon="-1.55199">
        <ele>74.53035</ele>
        <time>2022-03-08T07:58:43Z</time>
      </trkpt>
      <trkpt lat="47.26352" lon="-1.55197">
        <ele>74.38601</ele>
        <time>2022-03-08T07:58:48Z</time>
      </trkpt>
      <trkpt lat="47.26345" lon="-1.55197">
        <ele>74.29686</ele>
        <time>2022-03-08T07:58:51Z</time>
      </trkpt>
      <trkpt lat="47.2634" lon="-1.55194">
        <ele>74.295</ele>
        <time>2022-03-08T07:58:54Z</time>
      </trkpt>
      <trkpt lat="47.26335" lon="-1.55197">
        <ele>74.3286</ele>
        <time>2022-03-08T07:58:57Z</time>
      </trkpt>
      <trkpt lat="47.26331" lon="-1.55203">
        <ele>74.066315</ele>
        <time>2022-03-08T07:59:01Z</time>
      </trkpt>
      <trkpt lat="47.26325" lon="-1.55208">
        <ele>73.774155</ele>
        <time>2022-03-08T07:59:04Z</time>
      </trkpt>
      <trkpt lat="47.2632" lon="-1.55213">
        <ele>73.36426</ele>
        <time>2022-03-08T07:59:07Z</time>
      </trkpt>
      <trkpt lat="47.26316" lon="-1.55216">
        <ele>72.939606</ele>
        <time>2022-03-08T07:59:11Z</time>
      </trkpt>
      <trkpt lat="47.26311" lon="-1.55217">
        <ele>72.49767</ele>
        <time>2022-03-08T07:59:14Z</time>
      </trkpt>
      <trkpt lat="47.26307" lon="-1.55222">
        <ele>71.88949</ele>
        <time>2022-03-08T07:59:18Z</time>
      </trkpt>
      <trkpt lat="47.26301" lon="-1.55223">
        <ele>71.45458</ele>
        <time>2022-03-08T07:59:21Z</time>
      </trkpt>
      <trkpt lat="47.26296" lon="-1.55223">
        <ele>71.269356</ele>
        <time>2022-03-08T07:59:23Z</time>
      </trkpt>
      <trkpt lat="47.26291" lon="-1.55227">
        <ele>71.070076</ele>
        <time>2022-03-08T07:59:25Z</time>
      </trkpt>
      <trkpt lat="47.26287" lon="-1.55235">
        <ele>71.05414</ele>
        <time>2022-03-08T07:59:29Z</time>
      </trkpt>
      <trkpt lat="47.26283" lon="-1.55242">
        <ele>71.087105</ele>
        <time>2022-03-08T07:59:32Z</time>
      </trkpt>
      <trkpt lat="47.26284" lon="-1.5525">
        <ele>70.536934</ele>
        <time>2022-03-08T07:59:37Z</time>
      </trkpt>
      <trkpt lat="47.26282" lon="-1.55257">
        <ele>69.84835</ele>
        <time>2022-03-08T07:59:42Z</time>
      </trkpt>
      <trkpt lat="47.26279" lon="-1.55263">
        <ele>68.94867</ele>
        <time>2022-03-08T07:59:45Z</time>
      </trkpt>
      <trkpt lat="47.26277" lon="-1.5527">
        <ele>67.750984</ele>
        <time>2022-03-08T07:59:50Z</time>
      </trkpt>
      <trkpt lat="47.26272" lon="-1.55271">
        <ele>66.61774</ele>
        <time>2022-03-08T07:59:53Z</time>
      </trkpt>
      <trkpt lat="47.26267" lon="-1.55277">
        <ele>66.02951</ele>
        <time>2022-03-08T07:59:56Z</time>
      </trkpt>
      <trkpt lat="47.26264" lon="-1.55282">
        <ele>65.829704</ele>
        <time>2022-03-08T07:59:58Z</time>
      </trkpt>
      <trkpt lat="47.2626" lon="-1.55288">
        <ele>65.57312</ele>
        <time>2022-03-08T08:00:02Z</time>
      </trkpt>
      <trkpt lat="47.26257" lon="-1.55294">
        <ele>65.29238</ele>
        <time>2022-03-08T08:00:08Z</time>
      </trkpt>
      <trkpt lat="47.26255" lon="-1.55301">
        <ele>65.25265</ele>
        <time>2022-03-08T08:00:11Z</time>
      </trkpt>
      <trkpt lat="47.2625" lon="-1.55304">
        <ele>65.0997</ele>
        <time>2022-03-08T08:00:14Z</time>
      </trkpt>
      <trkpt lat="47.26245" lon="-1.55307">
        <ele>64.82145</ele>
        <time>2022-03-08T08:00:17Z</time>
      </trkpt>
      <trkpt lat="47.26241" lon="-1.5531">
        <ele>64.33314</ele>
        <time>2022-03-08T08:00:21Z</time>
      </trkpt>
      <trkpt lat="47.26237" lon="-1.55314">
        <ele>64.017586</ele>
        <time>2022-03-08T08:00:24Z</time>
      </trkpt>
      <trkpt lat="47.26234" lon="-1.55322">
        <ele>63.774254</ele>
        <time>2022-03-08T08:00:28Z</time>
      </trkpt>
      <trkpt lat="47.26231" lon="-1.55328">
        <ele>63.693844</ele>
        <time>2022-03-08T08:00:31Z</time>
      </trkpt>
      <trkpt lat="47.26226" lon="-1.55332">
        <ele>63.673824</ele>
        <time>2022-03-08T08:00:34Z</time>
      </trkpt>
      <trkpt lat="47.26224" lon="-1.5534">
        <ele>63.671387</ele>
        <time>2022-03-08T08:00:38Z</time>
      </trkpt>
      <trkpt lat="47.26221" lon="-1.55347">
        <ele>63.475685</ele>
        <time>2022-03-08T08:00:43Z</time>
      </trkpt>
      <trkpt lat="47.26218" lon="-1.55354">
        <ele>63.2527</ele>
        <time>2022-03-08T08:00:47Z</time>
      </trkpt>
      <trkpt lat="47.26215" lon="-1.55359">
        <ele>63.12243</ele>
        <time>2022-03-08T08:00:50Z</time>
      </trkpt>
      <trkpt lat="47.2621" lon="-1.5536">
        <ele>62.869328</ele>
        <time>2022-03-08T08:00:54Z</time>
      </trkpt>
      <trkpt lat="47.26205" lon="-1.55358">
        <ele>62.568573</ele>
        <time>2022-03-08T08:00:58Z</time>
      </trkpt>
      <trkpt lat="47.26201" lon="-1.55355">
        <ele>62.34711</ele>
        <time>2022-03-08T08:01:03Z</time>
      </trkpt>
      <trkpt lat="47.26197" lon="-1.55351">
        <ele>62.257236</ele>
        <time>2022-03-08T08:01:06Z</time>
      </trkpt>
      <trkpt lat="47.26192" lon="-1.55348">
        <ele>62.179604</ele>
        <time>2022-03-08T08:01:09Z</time>
      </trkpt>
      <trkpt lat="47.26188" lon="-1.55344">
        <ele>62.112602</ele>
        <time>2022-03-08T08:01:12Z</time>
      </trkpt>
      <trkpt lat="47.26183" lon="-1.5534">
        <ele>62.108616</ele>
        <time>2022-03-08T08:01:15Z</time>
      </trkpt>
      <trkpt lat="47.26177" lon="-1.55338">
        <ele>62.182785</ele>
        <time>2022-03-08T08:01:19Z</time>
      </trkpt>
      <trkpt lat="47.26173" lon="-1.55332">
        <ele>62.42323</ele>
        <time>2022-03-08T08:01:23Z</time>
      </trkpt>
      <trkpt lat="47.26167" lon="-1.55333">
        <ele>62.590805</ele>
        <time>2022-03-08T08:01:26Z</time>
      </trkpt>
      <trkpt lat="47.26163" lon="-1.55332">
        <ele>62.62032</ele>
        <time>2022-03-08T08:01:29Z</time>
      </trkpt>
      <trkpt lat="47.26156" lon="-1.55328">
        <ele>62.61859</ele>
        <time>2022-03-08T08:01:34Z</time>
      </trkpt>
      <trkpt lat="47.26151" lon="-1.55327">
        <ele>62.598045</ele>
        <time>2022-03-08T08:01:37Z</time>
      </trkpt>
      <trkpt lat="47.26146" lon="-1.55327">
        <ele>62.510937</ele>
        <time>2022-03-08T08:01:40Z</time>
      </trkpt>
      <trkpt lat="47.26141" lon="-1.55323">
        <ele>62.3981</ele>
        <time>2022-03-08T08:01:44Z</time>
      </trkpt>
      <trkpt lat="47.26136" lon="-1.55322">
        <ele>62.252205</ele>
        <time>2022-03-08T08:01:47Z</time>
      </trkpt>
      <trkpt lat="47.26132" lon="-1.55317">
        <ele>62.01335</ele>
        <time>2022-03-08T08:01:52Z</time>
      </trkpt>
      <trkpt lat="47.26127" lon="-1.55314">
        <ele>61.78461</ele>
        <time>2022-03-08T08:01:56Z</time>
      </trkpt>
      <trkpt lat="47.26121" lon="-1.55312">
        <ele>61.517014</ele>
        <time>2022-03-08T08:02:00Z</time>
      </trkpt>
      <trkpt lat="47.26116" lon="-1.55309">
        <ele>61.17307</ele>
        <time>2022-03-08T08:02:04Z</time>
      </trkpt>
      <trkpt lat="47.26112" lon="-1.55305">
        <ele>60.92457</ele>
        <time>2022-03-08T08:02:08Z</time>
      </trkpt>
      <trkpt lat="47.26109" lon="-1.5531">
        <ele>60.67773</ele>
        <time>2022-03-08T08:02:11Z</time>
      </trkpt>
      <trkpt lat="47.26104" lon="-1.55315">
        <ele>60.162724</ele>
        <time>2022-03-08T08:02:15Z</time>
      </trkpt>
      <trkpt lat="47.26099" lon="-1.55318">
        <ele>59.770123</ele>
        <time>2022-03-08T08:02:18Z</time>
      </trkpt>
      <trkpt lat="47.26095" lon="-1.55324">
        <ele>59.28773</ele>
        <time>2022-03-08T08:02:22Z</time>
      </trkpt>
      <trkpt lat="47.26092" lon="-1.55331">
        <ele>58.93956</ele>
        <time>2022-03-08T08:02:26Z</time>
      </trkpt>
      <trkpt lat="47.26089" lon="-1.55338">
        <ele>58.572746</ele>
        <time>2022-03-08T08:02:30Z</time>
      </trkpt>
      <trkpt lat="47.26086" lon="-1.55345">
        <ele>58.279655</ele>
        <time>2022-03-08T08:02:33Z</time>
      </trkpt>
      <trkpt lat="47.26084" lon="-1.55352">
        <ele>57.99919</ele>
        <time>2022-03-08T08:02:36Z</time>
      </trkpt>
      <trkpt lat="47.2608" lon="-1.55358">
        <ele>57.85341</ele>
        <time>2022-03-08T08:02:40Z</time>
      </trkpt>
      <trkpt lat="47.26077" lon="-1.55364">
        <ele>57.848366</ele>
        <time>2022-03-08T08:02:44Z</time>
      </trkpt>
      <trkpt lat="47.26075" lon="-1.55371">
        <ele>57.81793</ele>
        <time>2022-03-08T08:02:48Z</time>
      </trkpt>
      <trkpt lat="47.26072" lon="-1.55376">
        <ele>57.73989</ele>
        <time>2022-03-08T08:02:51Z</time>
      </trkpt>
      <trkpt lat="47.26068" lon="-1.55383">
        <ele>57.553703</ele>
        <time>2022-03-08T08:02:55Z</time>
      </trkpt>
      <trkpt lat="47.26065" lon="-1.55388">
        <ele>57.393444</ele>
        <time>2022-03-08T08:02:58Z</time>
      </trkpt>
      <trkpt lat="47.26062" lon="-1.55394">
        <ele>56.97861</ele>
        <time>2022-03-08T08:03:03Z</time>
      </trkpt>
      <trkpt lat="47.2606" lon="-1.55401">
        <ele>56.606754</ele>
        <time>2022-03-08T08:03:07Z</time>
      </trkpt>
      <trkpt lat="47.26057" lon="-1.55407">
        <ele>56.28606</ele>
        <time>2022-03-08T08:03:11Z</time>
      </trkpt>
      <trkpt lat="47.26056" lon="-1.55414">
        <ele>56.093964</ele>
        <time>2022-03-08T08:03:14Z</time>
      </trkpt>
      <trkpt lat="47.26053" lon="-1.55421">
        <ele>55.8475</ele>
        <time>2022-03-08T08:03:18Z</time>
      </trkpt>
      <trkpt lat="47.26051" lon="-1.55428">
        <ele>55.65608</ele>
        <time>2022-03-08T08:03:21Z</time>
      </trkpt>
      <trkpt lat="47.26049" lon="-1.55436">
        <ele>55.420258</ele>
        <time>2022-03-08T08:03:25Z</time>
      </trkpt>
      <trkpt lat="47.26048" lon="-1.55443">
        <ele>55.276485</ele>
        <time>2022-03-08T08:03:28Z</time>
      </trkpt>
      <trkpt lat="47.26046" lon="-1.55449">
        <ele>55.142586</ele>
        <time>2022-03-08T08:03:31Z</time>
      </trkpt>
      <trkpt lat="47.26044" lon="-1.55456">
        <ele>55.00055</ele>
        <time>2022-03-08T08:03:34Z</time>
      </trkpt>
      <trkpt lat="47.26043" lon="-1.55463">
        <ele>54.788773</ele>
        <time>2022-03-08T08:03:37Z</time>
      </trkpt>
      <trkpt lat="47.26041" lon="-1.55471">
        <ele>54.587315</ele>
        <time>2022-03-08T08:03:40Z</time>
      </trkpt>
      <trkpt lat="47.26039" lon="-1.55478">
        <ele>54.32383</ele>
        <time>2022-03-08T08:03:44Z</time>
      </trkpt>
      <trkpt lat="47.26036" lon="-1.55486">
        <ele>54.05445</ele>
        <time>2022-03-08T08:03:49Z</time>
      </trkpt>
      <trkpt lat="47.26034" lon="-1.55493">
        <ele>53.823784</ele>
        <time>2022-03-08T08:03:53Z</time>
      </trkpt>
      <trkpt lat="47.26032" lon="-1.555">
        <ele>53.595146</ele>
        <time>2022-03-08T08:03:57Z</time>
      </trkpt>
      <trkpt lat="47.26031" lon="-1.55507">
        <ele>53.33426</ele>
        <time>2022-03-08T08:04:01Z</time>
      </trkpt>
      <trkpt lat="47.26029" lon="-1.55514">
        <ele>53.00845</ele>
        <time>2022-03-08T08:04:05Z</time>
      </trkpt>
      <trkpt lat="47.26026" lon="-1.55521">
        <ele>52.778267</ele>
        <time>2022-03-08T08:04:09Z</time>
      </trkpt>
      <trkpt lat="47.26022" lon="-1.55526">
        <ele>52.6401</ele>
        <time>2022-03-08T08:04:13Z</time>
      </trkpt>
      <trkpt lat="47.26019" lon="-1.55532">
        <ele>52.658695</ele>
        <time>2022-03-08T08:04:17Z</time>
      </trkpt>
      <trkpt lat="47.26016" lon="-1.55539">
        <ele>52.79249</ele>
        <time>2022-03-08T08:04:21Z</time>
      </trkpt>
      <trkpt lat="47.26014" lon="-1.55547">
        <ele>53.00421</ele>
        <time>2022-03-08T08:04:25Z</time>
      </trkpt>
      <trkpt lat="47.26012" lon="-1.55554">
        <ele>53.175137</ele>
        <time>2022-03-08T08:04:29Z</time>
      </trkpt>
      <trkpt lat="47.2601" lon="-1.55563">
        <ele>53.113556</ele>
        <time>2022-03-08T08:04:33Z</time>
      </trkpt>
      <trkpt lat="47.26008" lon="-1.5557">
        <ele>52.866833</ele>
        <time>2022-03-08T08:04:37Z</time>
      </trkpt>
      <trkpt lat="47.26006" lon="-1.55576">
        <ele>52.654903</ele>
        <time>2022-03-08T08:04:41Z</time>
      </trkpt>
      <trkpt lat="47.26004" lon="-1.55584">
        <ele>52.52738</ele>
        <time>2022-03-08T08:04:45Z</time>
      </trkpt>
      <trkpt lat="47.26004" lon="-1.55591">
        <ele>52.41159</ele>
        <time>2022-03-08T08:04:49Z</time>
      </trkpt>
      <trkpt lat="47.26004" lon="-1.55598">
        <ele>52.219997</ele>
        <time>2022-03-08T08:04:53Z</time>
      </trkpt>
      <trkpt lat="47.26006" lon="-1.55607">
        <ele>52.35084</ele>
        <time>2022-03-08T08:04:57Z</time>
      </trkpt>
      <trkpt lat="47.26008" lon="-1.55613">
        <ele>52.719517</ele>
        <time>2022-03-08T08:05:00Z</time>
      </trkpt>
      <trkpt lat="47.26008" lon="-1.5562">
        <ele>53.192665</ele>
        <time>2022-03-08T08:05:05Z</time>
      </trkpt>
      <trkpt lat="47.26011" lon="-1.55625">
        <ele>53.56192</ele>
        <time>2022-03-08T08:05:09Z</time>
      </trkpt>
      <trkpt lat="47.26016" lon="-1.55629">
        <ele>54.127472</ele>
        <time>2022-03-08T08:05:14Z</time>
      </trkpt>
      <trkpt lat="47.26019" lon="-1.55634">
        <ele>54.50307</ele>
        <time>2022-03-08T08:05:17Z</time>
      </trkpt>
      <trkpt lat="47.26024" lon="-1.5564">
        <ele>55.18078</ele>
        <time>2022-03-08T08:05:21Z</time>
      </trkpt>
      <trkpt lat="47.26027" lon="-1.55648">
        <ele>55.83874</ele>
        <time>2022-03-08T08:05:24Z</time>
      </trkpt>
      <trkpt lat="47.2603" lon="-1.55653">
        <ele>56.633175</ele>
        <time>2022-03-08T08:05:27Z</time>
      </trkpt>
      <trkpt lat="47.26033" lon="-1.55659">
        <ele>58.04537</ele>
        <time>2022-03-08T08:05:32Z</time>
      </trkpt>
      <trkpt lat="47.26037" lon="-1.55664">
        <ele>59.160984</ele>
        <time>2022-03-08T08:05:37Z</time>
      </trkpt>
      <trkpt lat="47.26041" lon="-1.5567">
        <ele>59.804306</ele>
        <time>2022-03-08T08:05:46Z</time>
      </trkpt>
      <trkpt lat="47.26043" lon="-1.55679">
        <ele>59.779015</ele>
        <time>2022-03-08T08:05:50Z</time>
      </trkpt>
      <trkpt lat="47.26043" lon="-1.55686">
        <ele>59.735622</ele>
        <time>2022-03-08T08:05:54Z</time>
      </trkpt>
      <trkpt lat="47.26045" lon="-1.55692">
        <ele>59.653503</ele>
        <time>2022-03-08T08:05:57Z</time>
      </trkpt>
      <trkpt lat="47.26047" lon="-1.557">
        <ele>59.55752</ele>
        <time>2022-03-08T08:06:01Z</time>
      </trkpt>
      <trkpt lat="47.26043" lon="-1.55706">
        <ele>59.608994</ele>
        <time>2022-03-08T08:06:05Z</time>
      </trkpt>
      <trkpt lat="47.26042" lon="-1.55713">
        <ele>59.71643</ele>
        <time>2022-03-08T08:06:09Z</time>
      </trkpt>
      <trkpt lat="47.26041" lon="-1.55721">
        <ele>59.80289</ele>
        <time>2022-03-08T08:06:12Z</time>
      </trkpt>
      <trkpt lat="47.26038" lon="-1.55727">
        <ele>59.96206</ele>
        <time>2022-03-08T08:06:15Z</time>
      </trkpt>
      <trkpt lat="47.26036" lon="-1.55734">
        <ele>59.989784</ele>
        <time>2022-03-08T08:06:20Z</time>
      </trkpt>
      <trkpt lat="47.26032" lon="-1.55738">
        <ele>59.825012</ele>
        <time>2022-03-08T08:06:23Z</time>
      </trkpt>
      <trkpt lat="47.26029" lon="-1.55745">
        <ele>59.725246</ele>
        <time>2022-03-08T08:06:27Z</time>
      </trkpt>
      <trkpt lat="47.26025" lon="-1.55749">
        <ele>59.677765</ele>
        <time>2022-03-08T08:06:30Z</time>
      </trkpt>
      <trkpt lat="47.26023" lon="-1.55756">
        <ele>59.65404</ele>
        <time>2022-03-08T08:06:33Z</time>
      </trkpt>
      <trkpt lat="47.26018" lon="-1.55761">
        <ele>59.673725</ele>
        <time>2022-03-08T08:06:37Z</time>
      </trkpt>
      <trkpt lat="47.26014" lon="-1.55764">
        <ele>59.70866</ele>
        <time>2022-03-08T08:06:40Z</time>
      </trkpt>
      <trkpt lat="47.26009" lon="-1.55764">
        <ele>59.669415</ele>
        <time>2022-03-08T08:06:43Z</time>
      </trkpt>
      <trkpt lat="47.26005" lon="-1.55768">
        <ele>59.681873</ele>
        <time>2022-03-08T08:06:47Z</time>
      </trkpt>
      <trkpt lat="47.26001" lon="-1.55768">
        <ele>59.860012</ele>
        <time>2022-03-08T08:06:54Z</time>
      </trkpt>
      <trkpt lat="47.25996" lon="-1.55764">
        <ele>60.098904</ele>
        <time>2022-03-08T08:06:58Z</time>
      </trkpt>
      <trkpt lat="47.2599" lon="-1.55762">
        <ele>60.195343</ele>
        <time>2022-03-08T08:07:01Z</time>
      </trkpt>
      <trkpt lat="47.25985" lon="-1.55762">
        <ele>60.19905</ele>
        <time>2022-03-08T08:07:03Z</time>
      </trkpt>
      <trkpt lat="47.2598" lon="-1.55762">
        <ele>60.2017</ele>
        <time>2022-03-08T08:07:06Z</time>
      </trkpt>
      <trkpt lat="47.25975" lon="-1.5576">
        <ele>60.279343</ele>
        <time>2022-03-08T08:07:10Z</time>
      </trkpt>
      <trkpt lat="47.25971" lon="-1.55755">
        <ele>60.389603</ele>
        <time>2022-03-08T08:07:13Z</time>
      </trkpt>
      <trkpt lat="47.25967" lon="-1.5575">
        <ele>60.529182</ele>
        <time>2022-03-08T08:07:16Z</time>
      </trkpt>
      <trkpt lat="47.25964" lon="-1.55744">
        <ele>60.813534</ele>
        <time>2022-03-08T08:07:20Z</time>
      </trkpt>
      <trkpt lat="47.2596" lon="-1.55738">
        <ele>61.466488</ele>
        <time>2022-03-08T08:07:25Z</time>
      </trkpt>
      <trkpt lat="47.25955" lon="-1.55741">
        <ele>62.153404</ele>
        <time>2022-03-08T08:07:30Z</time>
      </trkpt>
      <trkpt lat="47.25954" lon="-1.55745">
        <ele>62.375076</ele>
        <time>2022-03-08T08:07:35Z</time>
      </trkpt>
      <trkpt lat="47.25954" lon="-1.55745">
        <ele>62.375076</ele>
        <time>2022-03-08T08:07:35Z</time>
      </trkpt>
      <trkpt lat="47.2595" lon="-1.5575">
        <ele>62.367325</ele>
        <time>2022-03-08T08:07:42Z</time>
      </trkpt>
      <trkpt lat="47.25946" lon="-1.5575">
        <ele>62.49327</ele>
        <time>2022-03-08T08:07:47Z</time>
      </trkpt>
      <trkpt lat="47.25941" lon="-1.5575">
        <ele>62.616467</ele>
        <time>2022-03-08T08:07:51Z</time>
      </trkpt>
      <trkpt lat="47.25936" lon="-1.55752">
        <ele>62.88477</ele>
        <time>2022-03-08T08:07:55Z</time>
      </trkpt>
      <trkpt lat="47.25931" lon="-1.55751">
        <ele>63.174</ele>
        <time>2022-03-08T08:07:58Z</time>
      </trkpt>
      <trkpt lat="47.25927" lon="-1.5575">
        <ele>63.36461</ele>
        <time>2022-03-08T08:08:01Z</time>
      </trkpt>
      <trkpt lat="47.2592" lon="-1.55749">
        <ele>63.783634</ele>
        <time>2022-03-08T08:08:05Z</time>
      </trkpt>
      <trkpt lat="47.25915" lon="-1.55751">
        <ele>64.01313</ele>
        <time>2022-03-08T08:08:07Z</time>
      </trkpt>
      <trkpt lat="47.25909" lon="-1.55748">
        <ele>64.20784</ele>
        <time>2022-03-08T08:08:10Z</time>
      </trkpt>
      <trkpt lat="47.25904" lon="-1.55747">
        <ele>64.11461</ele>
        <time>2022-03-08T08:08:13Z</time>
      </trkpt>
      <trkpt lat="47.25899" lon="-1.55749">
        <ele>63.693127</ele>
        <time>2022-03-08T08:08:18Z</time>
      </trkpt>
      <trkpt lat="47.25894" lon="-1.55749">
        <ele>63.329212</ele>
        <time>2022-03-08T08:08:21Z</time>
      </trkpt>
      <trkpt lat="47.25889" lon="-1.55754">
        <ele>62.753212</ele>
        <time>2022-03-08T08:08:25Z</time>
      </trkpt>
      <trkpt lat="47.25885" lon="-1.55757">
        <ele>62.36859</ele>
        <time>2022-03-08T08:08:28Z</time>
      </trkpt>
      <trkpt lat="47.2588" lon="-1.5576">
        <ele>62.032864</ele>
        <time>2022-03-08T08:08:31Z</time>
      </trkpt>
      <trkpt lat="47.25874" lon="-1.55758">
        <ele>61.661205</ele>
        <time>2022-03-08T08:08:35Z</time>
      </trkpt>
      <trkpt lat="47.25869" lon="-1.55755">
        <ele>61.32141</ele>
        <time>2022-03-08T08:08:41Z</time>
      </trkpt>
      <trkpt lat="47.25864" lon="-1.55755">
        <ele>61.028973</ele>
        <time>2022-03-08T08:08:45Z</time>
      </trkpt>
      <trkpt lat="47.25859" lon="-1.55757">
        <ele>60.86401</ele>
        <time>2022-03-08T08:08:48Z</time>
      </trkpt>
      <trkpt lat="47.25854" lon="-1.55759">
        <ele>60.61137</ele>
        <time>2022-03-08T08:08:52Z</time>
      </trkpt>
      <trkpt lat="47.25848" lon="-1.55761">
        <ele>60.35821</ele>
        <time>2022-03-08T08:08:55Z</time>
      </trkpt>
      <trkpt lat="47.25843" lon="-1.55763">
        <ele>60.11307</ele>
        <time>2022-03-08T08:08:58Z</time>
      </trkpt>
      <trkpt lat="47.25838" lon="-1.55763">
        <ele>59.75341</ele>
        <time>2022-03-08T08:09:02Z</time>
      </trkpt>
      <trkpt lat="47.25834" lon="-1.55759">
        <ele>59.46592</ele>
        <time>2022-03-08T08:09:05Z</time>
      </trkpt>
      <trkpt lat="47.2583" lon="-1.55755">
        <ele>59.286236</ele>
        <time>2022-03-08T08:09:08Z</time>
      </trkpt>
      <trkpt lat="47.25824" lon="-1.55754">
        <ele>59.22718</ele>
        <time>2022-03-08T08:09:12Z</time>
      </trkpt>
      <trkpt lat="47.2582" lon="-1.55755">
        <ele>59.179497</ele>
        <time>2022-03-08T08:09:15Z</time>
      </trkpt>
      <trkpt lat="47.25815" lon="-1.55754">
        <ele>59.19478</ele>
        <time>2022-03-08T08:09:17Z</time>
      </trkpt>
      <trkpt lat="47.2581" lon="-1.55757">
        <ele>59.43979</ele>
        <time>2022-03-08T08:09:21Z</time>
      </trkpt>
      <trkpt lat="47.25805" lon="-1.55761">
        <ele>59.95062</ele>
        <time>2022-03-08T08:09:26Z</time>
      </trkpt>
      <trkpt lat="47.25802" lon="-1.55766">
        <ele>60.181587</ele>
        <time>2022-03-08T08:09:33Z</time>
      </trkpt>
      <trkpt lat="47.25797" lon="-1.55769">
        <ele>59.88016</ele>
        <time>2022-03-08T08:09:39Z</time>
      </trkpt>
      <trkpt lat="47.25792" lon="-1.55773">
        <ele>59.81468</ele>
        <time>2022-03-08T08:09:46Z</time>
      </trkpt>
      <trkpt lat="47.25788" lon="-1.55777">
        <ele>60.014687</ele>
        <time>2022-03-08T08:09:50Z</time>
      </trkpt>
      <trkpt lat="47.25784" lon="-1.55781">
        <ele>60.25019</ele>
        <time>2022-03-08T08:09:54Z</time>
      </trkpt>
      <trkpt lat="47.25785" lon="-1.55779">
        <ele>60.83732</ele>
        <time>2022-03-08T08:10:08Z</time>
      </trkpt>
      <trkpt lat="47.25785" lon="-1.55779">
        <ele>60.83732</ele>
        <time>2022-03-08T08:10:08Z</time>
      </trkpt>
      <trkpt lat="47.25782" lon="-1.55772">
        <ele>61.131046</ele>
        <time>2022-03-08T08:10:14Z</time>
      </trkpt>
      <trkpt lat="47.25781" lon="-1.55765">
        <ele>61.6069</ele>
        <time>2022-03-08T08:10:19Z</time>
      </trkpt>
      <trkpt lat="47.2578" lon="-1.55758">
        <ele>61.961082</ele>
        <time>2022-03-08T08:10:23Z</time>
      </trkpt>
      <trkpt lat="47.25776" lon="-1.55753">
        <ele>62.227722</ele>
        <time>2022-03-08T08:10:27Z</time>
      </trkpt>
      <trkpt lat="47.25772" lon="-1.55746">
        <ele>62.333282</ele>
        <time>2022-03-08T08:10:30Z</time>
      </trkpt>
      <trkpt lat="47.25776" lon="-1.55741">
        <ele>62.49409</ele>
        <time>2022-03-08T08:10:36Z</time>
      </trkpt>
      <trkpt lat="47.25779" lon="-1.55735">
        <ele>62.349205</ele>
        <time>2022-03-08T08:10:39Z</time>
      </trkpt>
      <trkpt lat="47.25782" lon="-1.5573">
        <ele>62.119335</ele>
        <time>2022-03-08T08:10:42Z</time>
      </trkpt>
      <trkpt lat="47.25787" lon="-1.55725">
        <ele>61.867847</ele>
        <time>2022-03-08T08:10:46Z</time>
      </trkpt>
      <trkpt lat="47.25791" lon="-1.55721">
        <ele>61.799324</ele>
        <time>2022-03-08T08:10:50Z</time>
      </trkpt>
      <trkpt lat="47.25794" lon="-1.55715">
        <ele>61.932255</ele>
        <time>2022-03-08T08:10:54Z</time>
      </trkpt>
      <trkpt lat="47.25789" lon="-1.5571">
        <ele>62.181324</ele>
        <time>2022-03-08T08:10:59Z</time>
      </trkpt>
      <trkpt lat="47.25785" lon="-1.55706">
        <ele>62.32867</ele>
        <time>2022-03-08T08:11:02Z</time>
      </trkpt>
      <trkpt lat="47.25782" lon="-1.557">
        <ele>62.619335</ele>
        <time>2022-03-08T08:11:06Z</time>
      </trkpt>
      <trkpt lat="47.25777" lon="-1.55698">
        <ele>62.84193</ele>
        <time>2022-03-08T08:11:09Z</time>
      </trkpt>
      <trkpt lat="47.25773" lon="-1.55695">
        <ele>63.046886</ele>
        <time>2022-03-08T08:11:12Z</time>
      </trkpt>
      <trkpt lat="47.25768" lon="-1.55691">
        <ele>63.36693</ele>
        <time>2022-03-08T08:11:16Z</time>
      </trkpt>
      <trkpt lat="47.25763" lon="-1.55686">
        <ele>63.61563</ele>
        <time>2022-03-08T08:11:19Z</time>
      </trkpt>
      <trkpt lat="47.25762" lon="-1.55679">
        <ele>63.872547</ele>
        <time>2022-03-08T08:11:24Z</time>
      </trkpt>
      <trkpt lat="47.25765" lon="-1.55677">
        <ele>63.954063</ele>
        <time>2022-03-08T08:11:32Z</time>
      </trkpt>
      <trkpt lat="47.25765" lon="-1.55677">
        <ele>63.954063</ele>
        <time>2022-03-08T08:11:32Z</time>
      </trkpt>
      <trkpt lat="47.25764" lon="-1.55667">
        <ele>61.85513</ele>
        <time>2022-03-08T08:12:03Z</time>
      </trkpt>
      <trkpt lat="47.25764" lon="-1.55659">
        <ele>60.62321</ele>
        <time>2022-03-08T08:12:07Z</time>
      </trkpt>
      <trkpt lat="47.25764" lon="-1.55651">
        <ele>59.353794</ele>
        <time>2022-03-08T08:12:11Z</time>
      </trkpt>
      <trkpt lat="47.25764" lon="-1.55643">
        <ele>58.208057</ele>
        <time>2022-03-08T08:12:15Z</time>
      </trkpt>
      <trkpt lat="47.25764" lon="-1.55635">
        <ele>57.41828</ele>
        <time>2022-03-08T08:12:18Z</time>
      </trkpt>
      <trkpt lat="47.25764" lon="-1.55628">
        <ele>56.684864</ele>
        <time>2022-03-08T08:12:21Z</time>
      </trkpt>
      <trkpt lat="47.25763" lon="-1.5562">
        <ele>56.024303</ele>
        <time>2022-03-08T08:12:24Z</time>
      </trkpt>
      <trkpt lat="47.25762" lon="-1.55612">
        <ele>55.382294</ele>
        <time>2022-03-08T08:12:27Z</time>
      </trkpt>
      <trkpt lat="47.25761" lon="-1.55605">
        <ele>54.610775</ele>
        <time>2022-03-08T08:12:31Z</time>
      </trkpt>
      <trkpt lat="47.2576" lon="-1.55598">
        <ele>54.067947</ele>
        <time>2022-03-08T08:12:34Z</time>
      </trkpt>
      <trkpt lat="47.2576" lon="-1.5559">
        <ele>53.56836</ele>
        <time>2022-03-08T08:12:37Z</time>
      </trkpt>
      <trkpt lat="47.2576" lon="-1.55582">
        <ele>52.90115</ele>
        <time>2022-03-08T08:12:41Z</time>
      </trkpt>
      <trkpt lat="47.2576" lon="-1.55575">
        <ele>52.441536</ele>
        <time>2022-03-08T08:12:44Z</time>
      </trkpt>
      <trkpt lat="47.25759" lon="-1.55568">
        <ele>51.992184</ele>
        <time>2022-03-08T08:12:47Z</time>
      </trkpt>
      <trkpt lat="47.25756" lon="-1.5556">
        <ele>51.41136</ele>
        <time>2022-03-08T08:12:51Z</time>
      </trkpt>
      <trkpt lat="47.25754" lon="-1.55553">
        <ele>50.953682</ele>
        <time>2022-03-08T08:12:54Z</time>
      </trkpt>
      <trkpt lat="47.25752" lon="-1.55547">
        <ele>50.361916</ele>
        <time>2022-03-08T08:12:58Z</time>
      </trkpt>
      <trkpt lat="47.25748" lon="-1.5554">
        <ele>49.796955</ele>
        <time>2022-03-08T08:13:02Z</time>
      </trkpt>
      <trkpt lat="47.25746" lon="-1.55534">
        <ele>49.361073</ele>
        <time>2022-03-08T08:13:05Z</time>
      </trkpt>
      <trkpt lat="47.25744" lon="-1.55527">
        <ele>48.89533</ele>
        <time>2022-03-08T08:13:08Z</time>
      </trkpt>
      <trkpt lat="47.2574" lon="-1.55519">
        <ele>48.40446</ele>
        <time>2022-03-08T08:13:11Z</time>
      </trkpt>
      <trkpt lat="47.25737" lon="-1.55511">
        <ele>47.957344</ele>
        <time>2022-03-08T08:13:14Z</time>
      </trkpt>
      <trkpt lat="47.25735" lon="-1.55502">
        <ele>47.57332</ele>
        <time>2022-03-08T08:13:17Z</time>
      </trkpt>
      <trkpt lat="47.25732" lon="-1.55495">
        <ele>47.256527</ele>
        <time>2022-03-08T08:13:20Z</time>
      </trkpt>
      <trkpt lat="47.25728" lon="-1.55486">
        <ele>46.92748</ele>
        <time>2022-03-08T08:13:25Z</time>
      </trkpt>
      <trkpt lat="47.25723" lon="-1.55478">
        <ele>46.785843</ele>
        <time>2022-03-08T08:13:28Z</time>
      </trkpt>
      <trkpt lat="47.25719" lon="-1.55473">
        <ele>46.657093</ele>
        <time>2022-03-08T08:13:31Z</time>
      </trkpt>
      <trkpt lat="47.25717" lon="-1.55465">
        <ele>46.645653</ele>
        <time>2022-03-08T08:13:36Z</time>
      </trkpt>
      <trkpt lat="47.25713" lon="-1.55459">
        <ele>46.89129</ele>
        <time>2022-03-08T08:13:40Z</time>
      </trkpt>
      <trkpt lat="47.2571" lon="-1.55451">
        <ele>47.22366</ele>
        <time>2022-03-08T08:13:44Z</time>
      </trkpt>
      <trkpt lat="47.25708" lon="-1.55445">
        <ele>47.43864</ele>
        <time>2022-03-08T08:13:47Z</time>
      </trkpt>
      <trkpt lat="47.25705" lon="-1.55438">
        <ele>47.634167</ele>
        <time>2022-03-08T08:13:50Z</time>
      </trkpt>
      <trkpt lat="47.25703" lon="-1.55432">
        <ele>47.827198</ele>
        <time>2022-03-08T08:13:53Z</time>
      </trkpt>
      <trkpt lat="47.25702" lon="-1.55424">
        <ele>47.97773</ele>
        <time>2022-03-08T08:13:56Z</time>
      </trkpt>
      <trkpt lat="47.257" lon="-1.55416">
        <ele>48.182816</ele>
        <time>2022-03-08T08:14:00Z</time>
      </trkpt>
      <trkpt lat="47.25697" lon="-1.55409">
        <ele>48.37844</ele>
        <time>2022-03-08T08:14:03Z</time>
      </trkpt>
      <trkpt lat="47.25694" lon="-1.55403">
        <ele>48.72027</ele>
        <time>2022-03-08T08:14:07Z</time>
      </trkpt>
      <trkpt lat="47.25691" lon="-1.55396">
        <ele>49.076435</ele>
        <time>2022-03-08T08:14:11Z</time>
      </trkpt>
      <trkpt lat="47.25685" lon="-1.55389">
        <ele>49.28832</ele>
        <time>2022-03-08T08:14:14Z</time>
      </trkpt>
      <trkpt lat="47.25681" lon="-1.55385">
        <ele>49.268562</ele>
        <time>2022-03-08T08:14:16Z</time>
      </trkpt>
      <trkpt lat="47.25677" lon="-1.55381">
        <ele>49.205654</ele>
        <time>2022-03-08T08:14:19Z</time>
      </trkpt>
      <trkpt lat="47.25674" lon="-1.55375">
        <ele>49.20147</ele>
        <time>2022-03-08T08:14:22Z</time>
      </trkpt>
      <trkpt lat="47.25672" lon="-1.55368">
        <ele>49.22562</ele>
        <time>2022-03-08T08:14:25Z</time>
      </trkpt>
      <trkpt lat="47.25668" lon="-1.55363">
        <ele>49.289337</ele>
        <time>2022-03-08T08:14:28Z</time>
      </trkpt>
      <trkpt lat="47.25665" lon="-1.55357">
        <ele>49.324608</ele>
        <time>2022-03-08T08:14:31Z</time>
      </trkpt>
      <trkpt lat="47.25661" lon="-1.55351">
        <ele>49.49227</ele>
        <time>2022-03-08T08:14:35Z</time>
      </trkpt>
      <trkpt lat="47.25659" lon="-1.55345">
        <ele>49.62734</ele>
        <time>2022-03-08T08:14:38Z</time>
      </trkpt>
      <trkpt lat="47.25657" lon="-1.55338">
        <ele>49.828506</ele>
        <time>2022-03-08T08:14:42Z</time>
      </trkpt>
      <trkpt lat="47.25655" lon="-1.55332">
        <ele>49.95244</ele>
        <time>2022-03-08T08:14:45Z</time>
      </trkpt>
      <trkpt lat="47.25652" lon="-1.55327">
        <ele>50.09463</ele>
        <time>2022-03-08T08:14:48Z</time>
      </trkpt>
      <trkpt lat="47.25649" lon="-1.55322">
        <ele>50.302967</ele>
        <time>2022-03-08T08:14:51Z</time>
      </trkpt>
      <trkpt lat="47.25645" lon="-1.55315">
        <ele>50.632072</ele>
        <time>2022-03-08T08:14:55Z</time>
      </trkpt>
      <trkpt lat="47.25642" lon="-1.55308">
        <ele>50.996033</ele>
        <time>2022-03-08T08:14:59Z</time>
      </trkpt>
      <trkpt lat="47.25639" lon="-1.55303">
        <ele>51.265404</ele>
        <time>2022-03-08T08:15:02Z</time>
      </trkpt>
      <trkpt lat="47.25636" lon="-1.55297">
        <ele>51.472733</ele>
        <time>2022-03-08T08:15:05Z</time>
      </trkpt>
      <trkpt lat="47.25632" lon="-1.55291">
        <ele>51.657463</ele>
        <time>2022-03-08T08:15:08Z</time>
      </trkpt>
      <trkpt lat="47.25629" lon="-1.55285">
        <ele>51.788673</ele>
        <time>2022-03-08T08:15:11Z</time>
      </trkpt>
      <trkpt lat="47.25626" lon="-1.55279">
        <ele>51.920822</ele>
        <time>2022-03-08T08:15:14Z</time>
      </trkpt>
      <trkpt lat="47.25622" lon="-1.55272">
        <ele>52.019382</ele>
        <time>2022-03-08T08:15:18Z</time>
      </trkpt>
      <trkpt lat="47.25619" lon="-1.55266">
        <ele>51.984524</ele>
        <time>2022-03-08T08:15:20Z</time>
      </trkpt>
      <trkpt lat="47.25616" lon="-1.55261">
        <ele>51.835598</ele>
        <time>2022-03-08T08:15:22Z</time>
      </trkpt>
      <trkpt lat="47.25614" lon="-1.55255">
        <ele>51.217983</ele>
        <time>2022-03-08T08:15:27Z</time>
      </trkpt>
      <trkpt lat="47.25612" lon="-1.55249">
        <ele>50.618023</ele>
        <time>2022-03-08T08:15:31Z</time>
      </trkpt>
      <trkpt lat="47.2561" lon="-1.55242">
        <ele>50.047997</ele>
        <time>2022-03-08T08:15:35Z</time>
      </trkpt>
      <trkpt lat="47.25608" lon="-1.55236">
        <ele>49.654</ele>
        <time>2022-03-08T08:15:38Z</time>
      </trkpt>
      <trkpt lat="47.25605" lon="-1.55229">
        <ele>49.139072</ele>
        <time>2022-03-08T08:15:42Z</time>
      </trkpt>
      <trkpt lat="47.25602" lon="-1.55221">
        <ele>48.779137</ele>
        <time>2022-03-08T08:15:46Z</time>
      </trkpt>
      <trkpt lat="47.256" lon="-1.55216">
        <ele>48.694492</ele>
        <time>2022-03-08T08:15:49Z</time>
      </trkpt>
      <trkpt lat="47.25596" lon="-1.55211">
        <ele>48.71724</ele>
        <time>2022-03-08T08:15:52Z</time>
      </trkpt>
      <trkpt lat="47.25593" lon="-1.55205">
        <ele>48.978935</ele>
        <time>2022-03-08T08:15:56Z</time>
      </trkpt>
      <trkpt lat="47.25589" lon="-1.552">
        <ele>49.26213</ele>
        <time>2022-03-08T08:16:00Z</time>
      </trkpt>
      <trkpt lat="47.25586" lon="-1.55194">
        <ele>49.53391</ele>
        <time>2022-03-08T08:16:04Z</time>
      </trkpt>
      <trkpt lat="47.25582" lon="-1.5519">
        <ele>49.718273</ele>
        <time>2022-03-08T08:16:07Z</time>
      </trkpt>
      <trkpt lat="47.25578" lon="-1.55185">
        <ele>49.885166</ele>
        <time>2022-03-08T08:16:10Z</time>
      </trkpt>
      <trkpt lat="47.25574" lon="-1.55181">
        <ele>50.040596</ele>
        <time>2022-03-08T08:16:14Z</time>
      </trkpt>
      <trkpt lat="47.2557" lon="-1.55177">
        <ele>50.003742</ele>
        <time>2022-03-08T08:16:17Z</time>
      </trkpt>
      <trkpt lat="47.25565" lon="-1.55172">
        <ele>49.912167</ele>
        <time>2022-03-08T08:16:21Z</time>
      </trkpt>
      <trkpt lat="47.25561" lon="-1.55166">
        <ele>49.859165</ele>
        <time>2022-03-08T08:16:24Z</time>
      </trkpt>
      <trkpt lat="47.25557" lon="-1.55162">
        <ele>49.853718</ele>
        <time>2022-03-08T08:16:28Z</time>
      </trkpt>
      <trkpt lat="47.25554" lon="-1.55158">
        <ele>49.91548</ele>
        <time>2022-03-08T08:16:31Z</time>
      </trkpt>
      <trkpt lat="47.2555" lon="-1.55152">
        <ele>50.003475</ele>
        <time>2022-03-08T08:16:34Z</time>
      </trkpt>
      <trkpt lat="47.25546" lon="-1.55148">
        <ele>50.10971</ele>
        <time>2022-03-08T08:16:37Z</time>
      </trkpt>
      <trkpt lat="47.25542" lon="-1.55142">
        <ele>50.290634</ele>
        <time>2022-03-08T08:16:41Z</time>
      </trkpt>
      <trkpt lat="47.25539" lon="-1.55137">
        <ele>50.5533</ele>
        <time>2022-03-08T08:16:45Z</time>
      </trkpt>
      <trkpt lat="47.25536" lon="-1.55131">
        <ele>50.70934</ele>
        <time>2022-03-08T08:16:48Z</time>
      </trkpt>
      <trkpt lat="47.25533" lon="-1.55125">
        <ele>50.959545</ele>
        <time>2022-03-08T08:16:52Z</time>
      </trkpt>
      <trkpt lat="47.25531" lon="-1.55118">
        <ele>51.255558</ele>
        <time>2022-03-08T08:16:56Z</time>
      </trkpt>
      <trkpt lat="47.25528" lon="-1.55111">
        <ele>51.41147</ele>
        <time>2022-03-08T08:16:59Z</time>
      </trkpt>
      <trkpt lat="47.25526" lon="-1.55104">
        <ele>51.48825</ele>
        <time>2022-03-08T08:17:02Z</time>
      </trkpt>
      <trkpt lat="47.25525" lon="-1.55097">
        <ele>51.26126</ele>
        <time>2022-03-08T08:17:06Z</time>
      </trkpt>
      <trkpt lat="47.25525" lon="-1.55089">
        <ele>50.983795</ele>
        <time>2022-03-08T08:17:10Z</time>
      </trkpt>
      <trkpt lat="47.25523" lon="-1.55082">
        <ele>50.754272</ele>
        <time>2022-03-08T08:17:14Z</time>
      </trkpt>
      <trkpt lat="47.25521" lon="-1.55074">
        <ele>50.352997</ele>
        <time>2022-03-08T08:17:19Z</time>
      </trkpt>
      <trkpt lat="47.25518" lon="-1.55067">
        <ele>49.804718</ele>
        <time>2022-03-08T08:17:23Z</time>
      </trkpt>
      <trkpt lat="47.25516" lon="-1.55059">
        <ele>49.166462</ele>
        <time>2022-03-08T08:17:27Z</time>
      </trkpt>
      <trkpt lat="47.25514" lon="-1.55053">
        <ele>48.66185</ele>
        <time>2022-03-08T08:17:30Z</time>
      </trkpt>
      <trkpt lat="47.25512" lon="-1.55045">
        <ele>48.07738</ele>
        <time>2022-03-08T08:17:34Z</time>
      </trkpt>
      <trkpt lat="47.2551" lon="-1.55038">
        <ele>47.715385</ele>
        <time>2022-03-08T08:17:37Z</time>
      </trkpt>
      <trkpt lat="47.25509" lon="-1.5503">
        <ele>47.447258</ele>
        <time>2022-03-08T08:17:41Z</time>
      </trkpt>
      <trkpt lat="47.25507" lon="-1.55023">
        <ele>47.35872</ele>
        <time>2022-03-08T08:17:44Z</time>
      </trkpt>
      <trkpt lat="47.25505" lon="-1.55017">
        <ele>47.28725</ele>
        <time>2022-03-08T08:17:47Z</time>
      </trkpt>
      <trkpt lat="47.25504" lon="-1.5501">
        <ele>47.18158</ele>
        <time>2022-03-08T08:17:50Z</time>
      </trkpt>
      <trkpt lat="47.25502" lon="-1.55004">
        <ele>46.987217</ele>
        <time>2022-03-08T08:17:53Z</time>
      </trkpt>
      <trkpt lat="47.255" lon="-1.54997">
        <ele>46.537594</ele>
        <time>2022-03-08T08:17:57Z</time>
      </trkpt>
      <trkpt lat="47.25498" lon="-1.54989">
        <ele>45.98559</ele>
        <time>2022-03-08T08:18:01Z</time>
      </trkpt>
      <trkpt lat="47.25496" lon="-1.54982">
        <ele>45.35825</ele>
        <time>2022-03-08T08:18:05Z</time>
      </trkpt>
      <trkpt lat="47.25495" lon="-1.54975">
        <ele>44.700836</ele>
        <time>2022-03-08T08:18:10Z</time>
      </trkpt>
      <trkpt lat="47.25494" lon="-1.54968">
        <ele>44.12335</ele>
        <time>2022-03-08T08:18:14Z</time>
      </trkpt>
      <trkpt lat="47.25493" lon="-1.54962">
        <ele>43.640366</ele>
        <time>2022-03-08T08:18:18Z</time>
      </trkpt>
      <trkpt lat="47.25493" lon="-1.54954">
        <ele>43.286236</ele>
        <time>2022-03-08T08:18:22Z</time>
      </trkpt>
      <trkpt lat="47.25491" lon="-1.54944">
        <ele>43.09703</ele>
        <time>2022-03-08T08:18:25Z</time>
      </trkpt>
      <trkpt lat="47.25491" lon="-1.54937">
        <ele>42.967087</ele>
        <time>2022-03-08T08:18:27Z</time>
      </trkpt>
      <trkpt lat="47.25491" lon="-1.5493">
        <ele>42.888645</ele>
        <time>2022-03-08T08:18:30Z</time>
      </trkpt>
      <trkpt lat="47.2549" lon="-1.54923">
        <ele>42.91415</ele>
        <time>2022-03-08T08:18:34Z</time>
      </trkpt>
      <trkpt lat="47.25491" lon="-1.54915">
        <ele>42.905087</ele>
        <time>2022-03-08T08:18:38Z</time>
      </trkpt>
      <trkpt lat="47.25491" lon="-1.54907">
        <ele>42.92221</ele>
        <time>2022-03-08T08:18:42Z</time>
      </trkpt>
      <trkpt lat="47.25493" lon="-1.549">
        <ele>43.07402</ele>
        <time>2022-03-08T08:18:47Z</time>
      </trkpt>
      <trkpt lat="47.25493" lon="-1.54892">
        <ele>43.26275</ele>
        <time>2022-03-08T08:18:52Z</time>
      </trkpt>
      <trkpt lat="47.25492" lon="-1.54885">
        <ele>43.399757</ele>
        <time>2022-03-08T08:18:56Z</time>
      </trkpt>
      <trkpt lat="47.25491" lon="-1.54878">
        <ele>43.481266</ele>
        <time>2022-03-08T08:18:59Z</time>
      </trkpt>
      <trkpt lat="47.25491" lon="-1.54866">
        <ele>43.61303</ele>
        <time>2022-03-08T08:19:04Z</time>
      </trkpt>
      <trkpt lat="47.25491" lon="-1.54858">
        <ele>43.70238</ele>
        <time>2022-03-08T08:19:08Z</time>
      </trkpt>
      <trkpt lat="47.25492" lon="-1.54849">
        <ele>43.81791</ele>
        <time>2022-03-08T08:19:12Z</time>
      </trkpt>
      <trkpt lat="47.25493" lon="-1.54842">
        <ele>43.901863</ele>
        <time>2022-03-08T08:19:15Z</time>
      </trkpt>
      <trkpt lat="47.25494" lon="-1.54835">
        <ele>44.078552</ele>
        <time>2022-03-08T08:19:19Z</time>
      </trkpt>
      <trkpt lat="47.25494" lon="-1.54826">
        <ele>44.380047</ele>
        <time>2022-03-08T08:19:23Z</time>
      </trkpt>
      <trkpt lat="47.25494" lon="-1.54817">
        <ele>44.824314</ele>
        <time>2022-03-08T08:19:27Z</time>
      </trkpt>
      <trkpt lat="47.25494" lon="-1.54809">
        <ele>45.349876</ele>
        <time>2022-03-08T08:19:31Z</time>
      </trkpt>
      <trkpt lat="47.25494" lon="-1.54802">
        <ele>45.77355</ele>
        <time>2022-03-08T08:19:34Z</time>
      </trkpt>
      <trkpt lat="47.25495" lon="-1.54795">
        <ele>46.20055</ele>
        <time>2022-03-08T08:19:37Z</time>
      </trkpt>
      <trkpt lat="47.25496" lon="-1.54788">
        <ele>46.631294</ele>
        <time>2022-03-08T08:19:40Z</time>
      </trkpt>
      <trkpt lat="47.25496" lon="-1.5478">
        <ele>47.130825</ele>
        <time>2022-03-08T08:19:44Z</time>
      </trkpt>
      <trkpt lat="47.25496" lon="-1.54772">
        <ele>47.562954</ele>
        <time>2022-03-08T08:19:48Z</time>
      </trkpt>
      <trkpt lat="47.25497" lon="-1.54764">
        <ele>47.92583</ele>
        <time>2022-03-08T08:19:52Z</time>
      </trkpt>
      <trkpt lat="47.25497" lon="-1.54756">
        <ele>48.27218</ele>
        <time>2022-03-08T08:19:56Z</time>
      </trkpt>
      <trkpt lat="47.25496" lon="-1.54749">
        <ele>48.6293</ele>
        <time>2022-03-08T08:20:00Z</time>
      </trkpt>
      <trkpt lat="47.25492" lon="-1.54742">
        <ele>49.030453</ele>
        <time>2022-03-08T08:20:05Z</time>
      </trkpt>
      <trkpt lat="47.25488" lon="-1.54738">
        <ele>49.212383</ele>
        <time>2022-03-08T08:20:09Z</time>
      </trkpt>
      <trkpt lat="47.25483" lon="-1.54734">
        <ele>49.321857</ele>
        <time>2022-03-08T08:20:12Z</time>
      </trkpt>
      <trkpt lat="47.2548" lon="-1.5473">
        <ele>49.350166</ele>
        <time>2022-03-08T08:20:15Z</time>
      </trkpt>
      <trkpt lat="47.25476" lon="-1.54724">
        <ele>49.432842</ele>
        <time>2022-03-08T08:20:20Z</time>
      </trkpt>
      <trkpt lat="47.25474" lon="-1.54717">
        <ele>49.285973</ele>
        <time>2022-03-08T08:20:24Z</time>
      </trkpt>
      <trkpt lat="47.25474" lon="-1.54709">
        <ele>49.128212</ele>
        <time>2022-03-08T08:20:27Z</time>
      </trkpt>
      <trkpt lat="47.25474" lon="-1.54703">
        <ele>48.697117</ele>
        <time>2022-03-08T08:20:31Z</time>
      </trkpt>
      <trkpt lat="47.25474" lon="-1.54695">
        <ele>47.96451</ele>
        <time>2022-03-08T08:20:35Z</time>
      </trkpt>
      <trkpt lat="47.25475" lon="-1.54688">
        <ele>47.210636</ele>
        <time>2022-03-08T08:20:39Z</time>
      </trkpt>
      <trkpt lat="47.25477" lon="-1.54679">
        <ele>46.49652</ele>
        <time>2022-03-08T08:20:43Z</time>
      </trkpt>
      <trkpt lat="47.25478" lon="-1.54672">
        <ele>45.932606</ele>
        <time>2022-03-08T08:20:46Z</time>
      </trkpt>
      <trkpt lat="47.25477" lon="-1.54665">
        <ele>45.076973</ele>
        <time>2022-03-08T08:20:50Z</time>
      </trkpt>
      <trkpt lat="47.25478" lon="-1.54658">
        <ele>44.153347</ele>
        <time>2022-03-08T08:20:54Z</time>
      </trkpt>
      <trkpt lat="47.2548" lon="-1.54652">
        <ele>43.651714</ele>
        <time>2022-03-08T08:20:57Z</time>
      </trkpt>
      <trkpt lat="47.25483" lon="-1.54647">
        <ele>42.640285</ele>
        <time>2022-03-08T08:21:01Z</time>
      </trkpt>
      <trkpt lat="47.25486" lon="-1.54641">
        <ele>41.298874</ele>
        <time>2022-03-08T08:21:06Z</time>
      </trkpt>
      <trkpt lat="47.2549" lon="-1.54636">
        <ele>40.095234</ele>
        <time>2022-03-08T08:21:11Z</time>
      </trkpt>
      <trkpt lat="47.25494" lon="-1.5463">
        <ele>39.226395</ele>
        <time>2022-03-08T08:21:15Z</time>
      </trkpt>
      <trkpt lat="47.25496" lon="-1.54624">
        <ele>38.46706</ele>
        <time>2022-03-08T08:21:19Z</time>
      </trkpt>
      <trkpt lat="47.25498" lon="-1.54617">
        <ele>37.893757</ele>
        <time>2022-03-08T08:21:22Z</time>
      </trkpt>
      <trkpt lat="47.25501" lon="-1.54611">
        <ele>37.29165</ele>
        <time>2022-03-08T08:21:25Z</time>
      </trkpt>
      <trkpt lat="47.25506" lon="-1.54609">
        <ele>36.406746</ele>
        <time>2022-03-08T08:21:29Z</time>
      </trkpt>
      <trkpt lat="47.25511" lon="-1.54609">
        <ele>35.6729</ele>
        <time>2022-03-08T08:21:32Z</time>
      </trkpt>
      <trkpt lat="47.25515" lon="-1.54605">
        <ele>34.997105</ele>
        <time>2022-03-08T08:21:36Z</time>
      </trkpt>
      <trkpt lat="47.2552" lon="-1.546">
        <ele>34.751686</ele>
        <time>2022-03-08T08:21:39Z</time>
      </trkpt>
      <trkpt lat="47.25524" lon="-1.54594">
        <ele>34.648575</ele>
        <time>2022-03-08T08:21:42Z</time>
      </trkpt>
      <trkpt lat="47.25526" lon="-1.54587">
        <ele>34.666718</ele>
        <time>2022-03-08T08:21:46Z</time>
      </trkpt>
      <trkpt lat="47.25526" lon="-1.5458">
        <ele>34.834423</ele>
        <time>2022-03-08T08:21:50Z</time>
      </trkpt>
      <trkpt lat="47.25526" lon="-1.54572">
        <ele>35.0065</ele>
        <time>2022-03-08T08:21:54Z</time>
      </trkpt>
      <trkpt lat="47.25526" lon="-1.54565">
        <ele>35.12182</ele>
        <time>2022-03-08T08:21:57Z</time>
      </trkpt>
      <trkpt lat="47.25526" lon="-1.54558">
        <ele>35.25428</ele>
        <time>2022-03-08T08:22:01Z</time>
      </trkpt>
      <trkpt lat="47.25527" lon="-1.54549">
        <ele>35.37423</ele>
        <time>2022-03-08T08:22:04Z</time>
      </trkpt>
      <trkpt lat="47.25528" lon="-1.54541">
        <ele>35.67464</ele>
        <time>2022-03-08T08:22:07Z</time>
      </trkpt>
      <trkpt lat="47.25528" lon="-1.54531">
        <ele>36.170555</ele>
        <time>2022-03-08T08:22:11Z</time>
      </trkpt>
      <trkpt lat="47.25528" lon="-1.54524">
        <ele>36.579594</ele>
        <time>2022-03-08T08:22:14Z</time>
      </trkpt>
      <trkpt lat="47.25528" lon="-1.54517">
        <ele>37.085094</ele>
        <time>2022-03-08T08:22:17Z</time>
      </trkpt>
      <trkpt lat="47.25528" lon="-1.5451">
        <ele>37.68792</ele>
        <time>2022-03-08T08:22:20Z</time>
      </trkpt>
      <trkpt lat="47.25528" lon="-1.54503">
        <ele>38.332912</ele>
        <time>2022-03-08T08:22:23Z</time>
      </trkpt>
      <trkpt lat="47.25526" lon="-1.54496">
        <ele>39.320198</ele>
        <time>2022-03-08T08:22:28Z</time>
      </trkpt>
      <trkpt lat="47.25524" lon="-1.54489">
        <ele>39.865513</ele>
        <time>2022-03-08T08:22:32Z</time>
      </trkpt>
      <trkpt lat="47.25522" lon="-1.54483">
        <ele>40.151108</ele>
        <time>2022-03-08T08:22:35Z</time>
      </trkpt>
      <trkpt lat="47.2552" lon="-1.54477">
        <ele>40.481655</ele>
        <time>2022-03-08T08:22:38Z</time>
      </trkpt>
      <trkpt lat="47.25517" lon="-1.5447">
        <ele>41.124763</ele>
        <time>2022-03-08T08:22:43Z</time>
      </trkpt>
      <trkpt lat="47.25516" lon="-1.54462">
        <ele>41.73352</ele>
        <time>2022-03-08T08:22:47Z</time>
      </trkpt>
      <trkpt lat="47.25515" lon="-1.54456">
        <ele>42.47781</ele>
        <time>2022-03-08T08:22:51Z</time>
      </trkpt>
      <trkpt lat="47.25514" lon="-1.54449">
        <ele>43.12227</ele>
        <time>2022-03-08T08:22:54Z</time>
      </trkpt>
      <trkpt lat="47.25513" lon="-1.5444">
        <ele>44.049206</ele>
        <time>2022-03-08T08:22:58Z</time>
      </trkpt>
      <trkpt lat="47.2551" lon="-1.54434">
        <ele>44.77072</ele>
        <time>2022-03-08T08:23:01Z</time>
      </trkpt>
      <trkpt lat="47.2551" lon="-1.54427">
        <ele>45.752674</ele>
        <time>2022-03-08T08:23:05Z</time>
      </trkpt>
      <trkpt lat="47.25506" lon="-1.54421">
        <ele>46.337837</ele>
        <time>2022-03-08T08:23:08Z</time>
      </trkpt>
      <trkpt lat="47.25504" lon="-1.54414">
        <ele>47.02955</ele>
        <time>2022-03-08T08:23:12Z</time>
      </trkpt>
      <trkpt lat="47.25501" lon="-1.54408">
        <ele>47.344685</ele>
        <time>2022-03-08T08:23:15Z</time>
      </trkpt>
      <trkpt lat="47.255" lon="-1.54401">
        <ele>47.426765</ele>
        <time>2022-03-08T08:23:20Z</time>
      </trkpt>
      <trkpt lat="47.25497" lon="-1.54394">
        <ele>47.365284</ele>
        <time>2022-03-08T08:23:24Z</time>
      </trkpt>
      <trkpt lat="47.25498" lon="-1.54395">
        <ele>47.25115</ele>
        <time>2022-03-08T08:23:30Z</time>
      </trkpt>
      <trkpt lat="47.25498" lon="-1.54395">
        <ele>47.25115</ele>
        <time>2022-03-08T08:23:30Z</time>
      </trkpt>
      <trkpt lat="47.25499" lon="-1.54387">
        <ele>46.593502</ele>
        <time>2022-03-08T08:23:47Z</time>
      </trkpt>
      <trkpt lat="47.25499" lon="-1.54378">
        <ele>46.543438</ele>
        <time>2022-03-08T08:23:50Z</time>
      </trkpt>
      <trkpt lat="47.25498" lon="-1.5437">
        <ele>46.614365</ele>
        <time>2022-03-08T08:23:53Z</time>
      </trkpt>
      <trkpt lat="47.25496" lon="-1.54362">
        <ele>46.79781</ele>
        <time>2022-03-08T08:23:56Z</time>
      </trkpt>
      <trkpt lat="47.25494" lon="-1.54354">
        <ele>46.958122</ele>
        <time>2022-03-08T08:23:59Z</time>
      </trkpt>
      <trkpt lat="47.25491" lon="-1.54347">
        <ele>47.07102</ele>
        <time>2022-03-08T08:24:02Z</time>
      </trkpt>
      <trkpt lat="47.25488" lon="-1.54338">
        <ele>47.121353</ele>
        <time>2022-03-08T08:24:05Z</time>
      </trkpt>
      <trkpt lat="47.25488" lon="-1.54331">
        <ele>47.137203</ele>
        <time>2022-03-08T08:24:08Z</time>
      </trkpt>
      <trkpt lat="47.25488" lon="-1.54324">
        <ele>47.12574</ele>
        <time>2022-03-08T08:24:11Z</time>
      </trkpt>
      <trkpt lat="47.25489" lon="-1.54317">
        <ele>47.11263</ele>
        <time>2022-03-08T08:24:15Z</time>
      </trkpt>
      <trkpt lat="47.25492" lon="-1.54311">
        <ele>47.06935</ele>
        <time>2022-03-08T08:24:18Z</time>
      </trkpt>
      <trkpt lat="47.25496" lon="-1.54304">
        <ele>47.030716</ele>
        <time>2022-03-08T08:24:22Z</time>
      </trkpt>
      <trkpt lat="47.25496" lon="-1.54297">
        <ele>46.939823</ele>
        <time>2022-03-08T08:24:25Z</time>
      </trkpt>
      <trkpt lat="47.25495" lon="-1.54288">
        <ele>46.822277</ele>
        <time>2022-03-08T08:24:28Z</time>
      </trkpt>
      <trkpt lat="47.25493" lon="-1.5428">
        <ele>46.792088</ele>
        <time>2022-03-08T08:24:31Z</time>
      </trkpt>
      <trkpt lat="47.25492" lon="-1.54272">
        <ele>46.845867</ele>
        <time>2022-03-08T08:24:35Z</time>
      </trkpt>
      <trkpt lat="47.25488" lon="-1.54265">
        <ele>46.87972</ele>
        <time>2022-03-08T08:24:38Z</time>
      </trkpt>
      <trkpt lat="47.25486" lon="-1.54258">
        <ele>46.87687</ele>
        <time>2022-03-08T08:24:40Z</time>
      </trkpt>
      <trkpt lat="47.25484" lon="-1.54251">
        <ele>46.887875</ele>
        <time>2022-03-08T08:24:42Z</time>
      </trkpt>
      <trkpt lat="47.25482" lon="-1.54244">
        <ele>46.91857</ele>
        <time>2022-03-08T08:24:45Z</time>
      </trkpt>
      <trkpt lat="47.25482" lon="-1.54236">
        <ele>46.865486</ele>
        <time>2022-03-08T08:24:49Z</time>
      </trkpt>
      <trkpt lat="47.25481" lon="-1.54228">
        <ele>46.712906</ele>
        <time>2022-03-08T08:24:53Z</time>
      </trkpt>
      <trkpt lat="47.25481" lon="-1.5422">
        <ele>46.319305</ele>
        <time>2022-03-08T08:24:57Z</time>
      </trkpt>
      <trkpt lat="47.25481" lon="-1.54213">
        <ele>46.10629</ele>
        <time>2022-03-08T08:24:59Z</time>
      </trkpt>
      <trkpt lat="47.25481" lon="-1.54205">
        <ele>45.951206</ele>
        <time>2022-03-08T08:25:02Z</time>
      </trkpt>
      <trkpt lat="47.25481" lon="-1.54197">
        <ele>45.933105</ele>
        <time>2022-03-08T08:25:05Z</time>
      </trkpt>
      <trkpt lat="47.2548" lon="-1.5419">
        <ele>46.21321</ele>
        <time>2022-03-08T08:25:10Z</time>
      </trkpt>
      <trkpt lat="47.25478" lon="-1.54183">
        <ele>46.51302</ele>
        <time>2022-03-08T08:25:15Z</time>
      </trkpt>
      <trkpt lat="47.25476" lon="-1.54176">
        <ele>46.652702</ele>
        <time>2022-03-08T08:25:18Z</time>
      </trkpt>
      <trkpt lat="47.25475" lon="-1.54167">
        <ele>46.778763</ele>
        <time>2022-03-08T08:25:22Z</time>
      </trkpt>
      <trkpt lat="47.25475" lon="-1.54159">
        <ele>46.65488</ele>
        <time>2022-03-08T08:25:25Z</time>
      </trkpt>
      <trkpt lat="47.25475" lon="-1.54152">
        <ele>46.447502</ele>
        <time>2022-03-08T08:25:28Z</time>
      </trkpt>
      <trkpt lat="47.25475" lon="-1.54143">
        <ele>46.07756</ele>
        <time>2022-03-08T08:25:33Z</time>
      </trkpt>
      <trkpt lat="47.25476" lon="-1.54135">
        <ele>45.855293</ele>
        <time>2022-03-08T08:25:37Z</time>
      </trkpt>
      <trkpt lat="47.25477" lon="-1.54128">
        <ele>45.682804</ele>
        <time>2022-03-08T08:25:41Z</time>
      </trkpt>
      <trkpt lat="47.25477" lon="-1.54121">
        <ele>45.491695</ele>
        <time>2022-03-08T08:25:45Z</time>
      </trkpt>
      <trkpt lat="47.25478" lon="-1.54112">
        <ele>45.24399</ele>
        <time>2022-03-08T08:25:48Z</time>
      </trkpt>
      <trkpt lat="47.25479" lon="-1.54105">
        <ele>45.002876</ele>
        <time>2022-03-08T08:25:51Z</time>
      </trkpt>
      <trkpt lat="47.2548" lon="-1.54098">
        <ele>44.79586</ele>
        <time>2022-03-08T08:25:55Z</time>
      </trkpt>
      <trkpt lat="47.25483" lon="-1.54091">
        <ele>44.564697</ele>
        <time>2022-03-08T08:25:58Z</time>
      </trkpt>
      <trkpt lat="47.25484" lon="-1.54082">
        <ele>44.278126</ele>
        <time>2022-03-08T08:26:02Z</time>
      </trkpt>
      <trkpt lat="47.25486" lon="-1.54073">
        <ele>43.990837</ele>
        <time>2022-03-08T08:26:05Z</time>
      </trkpt>
      <trkpt lat="47.25486" lon="-1.54066">
        <ele>43.736397</ele>
        <time>2022-03-08T08:26:08Z</time>
      </trkpt>
      <trkpt lat="47.25485" lon="-1.54059">
        <ele>43.431255</ele>
        <time>2022-03-08T08:26:12Z</time>
      </trkpt>
      <trkpt lat="47.25483" lon="-1.54053">
        <ele>43.158844</ele>
        <time>2022-03-08T08:26:15Z</time>
      </trkpt>
      <trkpt lat="47.2548" lon="-1.54047">
        <ele>42.94484</ele>
        <time>2022-03-08T08:26:20Z</time>
      </trkpt>
      <trkpt lat="47.25477" lon="-1.54042">
        <ele>42.781563</ele>
        <time>2022-03-08T08:26:24Z</time>
      </trkpt>
      <trkpt lat="47.25472" lon="-1.54039">
        <ele>42.642498</ele>
        <time>2022-03-08T08:26:29Z</time>
      </trkpt>
      <trkpt lat="47.25467" lon="-1.54035">
        <ele>42.536392</ele>
        <time>2022-03-08T08:26:34Z</time>
      </trkpt>
      <trkpt lat="47.25463" lon="-1.54032">
        <ele>42.492348</ele>
        <time>2022-03-08T08:26:37Z</time>
      </trkpt>
      <trkpt lat="47.25459" lon="-1.54029">
        <ele>42.46907</ele>
        <time>2022-03-08T08:26:40Z</time>
      </trkpt>
      <trkpt lat="47.25455" lon="-1.54025">
        <ele>42.536385</ele>
        <time>2022-03-08T08:26:43Z</time>
      </trkpt>
      <trkpt lat="47.25451" lon="-1.5402">
        <ele>42.63784</ele>
        <time>2022-03-08T08:26:47Z</time>
      </trkpt>
      <trkpt lat="47.25447" lon="-1.54016">
        <ele>42.70277</ele>
        <time>2022-03-08T08:26:51Z</time>
      </trkpt>
      <trkpt lat="47.25444" lon="-1.54009">
        <ele>42.53343</ele>
        <time>2022-03-08T08:26:59Z</time>
      </trkpt>
      <trkpt lat="47.25451" lon="-1.54008">
        <ele>42.73505</ele>
        <time>2022-03-08T08:27:06Z</time>
      </trkpt>
      <trkpt lat="47.25456" lon="-1.54008">
        <ele>42.917484</ele>
        <time>2022-03-08T08:27:10Z</time>
      </trkpt>
      <trkpt lat="47.25462" lon="-1.54004">
        <ele>43.037903</ele>
        <time>2022-03-08T08:27:13Z</time>
      </trkpt>
      <trkpt lat="47.25466" lon="-1.54003">
        <ele>43.158535</ele>
        <time>2022-03-08T08:27:16Z</time>
      </trkpt>
      <trkpt lat="47.25471" lon="-1.54003">
        <ele>43.384254</ele>
        <time>2022-03-08T08:27:20Z</time>
      </trkpt>
      <trkpt lat="47.25476" lon="-1.54005">
        <ele>43.469128</ele>
        <time>2022-03-08T08:27:26Z</time>
      </trkpt>
      <trkpt lat="47.25481" lon="-1.54005">
        <ele>43.471325</ele>
        <time>2022-03-08T08:27:31Z</time>
      </trkpt>
      <trkpt lat="47.25485" lon="-1.54004">
        <ele>43.45476</ele>
        <time>2022-03-08T08:27:33Z</time>
      </trkpt>
      <trkpt lat="47.25491" lon="-1.54006">
        <ele>43.28727</ele>
        <time>2022-03-08T08:27:39Z</time>
      </trkpt>
      <trkpt lat="47.25496" lon="-1.54008">
        <ele>43.182358</ele>
        <time>2022-03-08T08:27:43Z</time>
      </trkpt>
      <trkpt lat="47.25501" lon="-1.5401">
        <ele>43.28595</ele>
        <time>2022-03-08T08:27:48Z</time>
      </trkpt>
      <trkpt lat="47.25508" lon="-1.5401">
        <ele>43.408348</ele>
        <time>2022-03-08T08:27:53Z</time>
      </trkpt>
      <trkpt lat="47.25514" lon="-1.54006">
        <ele>43.525196</ele>
        <time>2022-03-08T08:28:00Z</time>
      </trkpt>
      <trkpt lat="47.25519" lon="-1.54002">
        <ele>43.562916</ele>
        <time>2022-03-08T08:28:02Z</time>
      </trkpt>
      <trkpt lat="47.25522" lon="-1.53998">
        <ele>43.52375</ele>
        <time>2022-03-08T08:28:05Z</time>
      </trkpt>
      <trkpt lat="47.2553" lon="-1.53994">
        <ele>43.41718</ele>
        <time>2022-03-08T08:28:09Z</time>
      </trkpt>
      <trkpt lat="47.25535" lon="-1.5399">
        <ele>43.41634</ele>
        <time>2022-03-08T08:28:13Z</time>
      </trkpt>
      <trkpt lat="47.25539" lon="-1.53987">
        <ele>43.44583</ele>
        <time>2022-03-08T08:28:16Z</time>
      </trkpt>
      <trkpt lat="47.25545" lon="-1.53985">
        <ele>43.34841</ele>
        <time>2022-03-08T08:28:21Z</time>
      </trkpt>
      <trkpt lat="47.25549" lon="-1.53983">
        <ele>43.009354</ele>
        <time>2022-03-08T08:28:26Z</time>
      </trkpt>
      <trkpt lat="47.25555" lon="-1.53983">
        <ele>42.60221</ele>
        <time>2022-03-08T08:28:30Z</time>
      </trkpt>
      <trkpt lat="47.2556" lon="-1.53982">
        <ele>42.225555</ele>
        <time>2022-03-08T08:28:36Z</time>
      </trkpt>
      <trkpt lat="47.25565" lon="-1.53984">
        <ele>42.103104</ele>
        <time>2022-03-08T08:28:40Z</time>
      </trkpt>
      <trkpt lat="47.25571" lon="-1.53984">
        <ele>42.110302</ele>
        <time>2022-03-08T08:28:44Z</time>
      </trkpt>
      <trkpt lat="47.25575" lon="-1.53983">
        <ele>42.27237</ele>
        <time>2022-03-08T08:28:48Z</time>
      </trkpt>
      <trkpt lat="47.2558" lon="-1.5398">
        <ele>42.676666</ele>
        <time>2022-03-08T08:28:54Z</time>
      </trkpt>
      <trkpt lat="47.25581" lon="-1.53976">
        <ele>43.26855</ele>
        <time>2022-03-08T08:29:02Z</time>
      </trkpt>
      <trkpt lat="47.25581" lon="-1.53976">
        <ele>43.26855</ele>
        <time>2022-03-08T08:29:02Z</time>
      </trkpt>
      <trkpt lat="47.25577" lon="-1.5397">
        <ele>44.11498</ele>
        <time>2022-03-08T08:29:09Z</time>
      </trkpt>
      <trkpt lat="47.25573" lon="-1.53972">
        <ele>43.873047</ele>
        <time>2022-03-08T08:29:19Z</time>
      </trkpt>
      <trkpt lat="47.25578" lon="-1.53971">
        <ele>42.983654</ele>
        <time>2022-03-08T08:29:28Z</time>
      </trkpt>
      <trkpt lat="47.25584" lon="-1.53968">
        <ele>42.976055</ele>
        <time>2022-03-08T08:29:31Z</time>
      </trkpt>
      <trkpt lat="47.25586" lon="-1.53975">
        <ele>43.93836</ele>
        <time>2022-03-08T08:29:40Z</time>
      </trkpt>
      <trkpt lat="47.25591" lon="-1.53973">
        <ele>45.474285</ele>
        <time>2022-03-08T08:29:57Z</time>
      </trkpt>
      <trkpt lat="47.25589" lon="-1.53966">
        <ele>49.503036</ele>
        <time>2022-03-08T08:30:22Z</time>
      </trkpt>
      <trkpt lat="47.25586" lon="-1.53959">
        <ele>50.868202</ele>
        <time>2022-03-08T08:30:26Z</time>
      </trkpt>
      <trkpt lat="47.25584" lon="-1.53951">
        <ele>52.470497</ele>
        <time>2022-03-08T08:30:31Z</time>
      </trkpt>
      <trkpt lat="47.25582" lon="-1.53941">
        <ele>53.8118</ele>
        <time>2022-03-08T08:30:36Z</time>
      </trkpt>
      <trkpt lat="47.25579" lon="-1.53932">
        <ele>54.967003</ele>
        <time>2022-03-08T08:30:41Z</time>
      </trkpt>
      <trkpt lat="47.25576" lon="-1.53925">
        <ele>55.80339</ele>
        <time>2022-03-08T08:30:45Z</time>
      </trkpt>
      <trkpt lat="47.25573" lon="-1.53917">
        <ele>56.65705</ele>
        <time>2022-03-08T08:30:50Z</time>
      </trkpt>
      <trkpt lat="47.25571" lon="-1.5391">
        <ele>57.241085</ele>
        <time>2022-03-08T08:30:54Z</time>
      </trkpt>
      <trkpt lat="47.25568" lon="-1.53901">
        <ele>57.868233</ele>
        <time>2022-03-08T08:30:59Z</time>
      </trkpt>
      <trkpt lat="47.25565" lon="-1.53892">
        <ele>58.451515</ele>
        <time>2022-03-08T08:31:04Z</time>
      </trkpt>
      <trkpt lat="47.25562" lon="-1.53882">
        <ele>58.917843</ele>
        <time>2022-03-08T08:31:09Z</time>
      </trkpt>
      <trkpt lat="47.25559" lon="-1.53875">
        <ele>59.221066</ele>
        <time>2022-03-08T08:31:12Z</time>
      </trkpt>
      <trkpt lat="47.25557" lon="-1.53869">
        <ele>59.493053</ele>
        <time>2022-03-08T08:31:15Z</time>
      </trkpt>
      <trkpt lat="47.25555" lon="-1.53863">
        <ele>59.730286</ele>
        <time>2022-03-08T08:31:19Z</time>
      </trkpt>
      <trkpt lat="47.25554" lon="-1.53857">
        <ele>60.055683</ele>
        <time>2022-03-08T08:31:23Z</time>
      </trkpt>
      <trkpt lat="47.25552" lon="-1.53847">
        <ele>60.472527</ele>
        <time>2022-03-08T08:31:28Z</time>
      </trkpt>
      <trkpt lat="47.25552" lon="-1.53844">
        <ele>60.716995</ele>
        <time>2022-03-08T08:31:34Z</time>
      </trkpt>
      <trkpt lat="47.25552" lon="-1.53844">
        <ele>60.716995</ele>
        <time>2022-03-08T08:31:34Z</time>
      </trkpt>
      <trkpt lat="47.25549" lon="-1.53837">
        <ele>60.614967</ele>
        <time>2022-03-08T08:32:04Z</time>
      </trkpt>
      <trkpt lat="47.25544" lon="-1.53836">
        <ele>59.08473</ele>
        <time>2022-03-08T08:32:15Z</time>
      </trkpt>
      <trkpt lat="47.25545" lon="-1.53829">
        <ele>58.58383</ele>
        <time>2022-03-08T08:32:24Z</time>
      </trkpt>
      <trkpt lat="47.25546" lon="-1.53836">
        <ele>58.028793</ele>
        <time>2022-03-08T08:32:33Z</time>
      </trkpt>
      <trkpt lat="47.25551" lon="-1.53833">
        <ele>55.79264</ele>
        <time>2022-03-08T08:32:54Z</time>
      </trkpt>
      <trkpt lat="47.25555" lon="-1.53834">
        <ele>55.38422</ele>
        <time>2022-03-08T08:32:59Z</time>
      </trkpt>
      <trkpt lat="47.25561" lon="-1.53827">
        <ele>54.52889</ele>
        <time>2022-03-08T08:33:06Z</time>
      </trkpt>
      <trkpt lat="47.25561" lon="-1.5382">
        <ele>53.93709</ele>
        <time>2022-03-08T08:33:09Z</time>
      </trkpt>
      <trkpt lat="47.2556" lon="-1.53814">
        <ele>53.61454</ele>
        <time>2022-03-08T08:33:11Z</time>
      </trkpt>
      <trkpt lat="47.25559" lon="-1.53805">
        <ele>52.995186</ele>
        <time>2022-03-08T08:33:15Z</time>
      </trkpt>
      <trkpt lat="47.25558" lon="-1.53798">
        <ele>52.47896</ele>
        <time>2022-03-08T08:33:18Z</time>
      </trkpt>
      <trkpt lat="47.25558" lon="-1.53791">
        <ele>51.63977</ele>
        <time>2022-03-08T08:33:23Z</time>
      </trkpt>
      <trkpt lat="47.25556" lon="-1.53783">
        <ele>50.769836</ele>
        <time>2022-03-08T08:33:28Z</time>
      </trkpt>
      <trkpt lat="47.25552" lon="-1.53773">
        <ele>49.999607</ele>
        <time>2022-03-08T08:33:32Z</time>
      </trkpt>
      <trkpt lat="47.25547" lon="-1.53772">
        <ele>49.27389</ele>
        <time>2022-03-08T08:33:35Z</time>
      </trkpt>
      <trkpt lat="47.2554" lon="-1.53769">
        <ele>48.002007</ele>
        <time>2022-03-08T08:33:40Z</time>
      </trkpt>
      <trkpt lat="47.25533" lon="-1.53767">
        <ele>47.016</ele>
        <time>2022-03-08T08:33:44Z</time>
      </trkpt>
      <trkpt lat="47.2552" lon="-1.53769">
        <ele>41.991768</ele>
        <time>2022-03-08T08:33:49Z</time>
      </trkpt>
      <trkpt lat="47.25516" lon="-1.53772">
        <ele>41.26306</ele>
        <time>2022-03-08T08:33:51Z</time>
      </trkpt>
      <trkpt lat="47.25509" lon="-1.5377">
        <ele>40.34311</ele>
        <time>2022-03-08T08:33:53Z</time>
      </trkpt>
      <trkpt lat="47.25505" lon="-1.53763">
        <ele>39.438854</ele>
        <time>2022-03-08T08:33:55Z</time>
      </trkpt>
      <trkpt lat="47.25502" lon="-1.53757">
        <ele>37.50026</ele>
        <time>2022-03-08T08:33:59Z</time>
      </trkpt>
      <trkpt lat="47.25503" lon="-1.53746">
        <ele>28.577782</ele>
        <time>2022-03-08T08:34:01Z</time>
      </trkpt>
      <trkpt lat="47.25505" lon="-1.53739">
        <ele>27.89136</ele>
        <time>2022-03-08T08:34:03Z</time>
      </trkpt>
      <trkpt lat="47.25506" lon="-1.53732">
        <ele>27.27361</ele>
        <time>2022-03-08T08:34:05Z</time>
      </trkpt>
      <trkpt lat="47.25507" lon="-1.53725">
        <ele>26.466927</ele>
        <time>2022-03-08T08:34:08Z</time>
      </trkpt>
      <trkpt lat="47.25507" lon="-1.53718">
        <ele>25.92667</ele>
        <time>2022-03-08T08:34:11Z</time>
      </trkpt>
      <trkpt lat="47.25511" lon="-1.5371">
        <ele>25.595444</ele>
        <time>2022-03-08T08:34:14Z</time>
      </trkpt>
      <trkpt lat="47.25514" lon="-1.53704">
        <ele>25.663391</ele>
        <time>2022-03-08T08:34:16Z</time>
      </trkpt>
      <trkpt lat="47.25515" lon="-1.53697">
        <ele>25.961405</ele>
        <time>2022-03-08T08:34:19Z</time>
      </trkpt>
      <trkpt lat="47.25516" lon="-1.53688">
        <ele>26.417536</ele>
        <time>2022-03-08T08:34:23Z</time>
      </trkpt>
      <trkpt lat="47.25514" lon="-1.53681">
        <ele>26.931396</ele>
        <time>2022-03-08T08:34:27Z</time>
      </trkpt>
      <trkpt lat="47.25512" lon="-1.53674">
        <ele>27.4543</ele>
        <time>2022-03-08T08:34:31Z</time>
      </trkpt>
      <trkpt lat="47.25511" lon="-1.53666">
        <ele>28.010977</ele>
        <time>2022-03-08T08:34:35Z</time>
      </trkpt>
      <trkpt lat="47.25511" lon="-1.53659">
        <ele>28.502966</ele>
        <time>2022-03-08T08:34:38Z</time>
      </trkpt>
      <trkpt lat="47.25512" lon="-1.53653">
        <ele>29.183924</ele>
        <time>2022-03-08T08:34:41Z</time>
      </trkpt>
      <trkpt lat="47.25512" lon="-1.53645">
        <ele>30.578241</ele>
        <time>2022-03-08T08:34:47Z</time>
      </trkpt>
      <trkpt lat="47.2551" lon="-1.53638">
        <ele>31.385187</ele>
        <time>2022-03-08T08:34:50Z</time>
      </trkpt>
      <trkpt lat="47.25507" lon="-1.53632">
        <ele>32.921875</ele>
        <time>2022-03-08T08:34:56Z</time>
      </trkpt>
      <trkpt lat="47.25505" lon="-1.53625">
        <ele>33.92187</ele>
        <time>2022-03-08T08:35:00Z</time>
      </trkpt>
      <trkpt lat="47.25502" lon="-1.53619">
        <ele>34.935738</ele>
        <time>2022-03-08T08:35:04Z</time>
      </trkpt>
      <trkpt lat="47.25502" lon="-1.53612">
        <ele>36.183044</ele>
        <time>2022-03-08T08:35:09Z</time>
      </trkpt>
      <trkpt lat="47.25502" lon="-1.53604">
        <ele>37.2293</ele>
        <time>2022-03-08T08:35:13Z</time>
      </trkpt>
      <trkpt lat="47.25499" lon="-1.53598">
        <ele>38.31726</ele>
        <time>2022-03-08T08:35:17Z</time>
      </trkpt>
      <trkpt lat="47.25498" lon="-1.53591">
        <ele>39.149734</ele>
        <time>2022-03-08T08:35:20Z</time>
      </trkpt>
      <trkpt lat="47.25496" lon="-1.53583">
        <ele>40.23157</ele>
        <time>2022-03-08T08:35:24Z</time>
      </trkpt>
      <trkpt lat="47.25494" lon="-1.53576">
        <ele>41.25398</ele>
        <time>2022-03-08T08:35:28Z</time>
      </trkpt>
      <trkpt lat="47.25492" lon="-1.53568">
        <ele>42.37132</ele>
        <time>2022-03-08T08:35:32Z</time>
      </trkpt>
      <trkpt lat="47.25491" lon="-1.53561">
        <ele>43.38351</ele>
        <time>2022-03-08T08:35:36Z</time>
      </trkpt>
      <trkpt lat="47.25487" lon="-1.53555">
        <ele>44.32294</ele>
        <time>2022-03-08T08:35:40Z</time>
      </trkpt>
      <trkpt lat="47.25485" lon="-1.53549">
        <ele>45.021503</ele>
        <time>2022-03-08T08:35:43Z</time>
      </trkpt>
      <trkpt lat="47.25484" lon="-1.53541">
        <ele>45.84502</ele>
        <time>2022-03-08T08:35:47Z</time>
      </trkpt>
      <trkpt lat="47.25483" lon="-1.53534">
        <ele>46.76558</ele>
        <time>2022-03-08T08:35:52Z</time>
      </trkpt>
      <trkpt lat="47.25484" lon="-1.53528">
        <ele>47.390915</ele>
        <time>2022-03-08T08:35:56Z</time>
      </trkpt>
      <trkpt lat="47.2548" lon="-1.53522">
        <ele>47.76424</ele>
        <time>2022-03-08T08:35:59Z</time>
      </trkpt>
      <trkpt lat="47.25479" lon="-1.53514">
        <ele>48.433174</ele>
        <time>2022-03-08T08:36:03Z</time>
      </trkpt>
      <trkpt lat="47.25477" lon="-1.53507">
        <ele>48.89359</ele>
        <time>2022-03-08T08:36:06Z</time>
      </trkpt>
      <trkpt lat="47.25474" lon="-1.53501">
        <ele>49.303078</ele>
        <time>2022-03-08T08:36:09Z</time>
      </trkpt>
      <trkpt lat="47.25472" lon="-1.53494">
        <ele>49.78256</ele>
        <time>2022-03-08T08:36:12Z</time>
      </trkpt>
      <trkpt lat="47.2547" lon="-1.53487">
        <ele>50.4449</ele>
        <time>2022-03-08T08:36:16Z</time>
      </trkpt>
      <trkpt lat="47.25468" lon="-1.5348">
        <ele>51.090088</ele>
        <time>2022-03-08T08:36:20Z</time>
      </trkpt>
      <trkpt lat="47.25468" lon="-1.53474">
        <ele>51.951977</ele>
        <time>2022-03-08T08:36:24Z</time>
      </trkpt>
      <trkpt lat="47.25467" lon="-1.53466">
        <ele>53.057613</ele>
        <time>2022-03-08T08:36:28Z</time>
      </trkpt>
      <trkpt lat="47.25466" lon="-1.53458">
        <ele>54.123608</ele>
        <time>2022-03-08T08:36:32Z</time>
      </trkpt>
      <trkpt lat="47.25463" lon="-1.5345">
        <ele>55.18214</ele>
        <time>2022-03-08T08:36:36Z</time>
      </trkpt>
      <trkpt lat="47.2546" lon="-1.53444">
        <ele>55.851257</ele>
        <time>2022-03-08T08:36:39Z</time>
      </trkpt>
      <trkpt lat="47.25457" lon="-1.53438">
        <ele>56.607376</ele>
        <time>2022-03-08T08:36:43Z</time>
      </trkpt>
      <trkpt lat="47.25454" lon="-1.53431">
        <ele>57.397278</ele>
        <time>2022-03-08T08:36:47Z</time>
      </trkpt>
      <trkpt lat="47.2545" lon="-1.53426">
        <ele>58.129272</ele>
        <time>2022-03-08T08:36:51Z</time>
      </trkpt>
      <trkpt lat="47.25448" lon="-1.53418">
        <ele>58.83361</ele>
        <time>2022-03-08T08:36:55Z</time>
      </trkpt>
      <trkpt lat="47.25446" lon="-1.53411">
        <ele>59.30028</ele>
        <time>2022-03-08T08:36:59Z</time>
      </trkpt>
      <trkpt lat="47.25444" lon="-1.53404">
        <ele>59.591816</ele>
        <time>2022-03-08T08:37:02Z</time>
      </trkpt>
      <trkpt lat="47.25443" lon="-1.53397">
        <ele>59.92627</ele>
        <time>2022-03-08T08:37:06Z</time>
      </trkpt>
      <trkpt lat="47.25441" lon="-1.5339">
        <ele>60.27009</ele>
        <time>2022-03-08T08:37:10Z</time>
      </trkpt>
      <trkpt lat="47.25439" lon="-1.53383">
        <ele>60.508175</ele>
        <time>2022-03-08T08:37:13Z</time>
      </trkpt>
      <trkpt lat="47.25437" lon="-1.53376">
        <ele>60.81301</ele>
        <time>2022-03-08T08:37:17Z</time>
      </trkpt>
      <trkpt lat="47.25435" lon="-1.53369">
        <ele>61.110584</ele>
        <time>2022-03-08T08:37:21Z</time>
      </trkpt>
      <trkpt lat="47.25433" lon="-1.53363">
        <ele>61.328533</ele>
        <time>2022-03-08T08:37:24Z</time>
      </trkpt>
      <trkpt lat="47.25431" lon="-1.53356">
        <ele>61.643898</ele>
        <time>2022-03-08T08:37:28Z</time>
      </trkpt>
      <trkpt lat="47.2543" lon="-1.53349">
        <ele>62.06077</ele>
        <time>2022-03-08T08:37:32Z</time>
      </trkpt>
      <trkpt lat="47.25428" lon="-1.53342">
        <ele>62.422916</ele>
        <time>2022-03-08T08:37:35Z</time>
      </trkpt>
      <trkpt lat="47.25427" lon="-1.53335">
        <ele>62.81678</ele>
        <time>2022-03-08T08:37:39Z</time>
      </trkpt>
      <trkpt lat="47.25425" lon="-1.53327">
        <ele>63.128468</ele>
        <time>2022-03-08T08:37:43Z</time>
      </trkpt>
      <trkpt lat="47.25423" lon="-1.5332">
        <ele>63.48383</ele>
        <time>2022-03-08T08:37:47Z</time>
      </trkpt>
      <trkpt lat="47.25422" lon="-1.53312">
        <ele>63.919308</ele>
        <time>2022-03-08T08:37:51Z</time>
      </trkpt>
      <trkpt lat="47.25422" lon="-1.53304">
        <ele>64.34556</ele>
        <time>2022-03-08T08:37:55Z</time>
      </trkpt>
      <trkpt lat="47.25421" lon="-1.53297">
        <ele>64.715614</ele>
        <time>2022-03-08T08:37:58Z</time>
      </trkpt>
      <trkpt lat="47.25418" lon="-1.53289">
        <ele>65.473564</ele>
        <time>2022-03-08T08:38:04Z</time>
      </trkpt>
      <trkpt lat="47.25415" lon="-1.53283">
        <ele>66.00373</ele>
        <time>2022-03-08T08:38:07Z</time>
      </trkpt>
      <trkpt lat="47.25411" lon="-1.53277">
        <ele>66.50785</ele>
        <time>2022-03-08T08:38:10Z</time>
      </trkpt>
      <trkpt lat="47.25409" lon="-1.5327">
        <ele>67.0729</ele>
        <time>2022-03-08T08:38:14Z</time>
      </trkpt>
      <trkpt lat="47.25407" lon="-1.53263">
        <ele>67.638115</ele>
        <time>2022-03-08T08:38:18Z</time>
      </trkpt>
      <trkpt lat="47.25406" lon="-1.53256">
        <ele>68.08063</ele>
        <time>2022-03-08T08:38:21Z</time>
      </trkpt>
      <trkpt lat="47.25404" lon="-1.53248">
        <ele>68.64065</ele>
        <time>2022-03-08T08:38:25Z</time>
      </trkpt>
      <trkpt lat="47.25403" lon="-1.53242">
        <ele>69.21561</ele>
        <time>2022-03-08T08:38:29Z</time>
      </trkpt>
      <trkpt lat="47.25399" lon="-1.53238">
        <ele>69.58914</ele>
        <time>2022-03-08T08:38:32Z</time>
      </trkpt>
      <trkpt lat="47.25398" lon="-1.53231">
        <ele>69.86787</ele>
        <time>2022-03-08T08:38:35Z</time>
      </trkpt>
      <trkpt lat="47.25398" lon="-1.53222">
        <ele>70.18265</ele>
        <time>2022-03-08T08:38:39Z</time>
      </trkpt>
      <trkpt lat="47.25396" lon="-1.53214">
        <ele>70.57565</ele>
        <time>2022-03-08T08:38:43Z</time>
      </trkpt>
      <trkpt lat="47.25393" lon="-1.53208">
        <ele>70.93021</ele>
        <time>2022-03-08T08:38:47Z</time>
      </trkpt>
      <trkpt lat="47.2539" lon="-1.53202">
        <ele>71.16086</ele>
        <time>2022-03-08T08:38:50Z</time>
      </trkpt>
      <trkpt lat="47.25389" lon="-1.53194">
        <ele>71.46101</ele>
        <time>2022-03-08T08:38:54Z</time>
      </trkpt>
      <trkpt lat="47.25387" lon="-1.53187">
        <ele>71.61803</ele>
        <time>2022-03-08T08:38:59Z</time>
      </trkpt>
      <trkpt lat="47.25385" lon="-1.5318">
        <ele>71.6833</ele>
        <time>2022-03-08T08:39:03Z</time>
      </trkpt>
      <trkpt lat="47.25382" lon="-1.53174">
        <ele>71.84549</ele>
        <time>2022-03-08T08:39:06Z</time>
      </trkpt>
      <trkpt lat="47.25381" lon="-1.53166">
        <ele>72.115425</ele>
        <time>2022-03-08T08:39:10Z</time>
      </trkpt>
      <trkpt lat="47.25378" lon="-1.5316">
        <ele>72.34577</ele>
        <time>2022-03-08T08:39:13Z</time>
      </trkpt>
      <trkpt lat="47.25377" lon="-1.53152">
        <ele>72.46475</ele>
        <time>2022-03-08T08:39:17Z</time>
      </trkpt>
      <trkpt lat="47.25375" lon="-1.53145">
        <ele>72.60127</ele>
        <time>2022-03-08T08:39:21Z</time>
      </trkpt>
      <trkpt lat="47.25374" lon="-1.53138">
        <ele>72.82257</ele>
        <time>2022-03-08T08:39:25Z</time>
      </trkpt>
      <trkpt lat="47.25371" lon="-1.53131">
        <ele>73.07146</ele>
        <time>2022-03-08T08:39:29Z</time>
      </trkpt>
      <trkpt lat="47.25368" lon="-1.53125">
        <ele>73.16407</ele>
        <time>2022-03-08T08:39:33Z</time>
      </trkpt>
      <trkpt lat="47.25366" lon="-1.53117">
        <ele>73.15276</ele>
        <time>2022-03-08T08:39:37Z</time>
      </trkpt>
      <trkpt lat="47.25364" lon="-1.5311">
        <ele>73.08365</ele>
        <time>2022-03-08T08:39:41Z</time>
      </trkpt>
      <trkpt lat="47.25363" lon="-1.53103">
        <ele>73.023415</ele>
        <time>2022-03-08T08:39:45Z</time>
      </trkpt>
      <trkpt lat="47.25361" lon="-1.53096">
        <ele>72.838486</ele>
        <time>2022-03-08T08:39:49Z</time>
      </trkpt>
      <trkpt lat="47.25361" lon="-1.53089">
        <ele>72.66309</ele>
        <time>2022-03-08T08:39:53Z</time>
      </trkpt>
      <trkpt lat="47.25361" lon="-1.53081">
        <ele>72.41224</ele>
        <time>2022-03-08T08:39:57Z</time>
      </trkpt>
      <trkpt lat="47.25359" lon="-1.53073">
        <ele>72.27776</ele>
        <time>2022-03-08T08:40:01Z</time>
      </trkpt>
      <trkpt lat="47.25356" lon="-1.53068">
        <ele>72.175476</ele>
        <time>2022-03-08T08:40:04Z</time>
      </trkpt>
      <trkpt lat="47.25355" lon="-1.53068">
        <ele>71.92762</ele>
        <time>2022-03-08T08:40:10Z</time>
      </trkpt>
      <trkpt lat="47.25355" lon="-1.53068">
        <ele>71.92762</ele>
        <time>2022-03-08T08:40:10Z</time>
      </trkpt>
      <trkpt lat="47.25357" lon="-1.53061">
        <ele>71.59232</ele>
        <time>2022-03-08T08:40:19Z</time>
      </trkpt>
      <trkpt lat="47.25363" lon="-1.5306">
        <ele>71.35334</ele>
        <time>2022-03-08T08:40:25Z</time>
      </trkpt>
      <trkpt lat="47.25369" lon="-1.53059">
        <ele>71.3251</ele>
        <time>2022-03-08T08:40:28Z</time>
      </trkpt>
      <trkpt lat="47.25374" lon="-1.53057">
        <ele>71.28968</ele>
        <time>2022-03-08T08:40:33Z</time>
      </trkpt>
      <trkpt lat="47.25377" lon="-1.5305">
        <ele>71.30234</ele>
        <time>2022-03-08T08:40:36Z</time>
      </trkpt>
      <trkpt lat="47.25376" lon="-1.53044">
        <ele>71.35152</ele>
        <time>2022-03-08T08:40:39Z</time>
      </trkpt>
      <trkpt lat="47.25378" lon="-1.53037">
        <ele>71.42505</ele>
        <time>2022-03-08T08:40:43Z</time>
      </trkpt>
      <trkpt lat="47.2538" lon="-1.53029">
        <ele>71.45183</ele>
        <time>2022-03-08T08:40:47Z</time>
      </trkpt>
      <trkpt lat="47.25379" lon="-1.53021">
        <ele>71.165245</ele>
        <time>2022-03-08T08:40:52Z</time>
      </trkpt>
      <trkpt lat="47.25381" lon="-1.53014">
        <ele>70.92506</ele>
        <time>2022-03-08T08:40:56Z</time>
      </trkpt>
      <trkpt lat="47.25381" lon="-1.53007">
        <ele>70.74595</ele>
        <time>2022-03-08T08:40:59Z</time>
      </trkpt>
      <trkpt lat="47.25382" lon="-1.53">
        <ele>70.51519</ele>
        <time>2022-03-08T08:41:03Z</time>
      </trkpt>
      <trkpt lat="47.25386" lon="-1.52998">
        <ele>69.9871</ele>
        <time>2022-03-08T08:41:09Z</time>
      </trkpt>
      <trkpt lat="47.25393" lon="-1.52998">
        <ele>69.41751</ele>
        <time>2022-03-08T08:41:13Z</time>
      </trkpt>
      <trkpt lat="47.25398" lon="-1.52999">
        <ele>69.08366</ele>
        <time>2022-03-08T08:41:16Z</time>
      </trkpt>
      <trkpt lat="47.25402" lon="-1.53">
        <ele>68.71475</ele>
        <time>2022-03-08T08:41:21Z</time>
      </trkpt>
      <trkpt lat="47.25408" lon="-1.53">
        <ele>68.461136</ele>
        <time>2022-03-08T08:41:25Z</time>
      </trkpt>
      <trkpt lat="47.25413" lon="-1.53001">
        <ele>68.19052</ele>
        <time>2022-03-08T08:41:30Z</time>
      </trkpt>
      <trkpt lat="47.25417" lon="-1.53001">
        <ele>67.98358</ele>
        <time>2022-03-08T08:41:34Z</time>
      </trkpt>
      <trkpt lat="47.25423" lon="-1.53001">
        <ele>67.94541</ele>
        <time>2022-03-08T08:41:37Z</time>
      </trkpt>
      <trkpt lat="47.25428" lon="-1.53002">
        <ele>68.005615</ele>
        <time>2022-03-08T08:41:40Z</time>
      </trkpt>
      <trkpt lat="47.25433" lon="-1.53003">
        <ele>68.10942</ele>
        <time>2022-03-08T08:41:43Z</time>
      </trkpt>
      <trkpt lat="47.25438" lon="-1.53004">
        <ele>68.26729</ele>
        <time>2022-03-08T08:41:47Z</time>
      </trkpt>
      <trkpt lat="47.25443" lon="-1.53004">
        <ele>68.41634</ele>
        <time>2022-03-08T08:41:51Z</time>
      </trkpt>
      <trkpt lat="47.25449" lon="-1.53005">
        <ele>68.424774</ele>
        <time>2022-03-08T08:41:54Z</time>
      </trkpt>
      <trkpt lat="47.25454" lon="-1.53006">
        <ele>68.39645</ele>
        <time>2022-03-08T08:41:58Z</time>
      </trkpt>
      <trkpt lat="47.25459" lon="-1.53008">
        <ele>68.52176</ele>
        <time>2022-03-08T08:42:01Z</time>
      </trkpt>
      <trkpt lat="47.25463" lon="-1.53011">
        <ele>68.66885</ele>
        <time>2022-03-08T08:42:05Z</time>
      </trkpt>
      <trkpt lat="47.25468" lon="-1.53012">
        <ele>68.777374</ele>
        <time>2022-03-08T08:42:08Z</time>
      </trkpt>
      <trkpt lat="47.25473" lon="-1.53014">
        <ele>68.91055</ele>
        <time>2022-03-08T08:42:12Z</time>
      </trkpt>
      <trkpt lat="47.25478" lon="-1.53016">
        <ele>69.14367</ele>
        <time>2022-03-08T08:42:17Z</time>
      </trkpt>
      <trkpt lat="47.25483" lon="-1.53017">
        <ele>69.17446</ele>
        <time>2022-03-08T08:42:20Z</time>
      </trkpt>
      <trkpt lat="47.25488" lon="-1.53019">
        <ele>69.215805</ele>
        <time>2022-03-08T08:42:24Z</time>
      </trkpt>
      <trkpt lat="47.25493" lon="-1.53019">
        <ele>69.169</ele>
        <time>2022-03-08T08:42:28Z</time>
      </trkpt>
      <trkpt lat="47.25497" lon="-1.53018">
        <ele>69.1157</ele>
        <time>2022-03-08T08:42:32Z</time>
      </trkpt>
      <trkpt lat="47.25502" lon="-1.53017">
        <ele>69.11327</ele>
        <time>2022-03-08T08:42:35Z</time>
      </trkpt>
      <trkpt lat="47.25508" lon="-1.53015">
        <ele>69.15447</ele>
        <time>2022-03-08T08:42:40Z</time>
      </trkpt>
      <trkpt lat="47.25513" lon="-1.53014">
        <ele>69.20772</ele>
        <time>2022-03-08T08:42:43Z</time>
      </trkpt>
      <trkpt lat="47.25518" lon="-1.53012">
        <ele>69.35997</ele>
        <time>2022-03-08T08:42:47Z</time>
      </trkpt>
      <trkpt lat="47.25523" lon="-1.53011">
        <ele>69.43001</ele>
        <time>2022-03-08T08:42:51Z</time>
      </trkpt>
      <trkpt lat="47.2553" lon="-1.53012">
        <ele>69.497284</ele>
        <time>2022-03-08T08:42:55Z</time>
      </trkpt>
      <trkpt lat="47.25535" lon="-1.53012">
        <ele>69.498505</ele>
        <time>2022-03-08T08:42:59Z</time>
      </trkpt>
      <trkpt lat="47.2554" lon="-1.53012">
        <ele>69.43928</ele>
        <time>2022-03-08T08:43:03Z</time>
      </trkpt>
      <trkpt lat="47.25546" lon="-1.53013">
        <ele>69.250244</ele>
        <time>2022-03-08T08:43:06Z</time>
      </trkpt>
      <trkpt lat="47.25552" lon="-1.53016">
        <ele>68.799</ele>
        <time>2022-03-08T08:43:12Z</time>
      </trkpt>
      <trkpt lat="47.25558" lon="-1.53015">
        <ele>68.20274</ele>
        <time>2022-03-08T08:43:17Z</time>
      </trkpt>
      <trkpt lat="47.25562" lon="-1.53012">
        <ele>67.79253</ele>
        <time>2022-03-08T08:43:20Z</time>
      </trkpt>
      <trkpt lat="47.25567" lon="-1.5301">
        <ele>67.62242</ele>
        <time>2022-03-08T08:43:22Z</time>
      </trkpt>
      <trkpt lat="47.25573" lon="-1.53008">
        <ele>67.487206</ele>
        <time>2022-03-08T08:43:26Z</time>
      </trkpt>
      <trkpt lat="47.25578" lon="-1.53007">
        <ele>67.567924</ele>
        <time>2022-03-08T08:43:29Z</time>
      </trkpt>
      <trkpt lat="47.25583" lon="-1.53006">
        <ele>67.78351</ele>
        <time>2022-03-08T08:43:33Z</time>
      </trkpt>
      <trkpt lat="47.25588" lon="-1.53005">
        <ele>67.937096</ele>
        <time>2022-03-08T08:43:38Z</time>
      </trkpt>
      <trkpt lat="47.25594" lon="-1.53007">
        <ele>68.32654</ele>
        <time>2022-03-08T08:43:44Z</time>
      </trkpt>
      <trkpt lat="47.25599" lon="-1.53008">
        <ele>68.4822</ele>
        <time>2022-03-08T08:43:47Z</time>
      </trkpt>
      <trkpt lat="47.25604" lon="-1.53009">
        <ele>68.59306</ele>
        <time>2022-03-08T08:43:49Z</time>
      </trkpt>
      <trkpt lat="47.25609" lon="-1.53007">
        <ele>68.70855</ele>
        <time>2022-03-08T08:43:54Z</time>
      </trkpt>
      <trkpt lat="47.25613" lon="-1.53002">
        <ele>68.75245</ele>
        <time>2022-03-08T08:43:58Z</time>
      </trkpt>
      <trkpt lat="47.25617" lon="-1.53">
        <ele>68.62239</ele>
        <time>2022-03-08T08:44:03Z</time>
      </trkpt>
      <trkpt lat="47.25623" lon="-1.52999">
        <ele>68.62031</ele>
        <time>2022-03-08T08:44:06Z</time>
      </trkpt>
      <trkpt lat="47.25628" lon="-1.52997">
        <ele>68.532936</ele>
        <time>2022-03-08T08:44:10Z</time>
      </trkpt>
      <trkpt lat="47.25633" lon="-1.52997">
        <ele>68.3828</ele>
        <time>2022-03-08T08:44:14Z</time>
      </trkpt>
      <trkpt lat="47.25638" lon="-1.52995">
        <ele>68.33683</ele>
        <time>2022-03-08T08:44:18Z</time>
      </trkpt>
      <trkpt lat="47.25642" lon="-1.52995">
        <ele>68.2921</ele>
        <time>2022-03-08T08:44:21Z</time>
      </trkpt>
      <trkpt lat="47.25647" lon="-1.52992">
        <ele>68.33317</ele>
        <time>2022-03-08T08:44:25Z</time>
      </trkpt>
      <trkpt lat="47.25652" lon="-1.5299">
        <ele>68.373985</ele>
        <time>2022-03-08T08:44:29Z</time>
      </trkpt>
      <trkpt lat="47.25658" lon="-1.52987">
        <ele>68.324005</ele>
        <time>2022-03-08T08:44:33Z</time>
      </trkpt>
      <trkpt lat="47.25663" lon="-1.52986">
        <ele>68.30158</ele>
        <time>2022-03-08T08:44:36Z</time>
      </trkpt>
      <trkpt lat="47.25668" lon="-1.52983">
        <ele>68.23391</ele>
        <time>2022-03-08T08:44:40Z</time>
      </trkpt>
      <trkpt lat="47.25674" lon="-1.52981">
        <ele>68.11461</ele>
        <time>2022-03-08T08:44:45Z</time>
      </trkpt>
      <trkpt lat="47.25678" lon="-1.52979">
        <ele>68.03528</ele>
        <time>2022-03-08T08:44:48Z</time>
      </trkpt>
      <trkpt lat="47.25683" lon="-1.52978">
        <ele>67.77208</ele>
        <time>2022-03-08T08:44:52Z</time>
      </trkpt>
      <trkpt lat="47.25688" lon="-1.52977">
        <ele>67.57177</ele>
        <time>2022-03-08T08:44:56Z</time>
      </trkpt>
      <trkpt lat="47.25694" lon="-1.52975">
        <ele>67.241714</ele>
        <time>2022-03-08T08:45:00Z</time>
      </trkpt>
      <trkpt lat="47.25698" lon="-1.52973">
        <ele>66.86124</ele>
        <time>2022-03-08T08:45:04Z</time>
      </trkpt>
      <trkpt lat="47.25704" lon="-1.52974">
        <ele>66.59404</ele>
        <time>2022-03-08T08:45:07Z</time>
      </trkpt>
      <trkpt lat="47.25709" lon="-1.52973">
        <ele>66.08299</ele>
        <time>2022-03-08T08:45:12Z</time>
      </trkpt>
      <trkpt lat="47.25714" lon="-1.5297">
        <ele>65.65701</ele>
        <time>2022-03-08T08:45:16Z</time>
      </trkpt>
      <trkpt lat="47.2572" lon="-1.5297">
        <ele>65.28814</ele>
        <time>2022-03-08T08:45:20Z</time>
      </trkpt>
      <trkpt lat="47.25726" lon="-1.52967">
        <ele>64.88867</ele>
        <time>2022-03-08T08:45:26Z</time>
      </trkpt>
      <trkpt lat="47.2573" lon="-1.52966">
        <ele>64.45479</ele>
        <time>2022-03-08T08:45:30Z</time>
      </trkpt>
      <trkpt lat="47.25736" lon="-1.52964">
        <ele>63.95308</ele>
        <time>2022-03-08T08:45:34Z</time>
      </trkpt>
      <trkpt lat="47.25743" lon="-1.52962">
        <ele>63.551414</ele>
        <time>2022-03-08T08:45:38Z</time>
      </trkpt>
      <trkpt lat="47.25748" lon="-1.52961">
        <ele>63.430817</ele>
        <time>2022-03-08T08:45:40Z</time>
      </trkpt>
      <trkpt lat="47.25754" lon="-1.52957">
        <ele>63.28194</ele>
        <time>2022-03-08T08:45:43Z</time>
      </trkpt>
      <trkpt lat="47.2576" lon="-1.52955">
        <ele>63.035625</ele>
        <time>2022-03-08T08:45:48Z</time>
      </trkpt>
      <trkpt lat="47.25765" lon="-1.52955">
        <ele>62.7981</ele>
        <time>2022-03-08T08:45:52Z</time>
      </trkpt>
      <trkpt lat="47.25769" lon="-1.52953">
        <ele>62.62926</ele>
        <time>2022-03-08T08:45:55Z</time>
      </trkpt>
      <trkpt lat="47.25774" lon="-1.52951">
        <ele>62.318027</ele>
        <time>2022-03-08T08:46:01Z</time>
      </trkpt>
      <trkpt lat="47.25779" lon="-1.52949">
        <ele>61.96596</ele>
        <time>2022-03-08T08:46:05Z</time>
      </trkpt>
      <trkpt lat="47.25783" lon="-1.52948">
        <ele>61.60381</ele>
        <time>2022-03-08T08:46:08Z</time>
      </trkpt>
      <trkpt lat="47.25788" lon="-1.52947">
        <ele>60.961933</ele>
        <time>2022-03-08T08:46:13Z</time>
      </trkpt>
      <trkpt lat="47.25794" lon="-1.52946">
        <ele>60.568996</ele>
        <time>2022-03-08T08:46:17Z</time>
      </trkpt>
      <trkpt lat="47.258" lon="-1.52945">
        <ele>60.152958</ele>
        <time>2022-03-08T08:46:22Z</time>
      </trkpt>
      <trkpt lat="47.25805" lon="-1.52943">
        <ele>60.008884</ele>
        <time>2022-03-08T08:46:25Z</time>
      </trkpt>
      <trkpt lat="47.2581" lon="-1.52941">
        <ele>59.705826</ele>
        <time>2022-03-08T08:46:29Z</time>
      </trkpt>
      <trkpt lat="47.25816" lon="-1.52938">
        <ele>59.49553</ele>
        <time>2022-03-08T08:46:33Z</time>
      </trkpt>
      <trkpt lat="47.2582" lon="-1.52936">
        <ele>59.405453</ele>
        <time>2022-03-08T08:46:37Z</time>
      </trkpt>
      <trkpt lat="47.25825" lon="-1.52936">
        <ele>59.395863</ele>
        <time>2022-03-08T08:46:40Z</time>
      </trkpt>
      <trkpt lat="47.25831" lon="-1.52938">
        <ele>59.34971</ele>
        <time>2022-03-08T08:46:45Z</time>
      </trkpt>
      <trkpt lat="47.25835" lon="-1.52937">
        <ele>59.394077</ele>
        <time>2022-03-08T08:46:48Z</time>
      </trkpt>
      <trkpt lat="47.25841" lon="-1.52934">
        <ele>59.449978</ele>
        <time>2022-03-08T08:46:52Z</time>
      </trkpt>
      <trkpt lat="47.25846" lon="-1.52933">
        <ele>59.555607</ele>
        <time>2022-03-08T08:46:56Z</time>
      </trkpt>
      <trkpt lat="47.25851" lon="-1.52931">
        <ele>59.833916</ele>
        <time>2022-03-08T08:47:00Z</time>
      </trkpt>
      <trkpt lat="47.25856" lon="-1.52931">
        <ele>60.215366</ele>
        <time>2022-03-08T08:47:05Z</time>
      </trkpt>
      <trkpt lat="47.25861" lon="-1.5293">
        <ele>60.49408</ele>
        <time>2022-03-08T08:47:08Z</time>
      </trkpt>
      <trkpt lat="47.25866" lon="-1.5293">
        <ele>60.73417</ele>
        <time>2022-03-08T08:47:11Z</time>
      </trkpt>
      <trkpt lat="47.25872" lon="-1.5293">
        <ele>61.056705</ele>
        <time>2022-03-08T08:47:15Z</time>
      </trkpt>
      <trkpt lat="47.25876" lon="-1.52933">
        <ele>61.337112</ele>
        <time>2022-03-08T08:47:19Z</time>
      </trkpt>
      <trkpt lat="47.25882" lon="-1.5293">
        <ele>61.77424</ele>
        <time>2022-03-08T08:47:23Z</time>
      </trkpt>
      <trkpt lat="47.25887" lon="-1.52928">
        <ele>62.075195</ele>
        <time>2022-03-08T08:47:26Z</time>
      </trkpt>
      <trkpt lat="47.25892" lon="-1.52926">
        <ele>62.296272</ele>
        <time>2022-03-08T08:47:30Z</time>
      </trkpt>
      <trkpt lat="47.25896" lon="-1.52923">
        <ele>62.4861</ele>
        <time>2022-03-08T08:47:34Z</time>
      </trkpt>
      <trkpt lat="47.25901" lon="-1.52921">
        <ele>62.65995</ele>
        <time>2022-03-08T08:47:37Z</time>
      </trkpt>
      <trkpt lat="47.25906" lon="-1.52921">
        <ele>62.865982</ele>
        <time>2022-03-08T08:47:41Z</time>
      </trkpt>
      <trkpt lat="47.25911" lon="-1.52923">
        <ele>62.909306</ele>
        <time>2022-03-08T08:47:46Z</time>
      </trkpt>
      <trkpt lat="47.25915" lon="-1.52919">
        <ele>62.89912</ele>
        <time>2022-03-08T08:47:49Z</time>
      </trkpt>
      <trkpt lat="47.2592" lon="-1.52917">
        <ele>62.86804</ele>
        <time>2022-03-08T08:47:52Z</time>
      </trkpt>
      <trkpt lat="47.25925" lon="-1.52916">
        <ele>62.934376</ele>
        <time>2022-03-08T08:47:55Z</time>
      </trkpt>
      <trkpt lat="47.25931" lon="-1.52914">
        <ele>62.894203</ele>
        <time>2022-03-08T08:48:00Z</time>
      </trkpt>
      <trkpt lat="47.25937" lon="-1.52912">
        <ele>62.643723</ele>
        <time>2022-03-08T08:48:04Z</time>
      </trkpt>
      <trkpt lat="47.25942" lon="-1.52908">
        <ele>62.165108</ele>
        <time>2022-03-08T08:48:09Z</time>
      </trkpt>
      <trkpt lat="47.25948" lon="-1.52907">
        <ele>61.774265</ele>
        <time>2022-03-08T08:48:12Z</time>
      </trkpt>
      <trkpt lat="47.25952" lon="-1.52905">
        <ele>61.390663</ele>
        <time>2022-03-08T08:48:16Z</time>
      </trkpt>
      <trkpt lat="47.25958" lon="-1.52904">
        <ele>60.970337</ele>
        <time>2022-03-08T08:48:21Z</time>
      </trkpt>
      <trkpt lat="47.25962" lon="-1.52903">
        <ele>60.688805</ele>
        <time>2022-03-08T08:48:25Z</time>
      </trkpt>
      <trkpt lat="47.25967" lon="-1.52902">
        <ele>60.580486</ele>
        <time>2022-03-08T08:48:28Z</time>
      </trkpt>
      <trkpt lat="47.25972" lon="-1.529">
        <ele>60.44895</ele>
        <time>2022-03-08T08:48:31Z</time>
      </trkpt>
      <trkpt lat="47.25977" lon="-1.52899">
        <ele>60.397427</ele>
        <time>2022-03-08T08:48:34Z</time>
      </trkpt>
      <trkpt lat="47.25982" lon="-1.52897">
        <ele>60.39456</ele>
        <time>2022-03-08T08:48:38Z</time>
      </trkpt>
      <trkpt lat="47.25987" lon="-1.52894">
        <ele>60.31546</ele>
        <time>2022-03-08T08:48:43Z</time>
      </trkpt>
      <trkpt lat="47.2599" lon="-1.52889">
        <ele>60.351482</ele>
        <time>2022-03-08T08:48:46Z</time>
      </trkpt>
      <trkpt lat="47.25995" lon="-1.52888">
        <ele>60.191074</ele>
        <time>2022-03-08T08:48:51Z</time>
      </trkpt>
      <trkpt lat="47.26" lon="-1.52888">
        <ele>60.176594</ele>
        <time>2022-03-08T08:48:54Z</time>
      </trkpt>
      <trkpt lat="47.26006" lon="-1.52886">
        <ele>60.061123</ele>
        <time>2022-03-08T08:48:58Z</time>
      </trkpt>
      <trkpt lat="47.26011" lon="-1.52886">
        <ele>59.914425</ele>
        <time>2022-03-08T08:49:02Z</time>
      </trkpt>
      <trkpt lat="47.26016" lon="-1.52883">
        <ele>59.629665</ele>
        <time>2022-03-08T08:49:08Z</time>
      </trkpt>
      <trkpt lat="47.2602" lon="-1.52881">
        <ele>59.57484</ele>
        <time>2022-03-08T08:49:11Z</time>
      </trkpt>
      <trkpt lat="47.26025" lon="-1.52879">
        <ele>59.46818</ele>
        <time>2022-03-08T08:49:15Z</time>
      </trkpt>
      <trkpt lat="47.2603" lon="-1.52876">
        <ele>59.207916</ele>
        <time>2022-03-08T08:49:18Z</time>
      </trkpt>
      <trkpt lat="47.26035" lon="-1.52873">
        <ele>59.006138</ele>
        <time>2022-03-08T08:49:21Z</time>
      </trkpt>
      <trkpt lat="47.2604" lon="-1.52869">
        <ele>58.8458</ele>
        <time>2022-03-08T08:49:24Z</time>
      </trkpt>
      <trkpt lat="47.26043" lon="-1.52862">
        <ele>58.76791</ele>
        <time>2022-03-08T08:49:28Z</time>
      </trkpt>
      <trkpt lat="47.26047" lon="-1.52858">
        <ele>58.910122</ele>
        <time>2022-03-08T08:49:30Z</time>
      </trkpt>
      <trkpt lat="47.26049" lon="-1.52852">
        <ele>59.26679</ele>
        <time>2022-03-08T08:49:35Z</time>
      </trkpt>
      <trkpt lat="47.26051" lon="-1.52847">
        <ele>59.60484</ele>
        <time>2022-03-08T08:49:39Z</time>
      </trkpt>
      <trkpt lat="47.26055" lon="-1.52841">
        <ele>59.743774</ele>
        <time>2022-03-08T08:49:43Z</time>
      </trkpt>
      <trkpt lat="47.26058" lon="-1.52834">
        <ele>59.645798</ele>
        <time>2022-03-08T08:49:47Z</time>
      </trkpt>
      <trkpt lat="47.26059" lon="-1.52825">
        <ele>59.547077</ele>
        <time>2022-03-08T08:49:50Z</time>
      </trkpt>
      <trkpt lat="47.26062" lon="-1.5282">
        <ele>59.355843</ele>
        <time>2022-03-08T08:49:56Z</time>
      </trkpt>
      <trkpt lat="47.26068" lon="-1.52824">
        <ele>59.306385</ele>
        <time>2022-03-08T08:50:00Z</time>
      </trkpt>
      <trkpt lat="47.26073" lon="-1.52829">
        <ele>59.22648</ele>
        <time>2022-03-08T08:50:04Z</time>
      </trkpt>
      <trkpt lat="47.26078" lon="-1.5283">
        <ele>59.072227</ele>
        <time>2022-03-08T08:50:09Z</time>
      </trkpt>
      <trkpt lat="47.26085" lon="-1.52831">
        <ele>59.110695</ele>
        <time>2022-03-08T08:50:13Z</time>
      </trkpt>
      <trkpt lat="47.2609" lon="-1.52832">
        <ele>59.10488</ele>
        <time>2022-03-08T08:50:17Z</time>
      </trkpt>
      <trkpt lat="47.26094" lon="-1.52834">
        <ele>59.05679</ele>
        <time>2022-03-08T08:50:21Z</time>
      </trkpt>
      <trkpt lat="47.26099" lon="-1.52836">
        <ele>58.8716</ele>
        <time>2022-03-08T08:50:25Z</time>
      </trkpt>
      <trkpt lat="47.26104" lon="-1.52832">
        <ele>58.773407</ele>
        <time>2022-03-08T08:50:29Z</time>
      </trkpt>
      <trkpt lat="47.26109" lon="-1.52832">
        <ele>58.397472</ele>
        <time>2022-03-08T08:50:34Z</time>
      </trkpt>
      <trkpt lat="47.26113" lon="-1.52827">
        <ele>58.14743</ele>
        <time>2022-03-08T08:50:40Z</time>
      </trkpt>
      <trkpt lat="47.26117" lon="-1.52821">
        <ele>58.01126</ele>
        <time>2022-03-08T08:50:44Z</time>
      </trkpt>
      <trkpt lat="47.26119" lon="-1.52815">
        <ele>57.84782</ele>
        <time>2022-03-08T08:50:47Z</time>
      </trkpt>
      <trkpt lat="47.26119" lon="-1.52807">
        <ele>57.78185</ele>
        <time>2022-03-08T08:50:52Z</time>
      </trkpt>
      <trkpt lat="47.26119" lon="-1.52798">
        <ele>57.79025</ele>
        <time>2022-03-08T08:50:55Z</time>
      </trkpt>
      <trkpt lat="47.26118" lon="-1.52789">
        <ele>57.65679</ele>
        <time>2022-03-08T08:51:00Z</time>
      </trkpt>
      <trkpt lat="47.26116" lon="-1.52782">
        <ele>57.53168</ele>
        <time>2022-03-08T08:51:04Z</time>
      </trkpt>
      <trkpt lat="47.26117" lon="-1.52774">
        <ele>57.311512</ele>
        <time>2022-03-08T08:51:08Z</time>
      </trkpt>
      <trkpt lat="47.26122" lon="-1.52769">
        <ele>57.220596</ele>
        <time>2022-03-08T08:51:12Z</time>
      </trkpt>
      <trkpt lat="47.26127" lon="-1.52766">
        <ele>56.990696</ele>
        <time>2022-03-08T08:51:16Z</time>
      </trkpt>
      <trkpt lat="47.26132" lon="-1.52762">
        <ele>56.812138</ele>
        <time>2022-03-08T08:51:20Z</time>
      </trkpt>
      <trkpt lat="47.26135" lon="-1.52756">
        <ele>56.76956</ele>
        <time>2022-03-08T08:51:24Z</time>
      </trkpt>
      <trkpt lat="47.2614" lon="-1.52754">
        <ele>56.667534</ele>
        <time>2022-03-08T08:51:30Z</time>
      </trkpt>
      <trkpt lat="47.26144" lon="-1.52752">
        <ele>56.425602</ele>
        <time>2022-03-08T08:51:34Z</time>
      </trkpt>
      <trkpt lat="47.26149" lon="-1.52748">
        <ele>56.23788</ele>
        <time>2022-03-08T08:51:37Z</time>
      </trkpt>
      <trkpt lat="47.26152" lon="-1.52745">
        <ele>56.15504</ele>
        <time>2022-03-08T08:51:39Z</time>
      </trkpt>
      <trkpt lat="47.26156" lon="-1.52741">
        <ele>56.076965</ele>
        <time>2022-03-08T08:51:42Z</time>
      </trkpt>
      <trkpt lat="47.26161" lon="-1.52737">
        <ele>55.819122</ele>
        <time>2022-03-08T08:51:46Z</time>
      </trkpt>
      <trkpt lat="47.26165" lon="-1.52734">
        <ele>55.33701</ele>
        <time>2022-03-08T08:51:49Z</time>
      </trkpt>
      <trkpt lat="47.2617" lon="-1.52731">
        <ele>54.89271</ele>
        <time>2022-03-08T08:51:54Z</time>
      </trkpt>
      <trkpt lat="47.26175" lon="-1.52728">
        <ele>54.825405</ele>
        <time>2022-03-08T08:51:59Z</time>
      </trkpt>
      <trkpt lat="47.26179" lon="-1.52725">
        <ele>54.821655</ele>
        <time>2022-03-08T08:52:02Z</time>
      </trkpt>
      <trkpt lat="47.26183" lon="-1.52719">
        <ele>54.984627</ele>
        <time>2022-03-08T08:52:06Z</time>
      </trkpt>
      <trkpt lat="47.26186" lon="-1.52715">
        <ele>55.09534</ele>
        <time>2022-03-08T08:52:08Z</time>
      </trkpt>
      <trkpt lat="47.26189" lon="-1.5271">
        <ele>55.163097</ele>
        <time>2022-03-08T08:52:12Z</time>
      </trkpt>
      <trkpt lat="47.26194" lon="-1.52704">
        <ele>55.3058</ele>
        <time>2022-03-08T08:52:18Z</time>
      </trkpt>
      <trkpt lat="47.26199" lon="-1.52701">
        <ele>55.304024</ele>
        <time>2022-03-08T08:52:21Z</time>
      </trkpt>
      <trkpt lat="47.26204" lon="-1.52697">
        <ele>55.412655</ele>
        <time>2022-03-08T08:52:24Z</time>
      </trkpt>
      <trkpt lat="47.26207" lon="-1.52692">
        <ele>55.749287</ele>
        <time>2022-03-08T08:52:28Z</time>
      </trkpt>
      <trkpt lat="47.26211" lon="-1.52687">
        <ele>55.86382</ele>
        <time>2022-03-08T08:52:31Z</time>
      </trkpt>
      <trkpt lat="47.26215" lon="-1.52683">
        <ele>55.951065</ele>
        <time>2022-03-08T08:52:33Z</time>
      </trkpt>
      <trkpt lat="47.26219" lon="-1.52679">
        <ele>55.911606</ele>
        <time>2022-03-08T08:52:40Z</time>
      </trkpt>
      <trkpt lat="47.26222" lon="-1.52673">
        <ele>55.849976</ele>
        <time>2022-03-08T08:52:43Z</time>
      </trkpt>
      <trkpt lat="47.26223" lon="-1.52665">
        <ele>56.0236</ele>
        <time>2022-03-08T08:52:46Z</time>
      </trkpt>
      <trkpt lat="47.26225" lon="-1.52658">
        <ele>56.313816</ele>
        <time>2022-03-08T08:52:51Z</time>
      </trkpt>
      <trkpt lat="47.26227" lon="-1.52651">
        <ele>56.530994</ele>
        <time>2022-03-08T08:52:54Z</time>
      </trkpt>
      <trkpt lat="47.2623" lon="-1.52643">
        <ele>56.7248</ele>
        <time>2022-03-08T08:52:59Z</time>
      </trkpt>
      <trkpt lat="47.26231" lon="-1.52636">
        <ele>56.82695</ele>
        <time>2022-03-08T08:53:03Z</time>
      </trkpt>
      <trkpt lat="47.26234" lon="-1.52629">
        <ele>56.913692</ele>
        <time>2022-03-08T08:53:08Z</time>
      </trkpt>
      <trkpt lat="47.26234" lon="-1.52622">
        <ele>56.737114</ele>
        <time>2022-03-08T08:53:13Z</time>
      </trkpt>
      <trkpt lat="47.26236" lon="-1.52615">
        <ele>56.293312</ele>
        <time>2022-03-08T08:53:17Z</time>
      </trkpt>
      <trkpt lat="47.26239" lon="-1.5261">
        <ele>55.9702</ele>
        <time>2022-03-08T08:53:23Z</time>
      </trkpt>
      <trkpt lat="47.26243" lon="-1.52603">
        <ele>55.78762</ele>
        <time>2022-03-08T08:53:27Z</time>
      </trkpt>
      <trkpt lat="47.26248" lon="-1.52605">
        <ele>55.307556</ele>
        <time>2022-03-08T08:53:35Z</time>
      </trkpt>
      <trkpt lat="47.26248" lon="-1.52605">
        <ele>55.307556</ele>
        <time>2022-03-08T08:53:35Z</time>
      </trkpt>
      <trkpt lat="47.26248" lon="-1.52605">
        <ele>55.307556</ele>
        <time>2022-03-08T08:53:35Z</time>
      </trkpt>
      <trkpt lat="47.26261" lon="-1.52603">
        <ele>55.227272</ele>
        <time>2022-03-08T08:53:55Z</time>
      </trkpt>
      <trkpt lat="47.26265" lon="-1.52607">
        <ele>55.11941</ele>
        <time>2022-03-08T08:53:58Z</time>
      </trkpt>
      <trkpt lat="47.2627" lon="-1.52609">
        <ele>55.10466</ele>
        <time>2022-03-08T08:54:06Z</time>
      </trkpt>
      <trkpt lat="47.26275" lon="-1.52606">
        <ele>55.116188</ele>
        <time>2022-03-08T08:54:15Z</time>
      </trkpt>
      <trkpt lat="47.2628" lon="-1.52601">
        <ele>54.6439</ele>
        <time>2022-03-08T08:54:20Z</time>
      </trkpt>
      <trkpt lat="47.26285" lon="-1.52597">
        <ele>54.11388</ele>
        <time>2022-03-08T08:54:28Z</time>
      </trkpt>
      <trkpt lat="47.26287" lon="-1.5259">
        <ele>53.92274</ele>
        <time>2022-03-08T08:54:31Z</time>
      </trkpt>
      <trkpt lat="47.26288" lon="-1.52587">
        <ele>53.814316</ele>
        <time>2022-03-08T08:54:36Z</time>
      </trkpt>
      <trkpt lat="47.26288" lon="-1.52587">
        <ele>53.814316</ele>
        <time>2022-03-08T08:54:36Z</time>
      </trkpt>
      <trkpt lat="47.26288" lon="-1.52578">
        <ele>53.392982</ele>
        <time>2022-03-08T08:54:48Z</time>
      </trkpt>
      <trkpt lat="47.26287" lon="-1.52586">
        <ele>53.816475</ele>
        <time>2022-03-08T08:55:02Z</time>
      </trkpt>
      <trkpt lat="47.26288" lon="-1.52589">
        <ele>54.034172</ele>
        <time>2022-03-08T08:55:08Z</time>
      </trkpt>
      <trkpt lat="47.26288" lon="-1.52589">
        <ele>54.034172</ele>
        <time>2022-03-08T08:55:08Z</time>
      </trkpt>
      <trkpt lat="47.26298" lon="-1.52575">
        <ele>54.966057</ele>
        <time>2022-03-08T08:56:49Z</time>
      </trkpt>
      <trkpt lat="47.26302" lon="-1.5257">
        <ele>55.21158</ele>
        <time>2022-03-08T08:56:56Z</time>
      </trkpt>
      <trkpt lat="47.26304" lon="-1.52564">
        <ele>55.211315</ele>
        <time>2022-03-08T08:57:02Z</time>
      </trkpt>
      <trkpt lat="47.26305" lon="-1.52557">
        <ele>54.74685</ele>
        <time>2022-03-08T08:57:15Z</time>
      </trkpt>
      <trkpt lat="47.2631" lon="-1.52552">
        <ele>54.55355</ele>
        <time>2022-03-08T08:57:21Z</time>
      </trkpt>
      <trkpt lat="47.2631" lon="-1.52552">
        <ele>54.54603</ele>
        <time>2022-03-08T08:57:23Z</time>
      </trkpt>
      <trkpt lat="47.2631" lon="-1.52552">
        <ele>54.54603</ele>
        <time>2022-03-08T08:57:23Z</time>
      </trkpt>
      <trkpt lat="47.26316" lon="-1.52543">
        <ele>54.282185</ele>
        <time>2022-03-08T08:57:37Z</time>
      </trkpt>
      <trkpt lat="47.26318" lon="-1.52536">
        <ele>54.585815</ele>
        <time>2022-03-08T08:57:46Z</time>
      </trkpt>
      <trkpt lat="47.26322" lon="-1.52531">
        <ele>54.80043</ele>
        <time>2022-03-08T08:57:51Z</time>
      </trkpt>
      <trkpt lat="47.26325" lon="-1.52525">
        <ele>55.07277</ele>
        <time>2022-03-08T08:57:58Z</time>
      </trkpt>
      <trkpt lat="47.26328" lon="-1.52518">
        <ele>55.52937</ele>
        <time>2022-03-08T08:58:06Z</time>
      </trkpt>
      <trkpt lat="47.2633" lon="-1.52513">
        <ele>55.712402</ele>
        <time>2022-03-08T08:58:12Z</time>
      </trkpt>
      <trkpt lat="47.26332" lon="-1.52506">
        <ele>55.821327</ele>
        <time>2022-03-08T08:58:17Z</time>
      </trkpt>
      <trkpt lat="47.26336" lon="-1.52502">
        <ele>55.90738</ele>
        <time>2022-03-08T08:58:23Z</time>
      </trkpt>
      <trkpt lat="47.26341" lon="-1.52496">
        <ele>56.038925</ele>
        <time>2022-03-08T08:58:28Z</time>
      </trkpt>
      <trkpt lat="47.26344" lon="-1.52491">
        <ele>56.225166</ele>
        <time>2022-03-08T08:58:31Z</time>
      </trkpt>
      <trkpt lat="47.26349" lon="-1.52483">
        <ele>56.52692</ele>
        <time>2022-03-08T08:58:35Z</time>
      </trkpt>
      <trkpt lat="47.26353" lon="-1.52479">
        <ele>56.67048</ele>
        <time>2022-03-08T08:58:37Z</time>
      </trkpt>
      <trkpt lat="47.26357" lon="-1.52474">
        <ele>57.026527</ele>
        <time>2022-03-08T08:58:42Z</time>
      </trkpt>
      <trkpt lat="47.26362" lon="-1.52469">
        <ele>57.199974</ele>
        <time>2022-03-08T08:58:46Z</time>
      </trkpt>
      <trkpt lat="47.26365" lon="-1.52463">
        <ele>57.4995</ele>
        <time>2022-03-08T08:58:51Z</time>
      </trkpt>
      <trkpt lat="47.26369" lon="-1.52462">
        <ele>57.70926</ele>
        <time>2022-03-08T08:58:58Z</time>
      </trkpt>
      <trkpt lat="47.26369" lon="-1.52462">
        <ele>57.70926</ele>
        <time>2022-03-08T08:58:58Z</time>
      </trkpt>
      <trkpt lat="47.26377" lon="-1.52455">
        <ele>57.714695</ele>
        <time>2022-03-08T08:59:13Z</time>
      </trkpt>
      <trkpt lat="47.26381" lon="-1.52446">
        <ele>58.01142</ele>
        <time>2022-03-08T08:59:18Z</time>
      </trkpt>
      <trkpt lat="47.26379" lon="-1.52438">
        <ele>58.307697</ele>
        <time>2022-03-08T08:59:22Z</time>
      </trkpt>
      <trkpt lat="47.26377" lon="-1.52431">
        <ele>58.44816</ele>
        <time>2022-03-08T08:59:25Z</time>
      </trkpt>
      <trkpt lat="47.26377" lon="-1.52427">
        <ele>58.6302</ele>
        <time>2022-03-08T08:59:30Z</time>
      </trkpt>
      <trkpt lat="47.26377" lon="-1.52427">
        <ele>58.6302</ele>
        <time>2022-03-08T08:59:30Z</time>
      </trkpt>
      <trkpt lat="47.26379" lon="-1.5242">
        <ele>58.1512</ele>
        <time>2022-03-08T08:59:50Z</time>
      </trkpt>
      <trkpt lat="47.26383" lon="-1.52418">
        <ele>58.063606</ele>
        <time>2022-03-08T08:59:53Z</time>
      </trkpt>
      <trkpt lat="47.26387" lon="-1.52414">
        <ele>58.011124</ele>
        <time>2022-03-08T08:59:56Z</time>
      </trkpt>
      <trkpt lat="47.26392" lon="-1.5241">
        <ele>58.06075</ele>
        <time>2022-03-08T08:59:59Z</time>
      </trkpt>
      <trkpt lat="47.26398" lon="-1.52406">
        <ele>58.1759</ele>
        <time>2022-03-08T09:00:02Z</time>
      </trkpt>
      <trkpt lat="47.26403" lon="-1.52403">
        <ele>58.335705</ele>
        <time>2022-03-08T09:00:05Z</time>
      </trkpt>
      <trkpt lat="47.26407" lon="-1.52399">
        <ele>58.51619</ele>
        <time>2022-03-08T09:00:08Z</time>
      </trkpt>
      <trkpt lat="47.26411" lon="-1.52396">
        <ele>58.62792</ele>
        <time>2022-03-08T09:00:11Z</time>
      </trkpt>
      <trkpt lat="47.26416" lon="-1.52392">
        <ele>58.62809</ele>
        <time>2022-03-08T09:00:14Z</time>
      </trkpt>
      <trkpt lat="47.2642" lon="-1.52388">
        <ele>58.6996</ele>
        <time>2022-03-08T09:00:17Z</time>
      </trkpt>
      <trkpt lat="47.26424" lon="-1.52383">
        <ele>58.83033</ele>
        <time>2022-03-08T09:00:20Z</time>
      </trkpt>
      <trkpt lat="47.26428" lon="-1.52379">
        <ele>59.04191</ele>
        <time>2022-03-08T09:00:23Z</time>
      </trkpt>
      <trkpt lat="47.26432" lon="-1.52373">
        <ele>59.247158</ele>
        <time>2022-03-08T09:00:26Z</time>
      </trkpt>
      <trkpt lat="47.26436" lon="-1.52369">
        <ele>59.43212</ele>
        <time>2022-03-08T09:00:29Z</time>
      </trkpt>
      <trkpt lat="47.26439" lon="-1.52362">
        <ele>59.604576</ele>
        <time>2022-03-08T09:00:32Z</time>
      </trkpt>
      <trkpt lat="47.26442" lon="-1.52357">
        <ele>59.665215</ele>
        <time>2022-03-08T09:00:34Z</time>
      </trkpt>
      <trkpt lat="47.26445" lon="-1.52351">
        <ele>59.71158</ele>
        <time>2022-03-08T09:00:36Z</time>
      </trkpt>
      <trkpt lat="47.26447" lon="-1.52345">
        <ele>59.750988</ele>
        <time>2022-03-08T09:00:39Z</time>
      </trkpt>
      <trkpt lat="47.26451" lon="-1.52338">
        <ele>59.759876</ele>
        <time>2022-03-08T09:00:43Z</time>
      </trkpt>
      <trkpt lat="47.26455" lon="-1.52331">
        <ele>59.67789</ele>
        <time>2022-03-08T09:00:47Z</time>
      </trkpt>
      <trkpt lat="47.2646" lon="-1.52326">
        <ele>59.57886</ele>
        <time>2022-03-08T09:00:51Z</time>
      </trkpt>
      <trkpt lat="47.26464" lon="-1.52322">
        <ele>59.542206</ele>
        <time>2022-03-08T09:00:54Z</time>
      </trkpt>
      <trkpt lat="47.26469" lon="-1.52318">
        <ele>59.525925</ele>
        <time>2022-03-08T09:00:57Z</time>
      </trkpt>
      <trkpt lat="47.26473" lon="-1.52315">
        <ele>59.55272</ele>
        <time>2022-03-08T09:01:00Z</time>
      </trkpt>
      <trkpt lat="47.26477" lon="-1.52311">
        <ele>59.58368</ele>
        <time>2022-03-08T09:01:04Z</time>
      </trkpt>
      <trkpt lat="47.26482" lon="-1.52307">
        <ele>59.595055</ele>
        <time>2022-03-08T09:01:08Z</time>
      </trkpt>
      <trkpt lat="47.26486" lon="-1.52303">
        <ele>59.69909</ele>
        <time>2022-03-08T09:01:12Z</time>
      </trkpt>
      <trkpt lat="47.26491" lon="-1.52299">
        <ele>59.728905</ele>
        <time>2022-03-08T09:01:16Z</time>
      </trkpt>
      <trkpt lat="47.26495" lon="-1.52296">
        <ele>59.751087</ele>
        <time>2022-03-08T09:01:19Z</time>
      </trkpt>
      <trkpt lat="47.265" lon="-1.52293">
        <ele>59.73633</ele>
        <time>2022-03-08T09:01:24Z</time>
      </trkpt>
      <trkpt lat="47.26505" lon="-1.52289">
        <ele>59.697723</ele>
        <time>2022-03-08T09:01:28Z</time>
      </trkpt>
      <trkpt lat="47.26509" lon="-1.52285">
        <ele>59.69047</ele>
        <time>2022-03-08T09:01:32Z</time>
      </trkpt>
      <trkpt lat="47.26514" lon="-1.52282">
        <ele>59.712936</ele>
        <time>2022-03-08T09:01:35Z</time>
      </trkpt>
      <trkpt lat="47.26519" lon="-1.52278">
        <ele>59.826485</ele>
        <time>2022-03-08T09:01:38Z</time>
      </trkpt>
      <trkpt lat="47.26524" lon="-1.52274">
        <ele>59.940887</ele>
        <time>2022-03-08T09:01:42Z</time>
      </trkpt>
      <trkpt lat="47.26529" lon="-1.5227">
        <ele>60.126022</ele>
        <time>2022-03-08T09:01:47Z</time>
      </trkpt>
      <trkpt lat="47.26534" lon="-1.52267">
        <ele>60.398174</ele>
        <time>2022-03-08T09:01:51Z</time>
      </trkpt>
      <trkpt lat="47.26537" lon="-1.52261">
        <ele>60.701782</ele>
        <time>2022-03-08T09:01:55Z</time>
      </trkpt>
      <trkpt lat="47.26539" lon="-1.52254">
        <ele>60.925705</ele>
        <time>2022-03-08T09:01:59Z</time>
      </trkpt>
      <trkpt lat="47.2654" lon="-1.52247">
        <ele>61.021843</ele>
        <time>2022-03-08T09:02:02Z</time>
      </trkpt>
      <trkpt lat="47.26542" lon="-1.52241">
        <ele>61.158882</ele>
        <time>2022-03-08T09:02:05Z</time>
      </trkpt>
      <trkpt lat="47.26543" lon="-1.52235">
        <ele>61.242817</ele>
        <time>2022-03-08T09:02:10Z</time>
      </trkpt>
      <trkpt lat="47.26545" lon="-1.52234">
        <ele>61.262787</ele>
        <time>2022-03-08T09:02:14Z</time>
      </trkpt>
      <trkpt lat="47.26545" lon="-1.52234">
        <ele>61.262787</ele>
        <time>2022-03-08T09:02:14Z</time>
      </trkpt>
      <trkpt lat="47.26546" lon="-1.52227">
        <ele>60.96363</ele>
        <time>2022-03-08T09:02:20Z</time>
      </trkpt>
      <trkpt lat="47.26545" lon="-1.5222">
        <ele>60.66042</ele>
        <time>2022-03-08T09:02:23Z</time>
      </trkpt>
      <trkpt lat="47.26547" lon="-1.52213">
        <ele>60.107845</ele>
        <time>2022-03-08T09:02:28Z</time>
      </trkpt>
      <trkpt lat="47.26547" lon="-1.52206">
        <ele>59.58087</ele>
        <time>2022-03-08T09:02:33Z</time>
      </trkpt>
      <trkpt lat="47.26545" lon="-1.522">
        <ele>59.16076</ele>
        <time>2022-03-08T09:02:37Z</time>
      </trkpt>
      <trkpt lat="47.26542" lon="-1.52192">
        <ele>58.736576</ele>
        <time>2022-03-08T09:02:41Z</time>
      </trkpt>
      <trkpt lat="47.2654" lon="-1.52185">
        <ele>58.464493</ele>
        <time>2022-03-08T09:02:45Z</time>
      </trkpt>
      <trkpt lat="47.26537" lon="-1.52178">
        <ele>58.09709</ele>
        <time>2022-03-08T09:02:50Z</time>
      </trkpt>
      <trkpt lat="47.26535" lon="-1.5217">
        <ele>57.90299</ele>
        <time>2022-03-08T09:02:53Z</time>
      </trkpt>
      <trkpt lat="47.26532" lon="-1.52165">
        <ele>57.67212</ele>
        <time>2022-03-08T09:02:57Z</time>
      </trkpt>
      <trkpt lat="47.26529" lon="-1.52159">
        <ele>57.225807</ele>
        <time>2022-03-08T09:03:03Z</time>
      </trkpt>
      <trkpt lat="47.26528" lon="-1.52156">
        <ele>57.00747</ele>
        <time>2022-03-08T09:03:08Z</time>
      </trkpt>
      <trkpt lat="47.26528" lon="-1.52156">
        <ele>57.00747</ele>
        <time>2022-03-08T09:03:08Z</time>
      </trkpt>
      <trkpt lat="47.26532" lon="-1.52159">
        <ele>57.234825</ele>
        <time>2022-03-08T09:03:35Z</time>
      </trkpt>
      <trkpt lat="47.26534" lon="-1.52166">
        <ele>57.427383</ele>
        <time>2022-03-08T09:03:39Z</time>
      </trkpt>
      <trkpt lat="47.26537" lon="-1.52172">
        <ele>57.773823</ele>
        <time>2022-03-08T09:03:51Z</time>
      </trkpt>
      <trkpt lat="47.26541" lon="-1.52178">
        <ele>57.931973</ele>
        <time>2022-03-08T09:03:58Z</time>
      </trkpt>
      <trkpt lat="47.26543" lon="-1.52186">
        <ele>58.00187</ele>
        <time>2022-03-08T09:04:02Z</time>
      </trkpt>
      <trkpt lat="47.26544" lon="-1.52194">
        <ele>58.083977</ele>
        <time>2022-03-08T09:04:06Z</time>
      </trkpt>
      <trkpt lat="47.26546" lon="-1.52201">
        <ele>58.123646</ele>
        <time>2022-03-08T09:04:09Z</time>
      </trkpt>
      <trkpt lat="47.26549" lon="-1.52207">
        <ele>58.37655</ele>
        <time>2022-03-08T09:04:13Z</time>
      </trkpt>
      <trkpt lat="47.26552" lon="-1.52214">
        <ele>58.93359</ele>
        <time>2022-03-08T09:04:17Z</time>
      </trkpt>
      <trkpt lat="47.26556" lon="-1.5222">
        <ele>59.37818</ele>
        <time>2022-03-08T09:04:21Z</time>
      </trkpt>
      <trkpt lat="47.26558" lon="-1.52227">
        <ele>59.941288</ele>
        <time>2022-03-08T09:04:26Z</time>
      </trkpt>
      <trkpt lat="47.26561" lon="-1.52234">
        <ele>60.31034</ele>
        <time>2022-03-08T09:04:31Z</time>
      </trkpt>
      <trkpt lat="47.26561" lon="-1.52241">
        <ele>60.375385</ele>
        <time>2022-03-08T09:04:34Z</time>
      </trkpt>
      <trkpt lat="47.26563" lon="-1.52249">
        <ele>60.428596</ele>
        <time>2022-03-08T09:04:39Z</time>
      </trkpt>
      <trkpt lat="47.26565" lon="-1.52255">
        <ele>60.342133</ele>
        <time>2022-03-08T09:04:42Z</time>
      </trkpt>
      <trkpt lat="47.26569" lon="-1.52259">
        <ele>60.04201</ele>
        <time>2022-03-08T09:04:46Z</time>
      </trkpt>
      <trkpt lat="47.26573" lon="-1.52265">
        <ele>59.814358</ele>
        <time>2022-03-08T09:04:49Z</time>
      </trkpt>
      <trkpt lat="47.26576" lon="-1.52272">
        <ele>59.54797</ele>
        <time>2022-03-08T09:04:53Z</time>
      </trkpt>
      <trkpt lat="47.26579" lon="-1.52278">
        <ele>59.249424</ele>
        <time>2022-03-08T09:04:57Z</time>
      </trkpt>
      <trkpt lat="47.26581" lon="-1.52285">
        <ele>59.013157</ele>
        <time>2022-03-08T09:05:00Z</time>
      </trkpt>
      <trkpt lat="47.26583" lon="-1.52292">
        <ele>58.67968</ele>
        <time>2022-03-08T09:05:04Z</time>
      </trkpt>
      <trkpt lat="47.26585" lon="-1.52299">
        <ele>58.330097</ele>
        <time>2022-03-08T09:05:09Z</time>
      </trkpt>
      <trkpt lat="47.26587" lon="-1.52306">
        <ele>58.161983</ele>
        <time>2022-03-08T09:05:12Z</time>
      </trkpt>
      <trkpt lat="47.2659" lon="-1.52313">
        <ele>57.78312</ele>
        <time>2022-03-08T09:05:18Z</time>
      </trkpt>
      <trkpt lat="47.2659" lon="-1.52315">
        <ele>57.70259</ele>
        <time>2022-03-08T09:05:23Z</time>
      </trkpt>
      <trkpt lat="47.2659" lon="-1.52315">
        <ele>57.70259</ele>
        <time>2022-03-08T09:05:23Z</time>
      </trkpt>
      <trkpt lat="47.26594" lon="-1.52318">
        <ele>57.392193</ele>
        <time>2022-03-08T09:06:44Z</time>
      </trkpt>
      <trkpt lat="47.26598" lon="-1.52316">
        <ele>57.678123</ele>
        <time>2022-03-08T09:06:49Z</time>
      </trkpt>
      <trkpt lat="47.26603" lon="-1.52312">
        <ele>57.950687</ele>
        <time>2022-03-08T09:06:56Z</time>
      </trkpt>
      <trkpt lat="47.26603" lon="-1.52312">
        <ele>57.950687</ele>
        <time>2022-03-08T09:06:56Z</time>
      </trkpt>
      <trkpt lat="47.26603" lon="-1.52312">
        <ele>57.950687</ele>
        <time>2022-03-08T09:06:56Z</time>
      </trkpt>
      <trkpt lat="47.26606" lon="-1.52309">
        <ele>58.382015</ele>
        <time>2022-03-08T09:07:03Z</time>
      </trkpt>
      <trkpt lat="47.2661" lon="-1.52305">
        <ele>58.600723</ele>
        <time>2022-03-08T09:07:10Z</time>
      </trkpt>
      <trkpt lat="47.26612" lon="-1.52305">
        <ele>58.70949</ele>
        <time>2022-03-08T09:07:14Z</time>
      </trkpt>
      <trkpt lat="47.26612" lon="-1.52305">
        <ele>58.70949</ele>
        <time>2022-03-08T09:07:14Z</time>
      </trkpt>
      <trkpt lat="47.2662" lon="-1.52292">
        <ele>62.26445</ele>
        <time>2022-03-08T09:10:56Z</time>
      </trkpt>
      <trkpt lat="47.26624" lon="-1.52296">
        <ele>62.446407</ele>
        <time>2022-03-08T09:11:00Z</time>
      </trkpt>
      <trkpt lat="47.26627" lon="-1.52301">
        <ele>62.605835</ele>
        <time>2022-03-08T09:11:04Z</time>
      </trkpt>
      <trkpt lat="47.26632" lon="-1.52305">
        <ele>62.796665</ele>
        <time>2022-03-08T09:11:07Z</time>
      </trkpt>
      <trkpt lat="47.26637" lon="-1.52303">
        <ele>62.944546</ele>
        <time>2022-03-08T09:11:10Z</time>
      </trkpt>
      <trkpt lat="47.26642" lon="-1.523">
        <ele>63.04216</ele>
        <time>2022-03-08T09:11:14Z</time>
      </trkpt>
      <trkpt lat="47.26646" lon="-1.52298">
        <ele>63.02938</ele>
        <time>2022-03-08T09:11:17Z</time>
      </trkpt>
      <trkpt lat="47.26651" lon="-1.52299">
        <ele>63.02895</ele>
        <time>2022-03-08T09:11:20Z</time>
      </trkpt>
      <trkpt lat="47.26654" lon="-1.52306">
        <ele>63.053303</ele>
        <time>2022-03-08T09:11:23Z</time>
      </trkpt>
      <trkpt lat="47.26656" lon="-1.52313">
        <ele>63.04657</ele>
        <time>2022-03-08T09:11:26Z</time>
      </trkpt>
      <trkpt lat="47.26661" lon="-1.52319">
        <ele>63.024837</ele>
        <time>2022-03-08T09:11:30Z</time>
      </trkpt>
      <trkpt lat="47.26666" lon="-1.52324">
        <ele>63.00964</ele>
        <time>2022-03-08T09:11:33Z</time>
      </trkpt>
      <trkpt lat="47.26669" lon="-1.52329">
        <ele>62.964615</ele>
        <time>2022-03-08T09:11:36Z</time>
      </trkpt>
      <trkpt lat="47.26672" lon="-1.52334">
        <ele>62.938187</ele>
        <time>2022-03-08T09:11:39Z</time>
      </trkpt>
      <trkpt lat="47.26676" lon="-1.52341">
        <ele>62.853466</ele>
        <time>2022-03-08T09:11:43Z</time>
      </trkpt>
      <trkpt lat="47.26678" lon="-1.52347">
        <ele>62.787476</ele>
        <time>2022-03-08T09:11:46Z</time>
      </trkpt>
      <trkpt lat="47.26679" lon="-1.52354">
        <ele>62.689487</ele>
        <time>2022-03-08T09:11:50Z</time>
      </trkpt>
      <trkpt lat="47.26682" lon="-1.52362">
        <ele>62.602276</ele>
        <time>2022-03-08T09:11:54Z</time>
      </trkpt>
      <trkpt lat="47.26685" lon="-1.52367">
        <ele>62.670166</ele>
        <time>2022-03-08T09:11:58Z</time>
      </trkpt>
      <trkpt lat="47.26688" lon="-1.52374">
        <ele>62.826305</ele>
        <time>2022-03-08T09:12:03Z</time>
      </trkpt>
      <trkpt lat="47.26692" lon="-1.52378">
        <ele>62.937557</ele>
        <time>2022-03-08T09:12:07Z</time>
      </trkpt>
      <trkpt lat="47.26696" lon="-1.52378">
        <ele>63.070644</ele>
        <time>2022-03-08T09:12:11Z</time>
      </trkpt>
      <trkpt lat="47.26701" lon="-1.52381">
        <ele>63.280613</ele>
        <time>2022-03-08T09:12:16Z</time>
      </trkpt>
      <trkpt lat="47.26708" lon="-1.52381">
        <ele>63.506016</ele>
        <time>2022-03-08T09:12:21Z</time>
      </trkpt>
      <trkpt lat="47.26712" lon="-1.52377">
        <ele>63.628258</ele>
        <time>2022-03-08T09:12:24Z</time>
      </trkpt>
      <trkpt lat="47.26717" lon="-1.52377">
        <ele>63.801964</ele>
        <time>2022-03-08T09:12:29Z</time>
      </trkpt>
      <trkpt lat="47.26723" lon="-1.52381">
        <ele>64.07146</ele>
        <time>2022-03-08T09:12:33Z</time>
      </trkpt>
      <trkpt lat="47.26727" lon="-1.52386">
        <ele>64.33836</ele>
        <time>2022-03-08T09:12:38Z</time>
      </trkpt>
      <trkpt lat="47.26731" lon="-1.52392">
        <ele>64.594345</ele>
        <time>2022-03-08T09:12:43Z</time>
      </trkpt>
      <trkpt lat="47.26735" lon="-1.52397">
        <ele>64.764175</ele>
        <time>2022-03-08T09:12:46Z</time>
      </trkpt>
      <trkpt lat="47.26739" lon="-1.52403">
        <ele>64.990486</ele>
        <time>2022-03-08T09:12:50Z</time>
      </trkpt>
      <trkpt lat="47.26742" lon="-1.52409">
        <ele>65.16879</ele>
        <time>2022-03-08T09:12:55Z</time>
      </trkpt>
      <trkpt lat="47.26744" lon="-1.52416">
        <ele>65.057755</ele>
        <time>2022-03-08T09:12:59Z</time>
      </trkpt>
      <trkpt lat="47.26746" lon="-1.52424">
        <ele>64.92038</ele>
        <time>2022-03-08T09:13:04Z</time>
      </trkpt>
      <trkpt lat="47.26751" lon="-1.52427">
        <ele>64.91387</ele>
        <time>2022-03-08T09:13:10Z</time>
      </trkpt>
      <trkpt lat="47.26756" lon="-1.52426">
        <ele>64.99407</ele>
        <time>2022-03-08T09:13:13Z</time>
      </trkpt>
      <trkpt lat="47.2676" lon="-1.52424">
        <ele>65.08071</ele>
        <time>2022-03-08T09:13:16Z</time>
      </trkpt>
      <trkpt lat="47.26765" lon="-1.52427">
        <ele>65.28843</ele>
        <time>2022-03-08T09:13:20Z</time>
      </trkpt>
      <trkpt lat="47.2677" lon="-1.52431">
        <ele>65.59474</ele>
        <time>2022-03-08T09:13:25Z</time>
      </trkpt>
      <trkpt lat="47.26774" lon="-1.52436">
        <ele>65.785545</ele>
        <time>2022-03-08T09:13:28Z</time>
      </trkpt>
      <trkpt lat="47.26778" lon="-1.52439">
        <ele>66.014496</ele>
        <time>2022-03-08T09:13:31Z</time>
      </trkpt>
      <trkpt lat="47.26783" lon="-1.52443">
        <ele>66.34898</ele>
        <time>2022-03-08T09:13:35Z</time>
      </trkpt>
      <trkpt lat="47.26786" lon="-1.52449">
        <ele>66.62778</ele>
        <time>2022-03-08T09:13:39Z</time>
      </trkpt>
      <trkpt lat="47.26789" lon="-1.52455">
        <ele>66.83881</ele>
        <time>2022-03-08T09:13:42Z</time>
      </trkpt>
      <trkpt lat="47.26793" lon="-1.5246">
        <ele>67.09375</ele>
        <time>2022-03-08T09:13:46Z</time>
      </trkpt>
      <trkpt lat="47.26796" lon="-1.52467">
        <ele>67.32049</ele>
        <time>2022-03-08T09:13:51Z</time>
      </trkpt>
      <trkpt lat="47.26801" lon="-1.52472">
        <ele>67.35987</ele>
        <time>2022-03-08T09:13:56Z</time>
      </trkpt>
      <trkpt lat="47.26805" lon="-1.52478">
        <ele>67.36614</ele>
        <time>2022-03-08T09:13:59Z</time>
      </trkpt>
      <trkpt lat="47.26809" lon="-1.52483">
        <ele>67.384384</ele>
        <time>2022-03-08T09:14:03Z</time>
      </trkpt>
      <trkpt lat="47.26807" lon="-1.5249">
        <ele>67.41755</ele>
        <time>2022-03-08T09:14:09Z</time>
      </trkpt>
      <trkpt lat="47.26804" lon="-1.52496">
        <ele>67.51043</ele>
        <time>2022-03-08T09:14:12Z</time>
      </trkpt>
      <trkpt lat="47.268" lon="-1.52501">
        <ele>67.5456</ele>
        <time>2022-03-08T09:14:16Z</time>
      </trkpt>
      <trkpt lat="47.26797" lon="-1.52508">
        <ele>67.53006</ele>
        <time>2022-03-08T09:14:19Z</time>
      </trkpt>
      <trkpt lat="47.26794" lon="-1.52514">
        <ele>67.484856</ele>
        <time>2022-03-08T09:14:22Z</time>
      </trkpt>
      <trkpt lat="47.26791" lon="-1.5252">
        <ele>67.469734</ele>
        <time>2022-03-08T09:14:25Z</time>
      </trkpt>
      <trkpt lat="47.26788" lon="-1.52524">
        <ele>67.46473</ele>
        <time>2022-03-08T09:14:28Z</time>
      </trkpt>
      <trkpt lat="47.26785" lon="-1.52532">
        <ele>67.52333</ele>
        <time>2022-03-08T09:14:33Z</time>
      </trkpt>
      <trkpt lat="47.26783" lon="-1.52537">
        <ele>67.48056</ele>
        <time>2022-03-08T09:14:36Z</time>
      </trkpt>
      <trkpt lat="47.2678" lon="-1.52544">
        <ele>67.53322</ele>
        <time>2022-03-08T09:14:41Z</time>
      </trkpt>
      <trkpt lat="47.26776" lon="-1.5255">
        <ele>67.8055</ele>
        <time>2022-03-08T09:14:45Z</time>
      </trkpt>
      <trkpt lat="47.26773" lon="-1.52556">
        <ele>68.062355</ele>
        <time>2022-03-08T09:14:49Z</time>
      </trkpt>
      <trkpt lat="47.26768" lon="-1.5256">
        <ele>68.28611</ele>
        <time>2022-03-08T09:14:53Z</time>
      </trkpt>
      <trkpt lat="47.26764" lon="-1.52565">
        <ele>68.43224</ele>
        <time>2022-03-08T09:14:56Z</time>
      </trkpt>
      <trkpt lat="47.26762" lon="-1.52571">
        <ele>68.64115</ele>
        <time>2022-03-08T09:15:00Z</time>
      </trkpt>
      <trkpt lat="47.26758" lon="-1.52578">
        <ele>68.84247</ele>
        <time>2022-03-08T09:15:03Z</time>
      </trkpt>
      <trkpt lat="47.26755" lon="-1.52584">
        <ele>69.16222</ele>
        <time>2022-03-08T09:15:07Z</time>
      </trkpt>
      <trkpt lat="47.26752" lon="-1.52588">
        <ele>69.38697</ele>
        <time>2022-03-08T09:15:10Z</time>
      </trkpt>
      <trkpt lat="47.2675" lon="-1.52595">
        <ele>69.57871</ele>
        <time>2022-03-08T09:15:13Z</time>
      </trkpt>
      <trkpt lat="47.26745" lon="-1.52602">
        <ele>69.75953</ele>
        <time>2022-03-08T09:15:18Z</time>
      </trkpt>
      <trkpt lat="47.26743" lon="-1.52608">
        <ele>69.94677</ele>
        <time>2022-03-08T09:15:21Z</time>
      </trkpt>
      <trkpt lat="47.26739" lon="-1.52612">
        <ele>70.09969</ele>
        <time>2022-03-08T09:15:25Z</time>
      </trkpt>
      <trkpt lat="47.26735" lon="-1.52618">
        <ele>70.27183</ele>
        <time>2022-03-08T09:15:29Z</time>
      </trkpt>
      <trkpt lat="47.26732" lon="-1.52624">
        <ele>70.44093</ele>
        <time>2022-03-08T09:15:33Z</time>
      </trkpt>
      <trkpt lat="47.2673" lon="-1.52629">
        <ele>70.48965</ele>
        <time>2022-03-08T09:15:36Z</time>
      </trkpt>
      <trkpt lat="47.26727" lon="-1.52636">
        <ele>70.4206</ele>
        <time>2022-03-08T09:15:40Z</time>
      </trkpt>
      <trkpt lat="47.26727" lon="-1.52644">
        <ele>70.30071</ele>
        <time>2022-03-08T09:15:44Z</time>
      </trkpt>
      <trkpt lat="47.26727" lon="-1.52651">
        <ele>70.207924</ele>
        <time>2022-03-08T09:15:47Z</time>
      </trkpt>
      <trkpt lat="47.26726" lon="-1.52658">
        <ele>70.1861</ele>
        <time>2022-03-08T09:15:50Z</time>
      </trkpt>
      <trkpt lat="47.26724" lon="-1.52664">
        <ele>70.21819</ele>
        <time>2022-03-08T09:15:54Z</time>
      </trkpt>
      <trkpt lat="47.26722" lon="-1.52672">
        <ele>70.19895</ele>
        <time>2022-03-08T09:15:59Z</time>
      </trkpt>
      <trkpt lat="47.26723" lon="-1.52679">
        <ele>70.23376</ele>
        <time>2022-03-08T09:16:03Z</time>
      </trkpt>
      <trkpt lat="47.26724" lon="-1.52686">
        <ele>70.361534</ele>
        <time>2022-03-08T09:16:06Z</time>
      </trkpt>
      <trkpt lat="47.26723" lon="-1.52692">
        <ele>70.588</ele>
        <time>2022-03-08T09:16:09Z</time>
      </trkpt>
      <trkpt lat="47.26721" lon="-1.527">
        <ele>70.81808</ele>
        <time>2022-03-08T09:16:13Z</time>
      </trkpt>
      <trkpt lat="47.26721" lon="-1.52707">
        <ele>71.11693</ele>
        <time>2022-03-08T09:16:18Z</time>
      </trkpt>
      <trkpt lat="47.2672" lon="-1.52714">
        <ele>71.17388</ele>
        <time>2022-03-08T09:16:21Z</time>
      </trkpt>
      <trkpt lat="47.26717" lon="-1.52722">
        <ele>71.134865</ele>
        <time>2022-03-08T09:16:25Z</time>
      </trkpt>
      <trkpt lat="47.26714" lon="-1.52727">
        <ele>71.157196</ele>
        <time>2022-03-08T09:16:29Z</time>
      </trkpt>
      <trkpt lat="47.26714" lon="-1.52734">
        <ele>71.18722</ele>
        <time>2022-03-08T09:16:32Z</time>
      </trkpt>
      <trkpt lat="47.26714" lon="-1.52742">
        <ele>71.38272</ele>
        <time>2022-03-08T09:16:36Z</time>
      </trkpt>
      <trkpt lat="47.26712" lon="-1.52748">
        <ele>71.51614</ele>
        <time>2022-03-08T09:16:40Z</time>
      </trkpt>
      <trkpt lat="47.2671" lon="-1.52755">
        <ele>71.51147</ele>
        <time>2022-03-08T09:16:44Z</time>
      </trkpt>
      <trkpt lat="47.26709" lon="-1.52762">
        <ele>71.522644</ele>
        <time>2022-03-08T09:16:48Z</time>
      </trkpt>
      <trkpt lat="47.26707" lon="-1.52769">
        <ele>71.478165</ele>
        <time>2022-03-08T09:16:51Z</time>
      </trkpt>
      <trkpt lat="47.26706" lon="-1.52776">
        <ele>71.35808</ele>
        <time>2022-03-08T09:16:55Z</time>
      </trkpt>
      <trkpt lat="47.26704" lon="-1.52782">
        <ele>71.24638</ele>
        <time>2022-03-08T09:16:59Z</time>
      </trkpt>
      <trkpt lat="47.26703" lon="-1.52791">
        <ele>70.98655</ele>
        <time>2022-03-08T09:17:04Z</time>
      </trkpt>
      <trkpt lat="47.26702" lon="-1.52799">
        <ele>71.05474</ele>
        <time>2022-03-08T09:17:08Z</time>
      </trkpt>
      <trkpt lat="47.26702" lon="-1.52807">
        <ele>71.192505</ele>
        <time>2022-03-08T09:17:12Z</time>
      </trkpt>
      <trkpt lat="47.26703" lon="-1.52815">
        <ele>71.29758</ele>
        <time>2022-03-08T09:17:16Z</time>
      </trkpt>
      <trkpt lat="47.26702" lon="-1.52822">
        <ele>71.39257</ele>
        <time>2022-03-08T09:17:19Z</time>
      </trkpt>
      <trkpt lat="47.26702" lon="-1.5283">
        <ele>71.463905</ele>
        <time>2022-03-08T09:17:23Z</time>
      </trkpt>
      <trkpt lat="47.26701" lon="-1.52837">
        <ele>71.51267</ele>
        <time>2022-03-08T09:17:27Z</time>
      </trkpt>
      <trkpt lat="47.26699" lon="-1.52845">
        <ele>71.42294</ele>
        <time>2022-03-08T09:17:31Z</time>
      </trkpt>
      <trkpt lat="47.26699" lon="-1.52852">
        <ele>71.37788</ele>
        <time>2022-03-08T09:17:34Z</time>
      </trkpt>
      <trkpt lat="47.26698" lon="-1.52859">
        <ele>71.41468</ele>
        <time>2022-03-08T09:17:38Z</time>
      </trkpt>
      <trkpt lat="47.26696" lon="-1.52867">
        <ele>71.42324</ele>
        <time>2022-03-08T09:17:42Z</time>
      </trkpt>
      <trkpt lat="47.26695" lon="-1.52873">
        <ele>71.4064</ele>
        <time>2022-03-08T09:17:45Z</time>
      </trkpt>
      <trkpt lat="47.26694" lon="-1.52881">
        <ele>71.269424</ele>
        <time>2022-03-08T09:17:49Z</time>
      </trkpt>
      <trkpt lat="47.26693" lon="-1.52888">
        <ele>71.242645</ele>
        <time>2022-03-08T09:17:52Z</time>
      </trkpt>
      <trkpt lat="47.26691" lon="-1.52896">
        <ele>71.25004</ele>
        <time>2022-03-08T09:17:56Z</time>
      </trkpt>
      <trkpt lat="47.26689" lon="-1.52902">
        <ele>71.23231</ele>
        <time>2022-03-08T09:18:00Z</time>
      </trkpt>
      <trkpt lat="47.2669" lon="-1.5291">
        <ele>71.11071</ele>
        <time>2022-03-08T09:18:04Z</time>
      </trkpt>
      <trkpt lat="47.26691" lon="-1.52918">
        <ele>71.12228</ele>
        <time>2022-03-08T09:18:08Z</time>
      </trkpt>
      <trkpt lat="47.26691" lon="-1.52925">
        <ele>71.10089</ele>
        <time>2022-03-08T09:18:11Z</time>
      </trkpt>
      <trkpt lat="47.26691" lon="-1.52932">
        <ele>70.959305</ele>
        <time>2022-03-08T09:18:14Z</time>
      </trkpt>
      <trkpt lat="47.26691" lon="-1.52939">
        <ele>70.90342</ele>
        <time>2022-03-08T09:18:17Z</time>
      </trkpt>
      <trkpt lat="47.26691" lon="-1.52948">
        <ele>71.125206</ele>
        <time>2022-03-08T09:18:21Z</time>
      </trkpt>
      <trkpt lat="47.26688" lon="-1.52956">
        <ele>71.34393</ele>
        <time>2022-03-08T09:18:25Z</time>
      </trkpt>
      <trkpt lat="47.26687" lon="-1.52963">
        <ele>71.50429</ele>
        <time>2022-03-08T09:18:29Z</time>
      </trkpt>
      <trkpt lat="47.26685" lon="-1.52969">
        <ele>71.41521</ele>
        <time>2022-03-08T09:18:33Z</time>
      </trkpt>
      <trkpt lat="47.26683" lon="-1.52975">
        <ele>71.36222</ele>
        <time>2022-03-08T09:18:36Z</time>
      </trkpt>
      <trkpt lat="47.2668" lon="-1.52981">
        <ele>71.213486</ele>
        <time>2022-03-08T09:18:39Z</time>
      </trkpt>
      <trkpt lat="47.26679" lon="-1.52988">
        <ele>70.99265</ele>
        <time>2022-03-08T09:18:43Z</time>
      </trkpt>
      <trkpt lat="47.26677" lon="-1.52997">
        <ele>70.87376</ele>
        <time>2022-03-08T09:18:46Z</time>
      </trkpt>
      <trkpt lat="47.26677" lon="-1.53005">
        <ele>70.87139</ele>
        <time>2022-03-08T09:18:49Z</time>
      </trkpt>
      <trkpt lat="47.26677" lon="-1.53013">
        <ele>70.97455</ele>
        <time>2022-03-08T09:18:52Z</time>
      </trkpt>
      <trkpt lat="47.26675" lon="-1.53019">
        <ele>70.99063</ele>
        <time>2022-03-08T09:18:56Z</time>
      </trkpt>
      <trkpt lat="47.26674" lon="-1.53028">
        <ele>70.957405</ele>
        <time>2022-03-08T09:19:00Z</time>
      </trkpt>
      <trkpt lat="47.26672" lon="-1.53035">
        <ele>70.78785</ele>
        <time>2022-03-08T09:19:04Z</time>
      </trkpt>
      <trkpt lat="47.26671" lon="-1.53042">
        <ele>70.853226</ele>
        <time>2022-03-08T09:19:08Z</time>
      </trkpt>
      <trkpt lat="47.26667" lon="-1.53048">
        <ele>70.94285</ele>
        <time>2022-03-08T09:19:12Z</time>
      </trkpt>
      <trkpt lat="47.26665" lon="-1.53055">
        <ele>70.93765</ele>
        <time>2022-03-08T09:19:15Z</time>
      </trkpt>
      <trkpt lat="47.26663" lon="-1.53061">
        <ele>70.74664</ele>
        <time>2022-03-08T09:19:18Z</time>
      </trkpt>
      <trkpt lat="47.26661" lon="-1.53068">
        <ele>70.360886</ele>
        <time>2022-03-08T09:19:22Z</time>
      </trkpt>
      <trkpt lat="47.26659" lon="-1.53075">
        <ele>70.197205</ele>
        <time>2022-03-08T09:19:26Z</time>
      </trkpt>
      <trkpt lat="47.26655" lon="-1.5308">
        <ele>70.17333</ele>
        <time>2022-03-08T09:19:29Z</time>
      </trkpt>
      <trkpt lat="47.26654" lon="-1.53088">
        <ele>70.14269</ele>
        <time>2022-03-08T09:19:32Z</time>
      </trkpt>
      <trkpt lat="47.26651" lon="-1.53095">
        <ele>70.15097</ele>
        <time>2022-03-08T09:19:36Z</time>
      </trkpt>
      <trkpt lat="47.2665" lon="-1.53102">
        <ele>70.20155</ele>
        <time>2022-03-08T09:19:40Z</time>
      </trkpt>
      <trkpt lat="47.26646" lon="-1.53107">
        <ele>70.30983</ele>
        <time>2022-03-08T09:19:44Z</time>
      </trkpt>
      <trkpt lat="47.26642" lon="-1.53114">
        <ele>70.3973</ele>
        <time>2022-03-08T09:19:48Z</time>
      </trkpt>
      <trkpt lat="47.26641" lon="-1.53121">
        <ele>70.45447</ele>
        <time>2022-03-08T09:19:51Z</time>
      </trkpt>
      <trkpt lat="47.26638" lon="-1.53127">
        <ele>70.355865</ele>
        <time>2022-03-08T09:19:54Z</time>
      </trkpt>
      <trkpt lat="47.2664" lon="-1.53135">
        <ele>70.109344</ele>
        <time>2022-03-08T09:19:57Z</time>
      </trkpt>
      <trkpt lat="47.26642" lon="-1.53142">
        <ele>69.74943</ele>
        <time>2022-03-08T09:20:00Z</time>
      </trkpt>
      <trkpt lat="47.26645" lon="-1.53148">
        <ele>69.411</ele>
        <time>2022-03-08T09:20:03Z</time>
      </trkpt>
      <trkpt lat="47.26647" lon="-1.53156">
        <ele>68.87335</ele>
        <time>2022-03-08T09:20:07Z</time>
      </trkpt>
      <trkpt lat="47.2665" lon="-1.53162">
        <ele>68.434715</ele>
        <time>2022-03-08T09:20:11Z</time>
      </trkpt>
      <trkpt lat="47.26652" lon="-1.53169">
        <ele>68.16522</ele>
        <time>2022-03-08T09:20:14Z</time>
      </trkpt>
      <trkpt lat="47.26654" lon="-1.53175">
        <ele>67.955666</ele>
        <time>2022-03-08T09:20:17Z</time>
      </trkpt>
      <trkpt lat="47.26656" lon="-1.53182">
        <ele>67.6321</ele>
        <time>2022-03-08T09:20:21Z</time>
      </trkpt>
      <trkpt lat="47.26659" lon="-1.53188">
        <ele>67.35679</ele>
        <time>2022-03-08T09:20:24Z</time>
      </trkpt>
      <trkpt lat="47.26661" lon="-1.53194">
        <ele>67.01939</ele>
        <time>2022-03-08T09:20:27Z</time>
      </trkpt>
      <trkpt lat="47.26662" lon="-1.53202">
        <ele>66.68573</ele>
        <time>2022-03-08T09:20:30Z</time>
      </trkpt>
      <trkpt lat="47.26664" lon="-1.53209">
        <ele>66.32529</ele>
        <time>2022-03-08T09:20:34Z</time>
      </trkpt>
      <trkpt lat="47.26668" lon="-1.53215">
        <ele>65.987816</ele>
        <time>2022-03-08T09:20:37Z</time>
      </trkpt>
      <trkpt lat="47.26671" lon="-1.53222">
        <ele>65.329025</ele>
        <time>2022-03-08T09:20:42Z</time>
      </trkpt>
      <trkpt lat="47.26672" lon="-1.53228">
        <ele>65.00594</ele>
        <time>2022-03-08T09:20:44Z</time>
      </trkpt>
      <trkpt lat="47.26674" lon="-1.53235">
        <ele>64.691505</ele>
        <time>2022-03-08T09:20:48Z</time>
      </trkpt>
      <trkpt lat="47.26674" lon="-1.53246">
        <ele>64.021065</ele>
        <time>2022-03-08T09:20:52Z</time>
      </trkpt>
      <trkpt lat="47.26675" lon="-1.53253">
        <ele>63.394566</ele>
        <time>2022-03-08T09:20:56Z</time>
      </trkpt>
      <trkpt lat="47.26675" lon="-1.53261">
        <ele>62.999832</ele>
        <time>2022-03-08T09:20:59Z</time>
      </trkpt>
      <trkpt lat="47.26678" lon="-1.53268">
        <ele>62.366684</ele>
        <time>2022-03-08T09:21:04Z</time>
      </trkpt>
      <trkpt lat="47.26681" lon="-1.53275">
        <ele>62.134956</ele>
        <time>2022-03-08T09:21:07Z</time>
      </trkpt>
      <trkpt lat="47.26683" lon="-1.53282">
        <ele>61.90564</ele>
        <time>2022-03-08T09:21:11Z</time>
      </trkpt>
      <trkpt lat="47.26684" lon="-1.53289">
        <ele>61.554356</ele>
        <time>2022-03-08T09:21:16Z</time>
      </trkpt>
      <trkpt lat="47.26684" lon="-1.53298">
        <ele>61.45534</ele>
        <time>2022-03-08T09:21:19Z</time>
      </trkpt>
      <trkpt lat="47.26684" lon="-1.53306">
        <ele>61.365814</ele>
        <time>2022-03-08T09:21:23Z</time>
      </trkpt>
      <trkpt lat="47.26687" lon="-1.53312">
        <ele>61.3234</ele>
        <time>2022-03-08T09:21:26Z</time>
      </trkpt>
      <trkpt lat="47.26688" lon="-1.5332">
        <ele>61.246193</ele>
        <time>2022-03-08T09:21:29Z</time>
      </trkpt>
      <trkpt lat="47.26689" lon="-1.53327">
        <ele>61.141006</ele>
        <time>2022-03-08T09:21:32Z</time>
      </trkpt>
      <trkpt lat="47.2669" lon="-1.53334">
        <ele>60.975082</ele>
        <time>2022-03-08T09:21:35Z</time>
      </trkpt>
      <trkpt lat="47.2669" lon="-1.53343">
        <ele>60.560375</ele>
        <time>2022-03-08T09:21:40Z</time>
      </trkpt>
      <trkpt lat="47.26691" lon="-1.53352">
        <ele>59.977673</ele>
        <time>2022-03-08T09:21:44Z</time>
      </trkpt>
      <trkpt lat="47.26691" lon="-1.5336">
        <ele>59.484844</ele>
        <time>2022-03-08T09:21:47Z</time>
      </trkpt>
      <trkpt lat="47.26695" lon="-1.53366">
        <ele>58.94594</ele>
        <time>2022-03-08T09:21:51Z</time>
      </trkpt>
      <trkpt lat="47.26696" lon="-1.53374">
        <ele>58.803596</ele>
        <time>2022-03-08T09:21:54Z</time>
      </trkpt>
      <trkpt lat="47.26697" lon="-1.53381">
        <ele>58.783077</ele>
        <time>2022-03-08T09:21:58Z</time>
      </trkpt>
      <trkpt lat="47.26697" lon="-1.53388">
        <ele>58.95317</ele>
        <time>2022-03-08T09:22:01Z</time>
      </trkpt>
      <trkpt lat="47.26697" lon="-1.53395">
        <ele>59.10913</ele>
        <time>2022-03-08T09:22:04Z</time>
      </trkpt>
      <trkpt lat="47.26698" lon="-1.53403">
        <ele>59.08793</ele>
        <time>2022-03-08T09:22:08Z</time>
      </trkpt>
      <trkpt lat="47.267" lon="-1.53411">
        <ele>58.860462</ele>
        <time>2022-03-08T09:22:13Z</time>
      </trkpt>
      <trkpt lat="47.26701" lon="-1.53418">
        <ele>58.61234</ele>
        <time>2022-03-08T09:22:16Z</time>
      </trkpt>
      <trkpt lat="47.26701" lon="-1.53425">
        <ele>58.183964</ele>
        <time>2022-03-08T09:22:21Z</time>
      </trkpt>
      <trkpt lat="47.26703" lon="-1.53432">
        <ele>57.66522</ele>
        <time>2022-03-08T09:22:26Z</time>
      </trkpt>
      <trkpt lat="47.26705" lon="-1.53439">
        <ele>57.19381</ele>
        <time>2022-03-08T09:22:33Z</time>
      </trkpt>
      <trkpt lat="47.26709" lon="-1.53445">
        <ele>56.76433</ele>
        <time>2022-03-08T09:22:40Z</time>
      </trkpt>
      <trkpt lat="47.26708" lon="-1.53456">
        <ele>56.227352</ele>
        <time>2022-03-08T09:22:45Z</time>
      </trkpt>
      <trkpt lat="47.26708" lon="-1.53464">
        <ele>55.75029</ele>
        <time>2022-03-08T09:22:49Z</time>
      </trkpt>
      <trkpt lat="47.2671" lon="-1.53471">
        <ele>55.06928</ele>
        <time>2022-03-08T09:22:55Z</time>
      </trkpt>
      <trkpt lat="47.26711" lon="-1.53477">
        <ele>53.981945</ele>
        <time>2022-03-08T09:23:01Z</time>
      </trkpt>
      <trkpt lat="47.26712" lon="-1.53487">
        <ele>53.023922</ele>
        <time>2022-03-08T09:23:06Z</time>
      </trkpt>
      <trkpt lat="47.26713" lon="-1.53494">
        <ele>51.47235</ele>
        <time>2022-03-08T09:23:14Z</time>
      </trkpt>
      <trkpt lat="47.26713" lon="-1.53503">
        <ele>50.580433</ele>
        <time>2022-03-08T09:23:18Z</time>
      </trkpt>
      <trkpt lat="47.26713" lon="-1.5351">
        <ele>49.90856</ele>
        <time>2022-03-08T09:23:21Z</time>
      </trkpt>
      <trkpt lat="47.26713" lon="-1.53517">
        <ele>48.913284</ele>
        <time>2022-03-08T09:23:25Z</time>
      </trkpt>
      <trkpt lat="47.26715" lon="-1.53524">
        <ele>48.191574</ele>
        <time>2022-03-08T09:23:28Z</time>
      </trkpt>
      <trkpt lat="47.26719" lon="-1.53529">
        <ele>47.33454</ele>
        <time>2022-03-08T09:23:31Z</time>
      </trkpt>
      <trkpt lat="47.26721" lon="-1.53535">
        <ele>46.452248</ele>
        <time>2022-03-08T09:23:34Z</time>
      </trkpt>
      <trkpt lat="47.26722" lon="-1.53542">
        <ele>45.33321</ele>
        <time>2022-03-08T09:23:38Z</time>
      </trkpt>
      <trkpt lat="47.26721" lon="-1.53554">
        <ele>44.730167</ele>
        <time>2022-03-08T09:23:41Z</time>
      </trkpt>
      <trkpt lat="47.26719" lon="-1.53564">
        <ele>44.540913</ele>
        <time>2022-03-08T09:23:43Z</time>
      </trkpt>
      <trkpt lat="47.26717" lon="-1.5357">
        <ele>44.311115</ele>
        <time>2022-03-08T09:23:46Z</time>
      </trkpt>
      <trkpt lat="47.26713" lon="-1.53576">
        <ele>43.939266</ele>
        <time>2022-03-08T09:23:51Z</time>
      </trkpt>
      <trkpt lat="47.26709" lon="-1.53581">
        <ele>43.76979</ele>
        <time>2022-03-08T09:23:55Z</time>
      </trkpt>
      <trkpt lat="47.26704" lon="-1.53584">
        <ele>43.737537</ele>
        <time>2022-03-08T09:23:59Z</time>
      </trkpt>
      <trkpt lat="47.26699" lon="-1.53587">
        <ele>43.77622</ele>
        <time>2022-03-08T09:24:03Z</time>
      </trkpt>
      <trkpt lat="47.26695" lon="-1.5359">
        <ele>43.809402</ele>
        <time>2022-03-08T09:24:06Z</time>
      </trkpt>
      <trkpt lat="47.26691" lon="-1.53593">
        <ele>43.767204</ele>
        <time>2022-03-08T09:24:09Z</time>
      </trkpt>
      <trkpt lat="47.26685" lon="-1.53595">
        <ele>43.71697</ele>
        <time>2022-03-08T09:24:12Z</time>
      </trkpt>
      <trkpt lat="47.26681" lon="-1.53597">
        <ele>43.626026</ele>
        <time>2022-03-08T09:24:16Z</time>
      </trkpt>
      <trkpt lat="47.26676" lon="-1.53597">
        <ele>43.6583</ele>
        <time>2022-03-08T09:24:20Z</time>
      </trkpt>
      <trkpt lat="47.2667" lon="-1.536">
        <ele>43.85562</ele>
        <time>2022-03-08T09:24:25Z</time>
      </trkpt>
      <trkpt lat="47.26665" lon="-1.53602">
        <ele>44.038017</ele>
        <time>2022-03-08T09:24:28Z</time>
      </trkpt>
      <trkpt lat="47.26661" lon="-1.53602">
        <ele>44.218704</ele>
        <time>2022-03-08T09:24:32Z</time>
      </trkpt>
      <trkpt lat="47.26655" lon="-1.53602">
        <ele>44.4317</ele>
        <time>2022-03-08T09:24:36Z</time>
      </trkpt>
      <trkpt lat="47.2665" lon="-1.53604">
        <ele>44.714447</ele>
        <time>2022-03-08T09:24:40Z</time>
      </trkpt>
      <trkpt lat="47.26644" lon="-1.53606">
        <ele>44.905228</ele>
        <time>2022-03-08T09:24:44Z</time>
      </trkpt>
      <trkpt lat="47.26639" lon="-1.53606">
        <ele>45.1085</ele>
        <time>2022-03-08T09:24:49Z</time>
      </trkpt>
      <trkpt lat="47.26634" lon="-1.53606">
        <ele>45.24684</ele>
        <time>2022-03-08T09:24:53Z</time>
      </trkpt>
      <trkpt lat="47.26631" lon="-1.53604">
        <ele>45.52307</ele>
        <time>2022-03-08T09:24:59Z</time>
      </trkpt>
      <trkpt lat="47.26631" lon="-1.53604">
        <ele>45.52307</ele>
        <time>2022-03-08T09:24:59Z</time>
      </trkpt>
      <trkpt lat="47.26622" lon="-1.53604">
        <ele>46.163105</ele>
        <time>2022-03-08T09:25:06Z</time>
      </trkpt>
      <trkpt lat="47.26615" lon="-1.53604">
        <ele>46.525284</ele>
        <time>2022-03-08T09:25:11Z</time>
      </trkpt>
      <trkpt lat="47.2661" lon="-1.53603">
        <ele>46.775986</ele>
        <time>2022-03-08T09:25:15Z</time>
      </trkpt>
      <trkpt lat="47.26605" lon="-1.53601">
        <ele>46.998856</ele>
        <time>2022-03-08T09:25:19Z</time>
      </trkpt>
      <trkpt lat="47.26601" lon="-1.53601">
        <ele>47.18573</ele>
        <time>2022-03-08T09:25:23Z</time>
      </trkpt>
      <trkpt lat="47.26593" lon="-1.53598">
        <ele>46.990105</ele>
        <time>2022-03-08T09:25:31Z</time>
      </trkpt>
      <trkpt lat="47.2659" lon="-1.53594">
        <ele>46.84956</ele>
        <time>2022-03-08T09:25:36Z</time>
      </trkpt>
      <trkpt lat="47.2659" lon="-1.53594">
        <ele>46.697178</ele>
        <time>2022-03-08T09:25:42Z</time>
      </trkpt>
      <trkpt lat="47.2659" lon="-1.53594">
        <ele>46.697178</ele>
        <time>2022-03-08T09:25:42Z</time>
      </trkpt>
      <trkpt lat="47.26579" lon="-1.53583">
        <ele>46.92047</ele>
        <time>2022-03-08T09:26:20Z</time>
      </trkpt>
      <trkpt lat="47.26574" lon="-1.5358">
        <ele>46.471497</ele>
        <time>2022-03-08T09:26:26Z</time>
      </trkpt>
      <trkpt lat="47.26569" lon="-1.53574">
        <ele>45.85499</ele>
        <time>2022-03-08T09:26:32Z</time>
      </trkpt>
      <trkpt lat="47.26564" lon="-1.53571">
        <ele>45.645996</ele>
        <time>2022-03-08T09:26:37Z</time>
      </trkpt>
      <trkpt lat="47.26559" lon="-1.53568">
        <ele>46.063164</ele>
        <time>2022-03-08T09:26:45Z</time>
      </trkpt>
      <trkpt lat="47.26555" lon="-1.53563">
        <ele>46.76897</ele>
        <time>2022-03-08T09:26:52Z</time>
      </trkpt>
      <trkpt lat="47.26547" lon="-1.53559">
        <ele>47.168385</ele>
        <time>2022-03-08T09:26:57Z</time>
      </trkpt>
      <trkpt lat="47.26542" lon="-1.53556">
        <ele>47.43215</ele>
        <time>2022-03-08T09:27:00Z</time>
      </trkpt>
      <trkpt lat="47.26537" lon="-1.53554">
        <ele>47.6807</ele>
        <time>2022-03-08T09:27:04Z</time>
      </trkpt>
      <trkpt lat="47.26531" lon="-1.53552">
        <ele>47.917484</ele>
        <time>2022-03-08T09:27:08Z</time>
      </trkpt>
      <trkpt lat="47.26526" lon="-1.53551">
        <ele>48.036438</ele>
        <time>2022-03-08T09:27:10Z</time>
      </trkpt>
      <trkpt lat="47.2652" lon="-1.53549">
        <ele>48.343983</ele>
        <time>2022-03-08T09:27:14Z</time>
      </trkpt>
      <trkpt lat="47.26514" lon="-1.53548">
        <ele>48.656487</ele>
        <time>2022-03-08T09:27:17Z</time>
      </trkpt>
      <trkpt lat="47.2651" lon="-1.53547">
        <ele>48.97054</ele>
        <time>2022-03-08T09:27:20Z</time>
      </trkpt>
      <trkpt lat="47.26504" lon="-1.53546">
        <ele>49.254753</ele>
        <time>2022-03-08T09:27:23Z</time>
      </trkpt>
      <trkpt lat="47.26499" lon="-1.53547">
        <ele>49.5851</ele>
        <time>2022-03-08T09:27:27Z</time>
      </trkpt>
      <trkpt lat="47.26494" lon="-1.53546">
        <ele>49.857914</ele>
        <time>2022-03-08T09:27:32Z</time>
      </trkpt>
      <trkpt lat="47.26489" lon="-1.53542">
        <ele>50.061348</ele>
        <time>2022-03-08T09:27:36Z</time>
      </trkpt>
      <trkpt lat="47.26483" lon="-1.53542">
        <ele>50.27469</ele>
        <time>2022-03-08T09:27:41Z</time>
      </trkpt>
      <trkpt lat="47.26478" lon="-1.5354">
        <ele>50.342213</ele>
        <time>2022-03-08T09:27:45Z</time>
      </trkpt>
      <trkpt lat="47.26474" lon="-1.5354">
        <ele>50.389946</ele>
        <time>2022-03-08T09:27:47Z</time>
      </trkpt>
      <trkpt lat="47.26468" lon="-1.5354">
        <ele>50.416817</ele>
        <time>2022-03-08T09:27:50Z</time>
      </trkpt>
      <trkpt lat="47.26463" lon="-1.53537">
        <ele>50.445587</ele>
        <time>2022-03-08T09:27:55Z</time>
      </trkpt>
      <trkpt lat="47.26458" lon="-1.53537">
        <ele>50.377144</ele>
        <time>2022-03-08T09:27:59Z</time>
      </trkpt>
      <trkpt lat="47.26455" lon="-1.53542">
        <ele>50.370296</ele>
        <time>2022-03-08T09:28:02Z</time>
      </trkpt>
      <trkpt lat="47.26452" lon="-1.53546">
        <ele>50.431747</ele>
        <time>2022-03-08T09:28:05Z</time>
      </trkpt>
      <trkpt lat="47.26447" lon="-1.5355">
        <ele>50.51282</ele>
        <time>2022-03-08T09:28:09Z</time>
      </trkpt>
      <trkpt lat="47.26442" lon="-1.53555">
        <ele>50.489445</ele>
        <time>2022-03-08T09:28:12Z</time>
      </trkpt>
      <trkpt lat="47.26437" lon="-1.53559">
        <ele>50.294437</ele>
        <time>2022-03-08T09:28:16Z</time>
      </trkpt>
      <trkpt lat="47.26432" lon="-1.53563">
        <ele>50.064186</ele>
        <time>2022-03-08T09:28:19Z</time>
      </trkpt>
      <trkpt lat="47.26427" lon="-1.53565">
        <ele>49.700203</ele>
        <time>2022-03-08T09:28:23Z</time>
      </trkpt>
      <trkpt lat="47.26423" lon="-1.53566">
        <ele>49.428173</ele>
        <time>2022-03-08T09:28:26Z</time>
      </trkpt>
      <trkpt lat="47.26418" lon="-1.53565">
        <ele>48.98482</ele>
        <time>2022-03-08T09:28:31Z</time>
      </trkpt>
      <trkpt lat="47.26412" lon="-1.53563">
        <ele>48.43466</ele>
        <time>2022-03-08T09:28:36Z</time>
      </trkpt>
      <trkpt lat="47.26406" lon="-1.53563">
        <ele>48.040085</ele>
        <time>2022-03-08T09:28:39Z</time>
      </trkpt>
      <trkpt lat="47.264" lon="-1.53564">
        <ele>47.716675</ele>
        <time>2022-03-08T09:28:42Z</time>
      </trkpt>
      <trkpt lat="47.26395" lon="-1.53565">
        <ele>47.364685</ele>
        <time>2022-03-08T09:28:46Z</time>
      </trkpt>
      <trkpt lat="47.26389" lon="-1.53567">
        <ele>46.979774</ele>
        <time>2022-03-08T09:28:50Z</time>
      </trkpt>
      <trkpt lat="47.26383" lon="-1.53567">
        <ele>46.524063</ele>
        <time>2022-03-08T09:28:55Z</time>
      </trkpt>
      <trkpt lat="47.26377" lon="-1.53566">
        <ele>46.297997</ele>
        <time>2022-03-08T09:28:58Z</time>
      </trkpt>
      <trkpt lat="47.26371" lon="-1.53566">
        <ele>46.139328</ele>
        <time>2022-03-08T09:29:01Z</time>
      </trkpt>
      <trkpt lat="47.26366" lon="-1.53564">
        <ele>46.035473</ele>
        <time>2022-03-08T09:29:05Z</time>
      </trkpt>
      <trkpt lat="47.2636" lon="-1.53564">
        <ele>46.13468</ele>
        <time>2022-03-08T09:29:10Z</time>
      </trkpt>
      <trkpt lat="47.26357" lon="-1.5356">
        <ele>46.321064</ele>
        <time>2022-03-08T09:29:15Z</time>
      </trkpt>
      <trkpt lat="47.26354" lon="-1.53552">
        <ele>46.47544</ele>
        <time>2022-03-08T09:29:19Z</time>
      </trkpt>
      <trkpt lat="47.2635" lon="-1.53547">
        <ele>46.69482</ele>
        <time>2022-03-08T09:29:23Z</time>
      </trkpt>
      <trkpt lat="47.26346" lon="-1.53542">
        <ele>46.905968</ele>
        <time>2022-03-08T09:29:27Z</time>
      </trkpt>
      <trkpt lat="47.26343" lon="-1.53536">
        <ele>47.26805</ele>
        <time>2022-03-08T09:29:31Z</time>
      </trkpt>
      <trkpt lat="47.26338" lon="-1.53535">
        <ele>47.747494</ele>
        <time>2022-03-08T09:29:35Z</time>
      </trkpt>
      <trkpt lat="47.26335" lon="-1.53529">
        <ele>48.24999</ele>
        <time>2022-03-08T09:29:38Z</time>
      </trkpt>
      <trkpt lat="47.26333" lon="-1.53523">
        <ele>48.930744</ele>
        <time>2022-03-08T09:29:42Z</time>
      </trkpt>
      <trkpt lat="47.26331" lon="-1.53517">
        <ele>49.45285</ele>
        <time>2022-03-08T09:29:45Z</time>
      </trkpt>
      <trkpt lat="47.26328" lon="-1.5351">
        <ele>50.23123</ele>
        <time>2022-03-08T09:29:48Z</time>
      </trkpt>
      <trkpt lat="47.26326" lon="-1.53503">
        <ele>51.18613</ele>
        <time>2022-03-08T09:29:52Z</time>
      </trkpt>
      <trkpt lat="47.26327" lon="-1.53496">
        <ele>52.165173</ele>
        <time>2022-03-08T09:29:57Z</time>
      </trkpt>
      <trkpt lat="47.26327" lon="-1.53489">
        <ele>52.970142</ele>
        <time>2022-03-08T09:30:01Z</time>
      </trkpt>
      <trkpt lat="47.26328" lon="-1.53481">
        <ele>54.113155</ele>
        <time>2022-03-08T09:30:06Z</time>
      </trkpt>
      <trkpt lat="47.26331" lon="-1.53477">
        <ele>55.559273</ele>
        <time>2022-03-08T09:30:14Z</time>
      </trkpt>
      <trkpt lat="47.26332" lon="-1.5347">
        <ele>56.200447</ele>
        <time>2022-03-08T09:30:17Z</time>
      </trkpt>
      <trkpt lat="47.26332" lon="-1.53462">
        <ele>57.0031</ele>
        <time>2022-03-08T09:30:21Z</time>
      </trkpt>
      <trkpt lat="47.26333" lon="-1.53455">
        <ele>57.622494</ele>
        <time>2022-03-08T09:30:24Z</time>
      </trkpt>
      <trkpt lat="47.26333" lon="-1.53447">
        <ele>58.232677</ele>
        <time>2022-03-08T09:30:28Z</time>
      </trkpt>
      <trkpt lat="47.26333" lon="-1.5344">
        <ele>58.571903</ele>
        <time>2022-03-08T09:30:32Z</time>
      </trkpt>
      <trkpt lat="47.26332" lon="-1.53432">
        <ele>58.83997</ele>
        <time>2022-03-08T09:30:36Z</time>
      </trkpt>
      <trkpt lat="47.26332" lon="-1.53425">
        <ele>59.08812</ele>
        <time>2022-03-08T09:30:42Z</time>
      </trkpt>
      <trkpt lat="47.2633" lon="-1.53418">
        <ele>59.4623</ele>
        <time>2022-03-08T09:30:47Z</time>
      </trkpt>
      <trkpt lat="47.26329" lon="-1.5341">
        <ele>59.570232</ele>
        <time>2022-03-08T09:30:50Z</time>
      </trkpt>
      <trkpt lat="47.26327" lon="-1.53403">
        <ele>59.725273</ele>
        <time>2022-03-08T09:30:53Z</time>
      </trkpt>
      <trkpt lat="47.26327" lon="-1.53394">
        <ele>59.924477</ele>
        <time>2022-03-08T09:30:57Z</time>
      </trkpt>
      <trkpt lat="47.26326" lon="-1.53386">
        <ele>60.045418</ele>
        <time>2022-03-08T09:31:02Z</time>
      </trkpt>
      <trkpt lat="47.26325" lon="-1.53379">
        <ele>60.136147</ele>
        <time>2022-03-08T09:31:06Z</time>
      </trkpt>
      <trkpt lat="47.26323" lon="-1.53369">
        <ele>60.16368</ele>
        <time>2022-03-08T09:31:10Z</time>
      </trkpt>
      <trkpt lat="47.26323" lon="-1.53359">
        <ele>60.44532</ele>
        <time>2022-03-08T09:31:15Z</time>
      </trkpt>
      <trkpt lat="47.26322" lon="-1.53352">
        <ele>60.67646</ele>
        <time>2022-03-08T09:31:18Z</time>
      </trkpt>
      <trkpt lat="47.26322" lon="-1.53344">
        <ele>60.865314</ele>
        <time>2022-03-08T09:31:21Z</time>
      </trkpt>
      <trkpt lat="47.26322" lon="-1.53336">
        <ele>61.215076</ele>
        <time>2022-03-08T09:31:28Z</time>
      </trkpt>
      <trkpt lat="47.26323" lon="-1.53328">
        <ele>61.460552</ele>
        <time>2022-03-08T09:31:32Z</time>
      </trkpt>
      <trkpt lat="47.26324" lon="-1.5332">
        <ele>61.668236</ele>
        <time>2022-03-08T09:31:37Z</time>
      </trkpt>
      <trkpt lat="47.26324" lon="-1.53313">
        <ele>61.867104</ele>
        <time>2022-03-08T09:31:41Z</time>
      </trkpt>
      <trkpt lat="47.26324" lon="-1.53306">
        <ele>62.117916</ele>
        <time>2022-03-08T09:31:47Z</time>
      </trkpt>
      <trkpt lat="47.26324" lon="-1.53299">
        <ele>62.26253</ele>
        <time>2022-03-08T09:31:50Z</time>
      </trkpt>
      <trkpt lat="47.26324" lon="-1.53292">
        <ele>62.311993</ele>
        <time>2022-03-08T09:31:54Z</time>
      </trkpt>
      <trkpt lat="47.26323" lon="-1.53284">
        <ele>62.22282</ele>
        <time>2022-03-08T09:31:58Z</time>
      </trkpt>
      <trkpt lat="47.26321" lon="-1.53278">
        <ele>62.171856</ele>
        <time>2022-03-08T09:32:04Z</time>
      </trkpt>
      <trkpt lat="47.26319" lon="-1.53271">
        <ele>62.12261</ele>
        <time>2022-03-08T09:32:10Z</time>
      </trkpt>
      <trkpt lat="47.26315" lon="-1.53268">
        <ele>61.8999</ele>
        <time>2022-03-08T09:32:15Z</time>
      </trkpt>
      <trkpt lat="47.26308" lon="-1.53261">
        <ele>61.702293</ele>
        <time>2022-03-08T09:32:22Z</time>
      </trkpt>
      <trkpt lat="47.26305" lon="-1.53256">
        <ele>61.653755</ele>
        <time>2022-03-08T09:32:26Z</time>
      </trkpt>
      <trkpt lat="47.26302" lon="-1.53249">
        <ele>61.803326</ele>
        <time>2022-03-08T09:32:31Z</time>
      </trkpt>
      <trkpt lat="47.26299" lon="-1.53243">
        <ele>62.075195</ele>
        <time>2022-03-08T09:32:35Z</time>
      </trkpt>
      <trkpt lat="47.26298" lon="-1.53241">
        <ele>62.394436</ele>
        <time>2022-03-08T09:32:41Z</time>
      </trkpt>
      <trkpt lat="47.26298" lon="-1.53241">
        <ele>62.394436</ele>
        <time>2022-03-08T09:32:41Z</time>
      </trkpt>
      <trkpt lat="47.26297" lon="-1.53235">
        <ele>62.145428</ele>
        <time>2022-03-08T09:33:02Z</time>
      </trkpt>
      <trkpt lat="47.26295" lon="-1.53228">
        <ele>61.96957</ele>
        <time>2022-03-08T09:33:11Z</time>
      </trkpt>
      <trkpt lat="47.26295" lon="-1.53228">
        <ele>61.96957</ele>
        <time>2022-03-08T09:33:11Z</time>
      </trkpt>
      <trkpt lat="47.26295" lon="-1.53228">
        <ele>61.96957</ele>
        <time>2022-03-08T09:33:11Z</time>
      </trkpt>
      <trkpt lat="47.26294" lon="-1.53217">
        <ele>61.71169</ele>
        <time>2022-03-08T09:33:56Z</time>
      </trkpt>
      <trkpt lat="47.26294" lon="-1.5321">
        <ele>61.76466</ele>
        <time>2022-03-08T09:34:00Z</time>
      </trkpt>
      <trkpt lat="47.26294" lon="-1.53201">
        <ele>61.8212</ele>
        <time>2022-03-08T09:34:04Z</time>
      </trkpt>
      <trkpt lat="47.26298" lon="-1.53195">
        <ele>61.865665</ele>
        <time>2022-03-08T09:34:08Z</time>
      </trkpt>
      <trkpt lat="47.26299" lon="-1.53188">
        <ele>61.921516</ele>
        <time>2022-03-08T09:34:12Z</time>
      </trkpt>
      <trkpt lat="47.26297" lon="-1.53181">
        <ele>61.956017</ele>
        <time>2022-03-08T09:34:17Z</time>
      </trkpt>
      <trkpt lat="47.26292" lon="-1.53178">
        <ele>61.80816</ele>
        <time>2022-03-08T09:34:22Z</time>
      </trkpt>
      <trkpt lat="47.26288" lon="-1.53176">
        <ele>61.66151</ele>
        <time>2022-03-08T09:34:25Z</time>
      </trkpt>
      <trkpt lat="47.26284" lon="-1.53174">
        <ele>61.404945</ele>
        <time>2022-03-08T09:34:29Z</time>
      </trkpt>
      <trkpt lat="47.26279" lon="-1.53171">
        <ele>61.170048</ele>
        <time>2022-03-08T09:34:33Z</time>
      </trkpt>
      <trkpt lat="47.26275" lon="-1.53169">
        <ele>61.028385</ele>
        <time>2022-03-08T09:34:36Z</time>
      </trkpt>
      <trkpt lat="47.2627" lon="-1.53167">
        <ele>60.78534</ele>
        <time>2022-03-08T09:34:42Z</time>
      </trkpt>
      <trkpt lat="47.26265" lon="-1.53163">
        <ele>60.53529</ele>
        <time>2022-03-08T09:34:48Z</time>
      </trkpt>
      <trkpt lat="47.2626" lon="-1.5316">
        <ele>60.310745</ele>
        <time>2022-03-08T09:34:52Z</time>
      </trkpt>
      <trkpt lat="47.26257" lon="-1.53156">
        <ele>60.001972</ele>
        <time>2022-03-08T09:34:55Z</time>
      </trkpt>
      <trkpt lat="47.26253" lon="-1.53149">
        <ele>59.401756</ele>
        <time>2022-03-08T09:35:00Z</time>
      </trkpt>
      <trkpt lat="47.26248" lon="-1.53144">
        <ele>58.92573</ele>
        <time>2022-03-08T09:35:05Z</time>
      </trkpt>
      <trkpt lat="47.26247" lon="-1.53137">
        <ele>58.46978</ele>
        <time>2022-03-08T09:35:10Z</time>
      </trkpt>
      <trkpt lat="47.26247" lon="-1.5313">
        <ele>58.0561</ele>
        <time>2022-03-08T09:35:14Z</time>
      </trkpt>
      <trkpt lat="47.26247" lon="-1.53122">
        <ele>57.725628</ele>
        <time>2022-03-08T09:35:17Z</time>
      </trkpt>
      <trkpt lat="47.26247" lon="-1.53114">
        <ele>57.34569</ele>
        <time>2022-03-08T09:35:21Z</time>
      </trkpt>
      <trkpt lat="47.26248" lon="-1.53107">
        <ele>56.94931</ele>
        <time>2022-03-08T09:35:26Z</time>
      </trkpt>
      <trkpt lat="47.26251" lon="-1.53102">
        <ele>56.555737</ele>
        <time>2022-03-08T09:35:34Z</time>
      </trkpt>
      <trkpt lat="47.26254" lon="-1.53098">
        <ele>56.372604</ele>
        <time>2022-03-08T09:35:40Z</time>
      </trkpt>
      <trkpt lat="47.26254" lon="-1.53098">
        <ele>56.372604</ele>
        <time>2022-03-08T09:35:40Z</time>
      </trkpt>
      <trkpt lat="47.26259" lon="-1.53095">
        <ele>55.03717</ele>
        <time>2022-03-08T09:36:31Z</time>
      </trkpt>
      <trkpt lat="47.2626" lon="-1.53091">
        <ele>54.863796</ele>
        <time>2022-03-08T09:36:41Z</time>
      </trkpt>
      <trkpt lat="47.2626" lon="-1.53091">
        <ele>54.863796</ele>
        <time>2022-03-08T09:36:41Z</time>
      </trkpt>
      <trkpt lat="47.26268" lon="-1.53092">
        <ele>54.77606</ele>
        <time>2022-03-08T09:36:57Z</time>
      </trkpt>
      <trkpt lat="47.26268" lon="-1.53092">
        <ele>54.75316</ele>
        <time>2022-03-08T09:36:59Z</time>
      </trkpt>
      <trkpt lat="47.26268" lon="-1.53092">
        <ele>54.75316</ele>
        <time>2022-03-08T09:36:59Z</time>
      </trkpt>
      <trkpt lat="47.26262" lon="-1.53092">
        <ele>53.925236</ele>
        <time>2022-03-08T09:38:02Z</time>
      </trkpt>
      <trkpt lat="47.26257" lon="-1.5309">
        <ele>53.98742</ele>
        <time>2022-03-08T09:38:05Z</time>
      </trkpt>
      <trkpt lat="47.26256" lon="-1.5309">
        <ele>54.016228</ele>
        <time>2022-03-08T09:38:09Z</time>
      </trkpt>
      <trkpt lat="47.26256" lon="-1.5309">
        <ele>54.016228</ele>
        <time>2022-03-08T09:38:09Z</time>
      </trkpt>
      <trkpt lat="47.2625" lon="-1.53092">
        <ele>54.027718</ele>
        <time>2022-03-08T09:38:21Z</time>
      </trkpt>
      <trkpt lat="47.26245" lon="-1.53094">
        <ele>54.004963</ele>
        <time>2022-03-08T09:38:24Z</time>
      </trkpt>
      <trkpt lat="47.26241" lon="-1.53098">
        <ele>53.94546</ele>
        <time>2022-03-08T09:38:28Z</time>
      </trkpt>
      <trkpt lat="47.26237" lon="-1.53103">
        <ele>53.846416</ele>
        <time>2022-03-08T09:38:32Z</time>
      </trkpt>
      <trkpt lat="47.26234" lon="-1.53108">
        <ele>53.727528</ele>
        <time>2022-03-08T09:38:37Z</time>
      </trkpt>
      <trkpt lat="47.26232" lon="-1.53115">
        <ele>53.6774</ele>
        <time>2022-03-08T09:38:39Z</time>
      </trkpt>
      <trkpt lat="47.26229" lon="-1.5312">
        <ele>53.530556</ele>
        <time>2022-03-08T09:38:42Z</time>
      </trkpt>
      <trkpt lat="47.26225" lon="-1.53125">
        <ele>53.212822</ele>
        <time>2022-03-08T09:38:49Z</time>
      </trkpt>
      <trkpt lat="47.2622" lon="-1.53127">
        <ele>52.9672</ele>
        <time>2022-03-08T09:38:54Z</time>
      </trkpt>
      <trkpt lat="47.26215" lon="-1.53127">
        <ele>52.738625</ele>
        <time>2022-03-08T09:38:57Z</time>
      </trkpt>
      <trkpt lat="47.26212" lon="-1.53129">
        <ele>52.565224</ele>
        <time>2022-03-08T09:39:03Z</time>
      </trkpt>
      <trkpt lat="47.26212" lon="-1.53129">
        <ele>52.565224</ele>
        <time>2022-03-08T09:39:03Z</time>
      </trkpt>
      <trkpt lat="47.26204" lon="-1.53143">
        <ele>51.178993</ele>
        <time>2022-03-08T09:39:33Z</time>
      </trkpt>
      <trkpt lat="47.26202" lon="-1.53153">
        <ele>50.519775</ele>
        <time>2022-03-08T09:39:38Z</time>
      </trkpt>
      <trkpt lat="47.26201" lon="-1.53161">
        <ele>50.154484</ele>
        <time>2022-03-08T09:39:41Z</time>
      </trkpt>
      <trkpt lat="47.26199" lon="-1.53169">
        <ele>49.640343</ele>
        <time>2022-03-08T09:39:45Z</time>
      </trkpt>
      <trkpt lat="47.26196" lon="-1.53177">
        <ele>49.267338</ele>
        <time>2022-03-08T09:39:48Z</time>
      </trkpt>
      <trkpt lat="47.26194" lon="-1.53183">
        <ele>48.802826</ele>
        <time>2022-03-08T09:39:51Z</time>
      </trkpt>
      <trkpt lat="47.26192" lon="-1.53189">
        <ele>48.163708</ele>
        <time>2022-03-08T09:39:55Z</time>
      </trkpt>
      <trkpt lat="47.26188" lon="-1.53194">
        <ele>47.76337</ele>
        <time>2022-03-08T09:39:58Z</time>
      </trkpt>
      <trkpt lat="47.26185" lon="-1.532">
        <ele>47.478397</ele>
        <time>2022-03-08T09:40:01Z</time>
      </trkpt>
      <trkpt lat="47.26181" lon="-1.53208">
        <ele>47.206955</ele>
        <time>2022-03-08T09:40:04Z</time>
      </trkpt>
      <trkpt lat="47.26179" lon="-1.53214">
        <ele>47.034676</ele>
        <time>2022-03-08T09:40:06Z</time>
      </trkpt>
      <trkpt lat="47.26175" lon="-1.5322">
        <ele>46.803425</ele>
        <time>2022-03-08T09:40:09Z</time>
      </trkpt>
      <trkpt lat="47.2617" lon="-1.53226">
        <ele>46.594734</ele>
        <time>2022-03-08T09:40:12Z</time>
      </trkpt>
      <trkpt lat="47.26166" lon="-1.5323">
        <ele>46.466736</ele>
        <time>2022-03-08T09:40:15Z</time>
      </trkpt>
      <trkpt lat="47.26162" lon="-1.53234">
        <ele>46.412086</ele>
        <time>2022-03-08T09:40:18Z</time>
      </trkpt>
      <trkpt lat="47.26157" lon="-1.53239">
        <ele>46.33551</ele>
        <time>2022-03-08T09:40:21Z</time>
      </trkpt>
      <trkpt lat="47.26153" lon="-1.53246">
        <ele>46.303833</ele>
        <time>2022-03-08T09:40:24Z</time>
      </trkpt>
      <trkpt lat="47.26148" lon="-1.53255">
        <ele>46.15567</ele>
        <time>2022-03-08T09:40:28Z</time>
      </trkpt>
      <trkpt lat="47.26147" lon="-1.53261">
        <ele>46.026146</ele>
        <time>2022-03-08T09:40:31Z</time>
      </trkpt>
      <trkpt lat="47.26145" lon="-1.53269">
        <ele>45.920452</ele>
        <time>2022-03-08T09:40:34Z</time>
      </trkpt>
      <trkpt lat="47.26143" lon="-1.53277">
        <ele>45.82257</ele>
        <time>2022-03-08T09:40:37Z</time>
      </trkpt>
      <trkpt lat="47.26142" lon="-1.53285">
        <ele>45.683075</ele>
        <time>2022-03-08T09:40:40Z</time>
      </trkpt>
      <trkpt lat="47.26143" lon="-1.53293">
        <ele>45.550632</ele>
        <time>2022-03-08T09:40:43Z</time>
      </trkpt>
      <trkpt lat="47.26143" lon="-1.53304">
        <ele>45.35502</ele>
        <time>2022-03-08T09:40:47Z</time>
      </trkpt>
      <trkpt lat="47.26143" lon="-1.53311">
        <ele>45.212727</ele>
        <time>2022-03-08T09:40:50Z</time>
      </trkpt>
      <trkpt lat="47.26144" lon="-1.53318">
        <ele>45.03888</ele>
        <time>2022-03-08T09:40:53Z</time>
      </trkpt>
      <trkpt lat="47.26146" lon="-1.53328">
        <ele>44.90518</ele>
        <time>2022-03-08T09:40:56Z</time>
      </trkpt>
      <trkpt lat="47.26148" lon="-1.53336">
        <ele>44.804153</ele>
        <time>2022-03-08T09:40:59Z</time>
      </trkpt>
      <trkpt lat="47.26149" lon="-1.53343">
        <ele>44.776432</ele>
        <time>2022-03-08T09:41:02Z</time>
      </trkpt>
      <trkpt lat="47.26151" lon="-1.53351">
        <ele>44.881752</ele>
        <time>2022-03-08T09:41:05Z</time>
      </trkpt>
      <trkpt lat="47.26156" lon="-1.53361">
        <ele>45.087257</ele>
        <time>2022-03-08T09:41:10Z</time>
      </trkpt>
      <trkpt lat="47.26157" lon="-1.53368">
        <ele>45.247356</ele>
        <time>2022-03-08T09:41:14Z</time>
      </trkpt>
      <trkpt lat="47.26159" lon="-1.53377">
        <ele>45.444267</ele>
        <time>2022-03-08T09:41:18Z</time>
      </trkpt>
      <trkpt lat="47.2616" lon="-1.53383">
        <ele>45.577526</ele>
        <time>2022-03-08T09:41:21Z</time>
      </trkpt>
      <trkpt lat="47.26161" lon="-1.53391">
        <ele>45.741592</ele>
        <time>2022-03-08T09:41:25Z</time>
      </trkpt>
      <trkpt lat="47.26162" lon="-1.53398">
        <ele>45.87696</ele>
        <time>2022-03-08T09:41:29Z</time>
      </trkpt>
      <trkpt lat="47.26162" lon="-1.53408">
        <ele>46.02567</ele>
        <time>2022-03-08T09:41:34Z</time>
      </trkpt>
      <trkpt lat="47.26162" lon="-1.53414">
        <ele>46.111717</ele>
        <time>2022-03-08T09:41:37Z</time>
      </trkpt>
      <trkpt lat="47.26161" lon="-1.53422">
        <ele>46.25472</ele>
        <time>2022-03-08T09:41:41Z</time>
      </trkpt>
      <trkpt lat="47.2616" lon="-1.53429">
        <ele>46.535255</ele>
        <time>2022-03-08T09:41:45Z</time>
      </trkpt>
      <trkpt lat="47.26157" lon="-1.53438">
        <ele>46.951714</ele>
        <time>2022-03-08T09:41:50Z</time>
      </trkpt>
      <trkpt lat="47.26156" lon="-1.53445">
        <ele>47.271248</ele>
        <time>2022-03-08T09:41:54Z</time>
      </trkpt>
      <trkpt lat="47.26153" lon="-1.53451">
        <ele>47.51528</ele>
        <time>2022-03-08T09:41:58Z</time>
      </trkpt>
      <trkpt lat="47.26149" lon="-1.53456">
        <ele>47.722424</ele>
        <time>2022-03-08T09:42:02Z</time>
      </trkpt>
      <trkpt lat="47.26146" lon="-1.5346">
        <ele>47.760796</ele>
        <time>2022-03-08T09:42:08Z</time>
      </trkpt>
      <trkpt lat="47.26138" lon="-1.53461">
        <ele>47.572296</ele>
        <time>2022-03-08T09:42:15Z</time>
      </trkpt>
      <trkpt lat="47.26132" lon="-1.53459">
        <ele>47.01937</ele>
        <time>2022-03-08T09:42:23Z</time>
      </trkpt>
      <trkpt lat="47.26128" lon="-1.53453">
        <ele>46.885777</ele>
        <time>2022-03-08T09:42:25Z</time>
      </trkpt>
      <trkpt lat="47.26123" lon="-1.53448">
        <ele>46.720062</ele>
        <time>2022-03-08T09:42:29Z</time>
      </trkpt>
      <trkpt lat="47.26119" lon="-1.53444">
        <ele>46.654583</ele>
        <time>2022-03-08T09:42:32Z</time>
      </trkpt>
      <trkpt lat="47.26115" lon="-1.5344">
        <ele>46.529873</ele>
        <time>2022-03-08T09:42:35Z</time>
      </trkpt>
      <trkpt lat="47.26111" lon="-1.53436">
        <ele>46.3276</ele>
        <time>2022-03-08T09:42:40Z</time>
      </trkpt>
      <trkpt lat="47.26106" lon="-1.53433">
        <ele>46.21694</ele>
        <time>2022-03-08T09:42:45Z</time>
      </trkpt>
      <trkpt lat="47.26102" lon="-1.5343">
        <ele>46.2359</ele>
        <time>2022-03-08T09:42:48Z</time>
      </trkpt>
      <trkpt lat="47.26097" lon="-1.53426">
        <ele>46.319847</ele>
        <time>2022-03-08T09:42:51Z</time>
      </trkpt>
      <trkpt lat="47.26091" lon="-1.53425">
        <ele>46.30221</ele>
        <time>2022-03-08T09:42:57Z</time>
      </trkpt>
      <trkpt lat="47.26085" lon="-1.53424">
        <ele>46.17406</ele>
        <time>2022-03-08T09:43:01Z</time>
      </trkpt>
      <trkpt lat="47.2608" lon="-1.53425">
        <ele>46.187046</ele>
        <time>2022-03-08T09:43:05Z</time>
      </trkpt>
      <trkpt lat="47.26075" lon="-1.53425">
        <ele>46.25632</ele>
        <time>2022-03-08T09:43:10Z</time>
      </trkpt>
      <trkpt lat="47.26069" lon="-1.53422">
        <ele>46.31235</ele>
        <time>2022-03-08T09:43:14Z</time>
      </trkpt>
      <trkpt lat="47.26064" lon="-1.53421">
        <ele>46.22141</ele>
        <time>2022-03-08T09:43:18Z</time>
      </trkpt>
      <trkpt lat="47.26059" lon="-1.5342">
        <ele>46.062714</ele>
        <time>2022-03-08T09:43:22Z</time>
      </trkpt>
      <trkpt lat="47.26054" lon="-1.53422">
        <ele>45.815258</ele>
        <time>2022-03-08T09:43:26Z</time>
      </trkpt>
      <trkpt lat="47.26048" lon="-1.53425">
        <ele>45.574696</ele>
        <time>2022-03-08T09:43:30Z</time>
      </trkpt>
      <trkpt lat="47.26043" lon="-1.53428">
        <ele>45.448196</ele>
        <time>2022-03-08T09:43:33Z</time>
      </trkpt>
      <trkpt lat="47.26038" lon="-1.53432">
        <ele>45.285297</ele>
        <time>2022-03-08T09:43:37Z</time>
      </trkpt>
      <trkpt lat="47.26034" lon="-1.53437">
        <ele>44.953274</ele>
        <time>2022-03-08T09:43:42Z</time>
      </trkpt>
      <trkpt lat="47.26028" lon="-1.53439">
        <ele>44.61292</ele>
        <time>2022-03-08T09:43:48Z</time>
      </trkpt>
      <trkpt lat="47.26023" lon="-1.53438">
        <ele>44.430504</ele>
        <time>2022-03-08T09:43:53Z</time>
      </trkpt>
      <trkpt lat="47.26014" lon="-1.53436">
        <ele>44.537457</ele>
        <time>2022-03-08T09:43:59Z</time>
      </trkpt>
      <trkpt lat="47.26009" lon="-1.53435">
        <ele>45.12107</ele>
        <time>2022-03-08T09:44:05Z</time>
      </trkpt>
      <trkpt lat="47.26004" lon="-1.53432">
        <ele>45.535828</ele>
        <time>2022-03-08T09:44:08Z</time>
      </trkpt>
      <trkpt lat="47.25999" lon="-1.53426">
        <ele>45.932262</ele>
        <time>2022-03-08T09:44:11Z</time>
      </trkpt>
      <trkpt lat="47.25994" lon="-1.53421">
        <ele>46.51294</ele>
        <time>2022-03-08T09:44:16Z</time>
      </trkpt>
      <trkpt lat="47.2599" lon="-1.53417">
        <ele>46.763348</ele>
        <time>2022-03-08T09:44:19Z</time>
      </trkpt>
      <trkpt lat="47.25985" lon="-1.53413">
        <ele>47.146366</ele>
        <time>2022-03-08T09:44:23Z</time>
      </trkpt>
      <trkpt lat="47.2598" lon="-1.5341">
        <ele>47.51464</ele>
        <time>2022-03-08T09:44:27Z</time>
      </trkpt>
      <trkpt lat="47.25976" lon="-1.53406">
        <ele>47.74546</ele>
        <time>2022-03-08T09:44:30Z</time>
      </trkpt>
      <trkpt lat="47.25972" lon="-1.53402">
        <ele>48.11388</ele>
        <time>2022-03-08T09:44:34Z</time>
      </trkpt>
      <trkpt lat="47.25967" lon="-1.534">
        <ele>48.42758</ele>
        <time>2022-03-08T09:44:37Z</time>
      </trkpt>
      <trkpt lat="47.25962" lon="-1.53396">
        <ele>48.882668</ele>
        <time>2022-03-08T09:44:42Z</time>
      </trkpt>
      <trkpt lat="47.25958" lon="-1.53393">
        <ele>49.171467</ele>
        <time>2022-03-08T09:44:45Z</time>
      </trkpt>
      <trkpt lat="47.25953" lon="-1.53391">
        <ele>49.40328</ele>
        <time>2022-03-08T09:44:48Z</time>
      </trkpt>
      <trkpt lat="47.25948" lon="-1.53391">
        <ele>49.69583</ele>
        <time>2022-03-08T09:44:52Z</time>
      </trkpt>
      <trkpt lat="47.25944" lon="-1.5339">
        <ele>49.914185</ele>
        <time>2022-03-08T09:44:56Z</time>
      </trkpt>
      <trkpt lat="47.25939" lon="-1.53388">
        <ele>50.095806</ele>
        <time>2022-03-08T09:45:00Z</time>
      </trkpt>
      <trkpt lat="47.25935" lon="-1.53387">
        <ele>50.228718</ele>
        <time>2022-03-08T09:45:04Z</time>
      </trkpt>
      <trkpt lat="47.25929" lon="-1.53388">
        <ele>50.36196</ele>
        <time>2022-03-08T09:45:08Z</time>
      </trkpt>
      <trkpt lat="47.25925" lon="-1.53389">
        <ele>50.484436</ele>
        <time>2022-03-08T09:45:12Z</time>
      </trkpt>
      <trkpt lat="47.2592" lon="-1.53389">
        <ele>50.540314</ele>
        <time>2022-03-08T09:45:16Z</time>
      </trkpt>
      <trkpt lat="47.25914" lon="-1.53391">
        <ele>50.514133</ele>
        <time>2022-03-08T09:45:21Z</time>
      </trkpt>
      <trkpt lat="47.25909" lon="-1.53393">
        <ele>50.482822</ele>
        <time>2022-03-08T09:45:25Z</time>
      </trkpt>
      <trkpt lat="47.25904" lon="-1.53395">
        <ele>50.32627</ele>
        <time>2022-03-08T09:45:30Z</time>
      </trkpt>
      <trkpt lat="47.25898" lon="-1.53397">
        <ele>50.305614</ele>
        <time>2022-03-08T09:45:33Z</time>
      </trkpt>
      <trkpt lat="47.25893" lon="-1.53399">
        <ele>50.336266</ele>
        <time>2022-03-08T09:45:38Z</time>
      </trkpt>
      <trkpt lat="47.25888" lon="-1.53401">
        <ele>50.372307</ele>
        <time>2022-03-08T09:45:41Z</time>
      </trkpt>
      <trkpt lat="47.25883" lon="-1.53405">
        <ele>50.372562</ele>
        <time>2022-03-08T09:45:46Z</time>
      </trkpt>
      <trkpt lat="47.25878" lon="-1.53407">
        <ele>50.298473</ele>
        <time>2022-03-08T09:45:50Z</time>
      </trkpt>
      <trkpt lat="47.25874" lon="-1.5341">
        <ele>50.208866</ele>
        <time>2022-03-08T09:45:53Z</time>
      </trkpt>
      <trkpt lat="47.25869" lon="-1.53412">
        <ele>49.94479</ele>
        <time>2022-03-08T09:45:58Z</time>
      </trkpt>
      <trkpt lat="47.25865" lon="-1.53414">
        <ele>49.726597</ele>
        <time>2022-03-08T09:46:01Z</time>
      </trkpt>
      <trkpt lat="47.2586" lon="-1.53415">
        <ele>49.607697</ele>
        <time>2022-03-08T09:46:04Z</time>
      </trkpt>
      <trkpt lat="47.25855" lon="-1.53416">
        <ele>49.556717</ele>
        <time>2022-03-08T09:46:08Z</time>
      </trkpt>
      <trkpt lat="47.25851" lon="-1.53419">
        <ele>49.5626</ele>
        <time>2022-03-08T09:46:11Z</time>
      </trkpt>
      <trkpt lat="47.25845" lon="-1.53419">
        <ele>49.617477</ele>
        <time>2022-03-08T09:46:14Z</time>
      </trkpt>
      <trkpt lat="47.2584" lon="-1.5342">
        <ele>49.679413</ele>
        <time>2022-03-08T09:46:18Z</time>
      </trkpt>
      <trkpt lat="47.25834" lon="-1.53419">
        <ele>49.67459</ele>
        <time>2022-03-08T09:46:23Z</time>
      </trkpt>
      <trkpt lat="47.25828" lon="-1.53423">
        <ele>49.59387</ele>
        <time>2022-03-08T09:46:27Z</time>
      </trkpt>
      <trkpt lat="47.25824" lon="-1.53425">
        <ele>49.513035</ele>
        <time>2022-03-08T09:46:30Z</time>
      </trkpt>
      <trkpt lat="47.25818" lon="-1.53428">
        <ele>49.25533</ele>
        <time>2022-03-08T09:46:35Z</time>
      </trkpt>
      <trkpt lat="47.25814" lon="-1.5343">
        <ele>48.96916</ele>
        <time>2022-03-08T09:46:39Z</time>
      </trkpt>
      <trkpt lat="47.2581" lon="-1.53434">
        <ele>48.930313</ele>
        <time>2022-03-08T09:46:43Z</time>
      </trkpt>
      <trkpt lat="47.25805" lon="-1.53438">
        <ele>48.99067</ele>
        <time>2022-03-08T09:46:47Z</time>
      </trkpt>
      <trkpt lat="47.258" lon="-1.53442">
        <ele>49.04428</ele>
        <time>2022-03-08T09:46:50Z</time>
      </trkpt>
      <trkpt lat="47.25796" lon="-1.53445">
        <ele>49.059208</ele>
        <time>2022-03-08T09:46:54Z</time>
      </trkpt>
      <trkpt lat="47.25791" lon="-1.53447">
        <ele>49.11343</ele>
        <time>2022-03-08T09:46:57Z</time>
      </trkpt>
      <trkpt lat="47.25787" lon="-1.53451">
        <ele>49.149734</ele>
        <time>2022-03-08T09:47:01Z</time>
      </trkpt>
      <trkpt lat="47.25782" lon="-1.53455">
        <ele>49.196964</ele>
        <time>2022-03-08T09:47:05Z</time>
      </trkpt>
      <trkpt lat="47.25778" lon="-1.5346">
        <ele>49.07428</ele>
        <time>2022-03-08T09:47:09Z</time>
      </trkpt>
      <trkpt lat="47.25774" lon="-1.53462">
        <ele>48.921936</ele>
        <time>2022-03-08T09:47:13Z</time>
      </trkpt>
      <trkpt lat="47.25771" lon="-1.53469">
        <ele>48.69298</ele>
        <time>2022-03-08T09:47:17Z</time>
      </trkpt>
      <trkpt lat="47.25769" lon="-1.53476">
        <ele>48.27836</ele>
        <time>2022-03-08T09:47:22Z</time>
      </trkpt>
      <trkpt lat="47.25766" lon="-1.53484">
        <ele>47.917233</ele>
        <time>2022-03-08T09:47:27Z</time>
      </trkpt>
      <trkpt lat="47.25763" lon="-1.5349">
        <ele>47.771687</ele>
        <time>2022-03-08T09:47:30Z</time>
      </trkpt>
      <trkpt lat="47.25759" lon="-1.53496">
        <ele>47.744152</ele>
        <time>2022-03-08T09:47:34Z</time>
      </trkpt>
      <trkpt lat="47.25755" lon="-1.53501">
        <ele>47.76097</ele>
        <time>2022-03-08T09:47:37Z</time>
      </trkpt>
      <trkpt lat="47.25751" lon="-1.53506">
        <ele>47.702747</ele>
        <time>2022-03-08T09:47:41Z</time>
      </trkpt>
      <trkpt lat="47.25747" lon="-1.53512">
        <ele>47.588093</ele>
        <time>2022-03-08T09:47:45Z</time>
      </trkpt>
      <trkpt lat="47.25742" lon="-1.53517">
        <ele>47.478737</ele>
        <time>2022-03-08T09:47:49Z</time>
      </trkpt>
      <trkpt lat="47.25739" lon="-1.53522">
        <ele>47.307236</ele>
        <time>2022-03-08T09:47:53Z</time>
      </trkpt>
      <trkpt lat="47.25735" lon="-1.53528">
        <ele>47.176613</ele>
        <time>2022-03-08T09:47:57Z</time>
      </trkpt>
      <trkpt lat="47.25732" lon="-1.53534">
        <ele>47.036102</ele>
        <time>2022-03-08T09:48:01Z</time>
      </trkpt>
      <trkpt lat="47.2573" lon="-1.53541">
        <ele>46.935856</ele>
        <time>2022-03-08T09:48:04Z</time>
      </trkpt>
      <trkpt lat="47.25728" lon="-1.53548">
        <ele>46.779346</ele>
        <time>2022-03-08T09:48:07Z</time>
      </trkpt>
      <trkpt lat="47.25725" lon="-1.53555">
        <ele>46.574825</ele>
        <time>2022-03-08T09:48:11Z</time>
      </trkpt>
      <trkpt lat="47.25722" lon="-1.53561">
        <ele>46.367912</ele>
        <time>2022-03-08T09:48:15Z</time>
      </trkpt>
      <trkpt lat="47.25718" lon="-1.53566">
        <ele>46.154446</ele>
        <time>2022-03-08T09:48:19Z</time>
      </trkpt>
      <trkpt lat="47.25714" lon="-1.53572">
        <ele>46.025127</ele>
        <time>2022-03-08T09:48:23Z</time>
      </trkpt>
      <trkpt lat="47.25709" lon="-1.53577">
        <ele>45.891613</ele>
        <time>2022-03-08T09:48:27Z</time>
      </trkpt>
      <trkpt lat="47.25705" lon="-1.53582">
        <ele>45.747562</ele>
        <time>2022-03-08T09:48:30Z</time>
      </trkpt>
      <trkpt lat="47.25701" lon="-1.53586">
        <ele>45.582527</ele>
        <time>2022-03-08T09:48:35Z</time>
      </trkpt>
      <trkpt lat="47.25697" lon="-1.53591">
        <ele>45.543194</ele>
        <time>2022-03-08T09:48:38Z</time>
      </trkpt>
      <trkpt lat="47.25693" lon="-1.53597">
        <ele>45.45882</ele>
        <time>2022-03-08T09:48:42Z</time>
      </trkpt>
      <trkpt lat="47.2569" lon="-1.53604">
        <ele>45.312286</ele>
        <time>2022-03-08T09:48:46Z</time>
      </trkpt>
      <trkpt lat="47.25688" lon="-1.53612">
        <ele>45.153225</ele>
        <time>2022-03-08T09:48:50Z</time>
      </trkpt>
      <trkpt lat="47.25686" lon="-1.53619">
        <ele>44.99234</ele>
        <time>2022-03-08T09:48:54Z</time>
      </trkpt>
      <trkpt lat="47.25683" lon="-1.53626">
        <ele>44.768997</ele>
        <time>2022-03-08T09:48:58Z</time>
      </trkpt>
      <trkpt lat="47.2568" lon="-1.53633">
        <ele>44.621883</ele>
        <time>2022-03-08T09:49:02Z</time>
      </trkpt>
      <trkpt lat="47.25676" lon="-1.53639">
        <ele>44.625217</ele>
        <time>2022-03-08T09:49:06Z</time>
      </trkpt>
      <trkpt lat="47.25673" lon="-1.53643">
        <ele>44.74166</ele>
        <time>2022-03-08T09:49:10Z</time>
      </trkpt>
      <trkpt lat="47.25668" lon="-1.53646">
        <ele>44.98484</ele>
        <time>2022-03-08T09:49:16Z</time>
      </trkpt>
      <trkpt lat="47.25664" lon="-1.53649">
        <ele>45.148533</ele>
        <time>2022-03-08T09:49:20Z</time>
      </trkpt>
      <trkpt lat="47.25659" lon="-1.53651">
        <ele>45.326633</ele>
        <time>2022-03-08T09:49:25Z</time>
      </trkpt>
      <trkpt lat="47.25654" lon="-1.53652">
        <ele>45.403324</ele>
        <time>2022-03-08T09:49:29Z</time>
      </trkpt>
      <trkpt lat="47.25649" lon="-1.53654">
        <ele>45.493504</ele>
        <time>2022-03-08T09:49:33Z</time>
      </trkpt>
      <trkpt lat="47.25644" lon="-1.53657">
        <ele>45.708313</ele>
        <time>2022-03-08T09:49:39Z</time>
      </trkpt>
      <trkpt lat="47.25638" lon="-1.5366">
        <ele>45.9692</ele>
        <time>2022-03-08T09:49:45Z</time>
      </trkpt>
      <trkpt lat="47.25634" lon="-1.53665">
        <ele>46.22017</ele>
        <time>2022-03-08T09:49:49Z</time>
      </trkpt>
      <trkpt lat="47.25629" lon="-1.53671">
        <ele>46.51951</ele>
        <time>2022-03-08T09:49:53Z</time>
      </trkpt>
      <trkpt lat="47.25625" lon="-1.53678">
        <ele>46.77218</ele>
        <time>2022-03-08T09:49:56Z</time>
      </trkpt>
      <trkpt lat="47.25623" lon="-1.53684">
        <ele>47.052135</ele>
        <time>2022-03-08T09:49:59Z</time>
      </trkpt>
      <trkpt lat="47.25619" lon="-1.5369">
        <ele>47.352257</ele>
        <time>2022-03-08T09:50:02Z</time>
      </trkpt>
      <trkpt lat="47.25615" lon="-1.53697">
        <ele>47.63681</ele>
        <time>2022-03-08T09:50:05Z</time>
      </trkpt>
      <trkpt lat="47.25613" lon="-1.53702">
        <ele>47.86364</ele>
        <time>2022-03-08T09:50:08Z</time>
      </trkpt>
      <trkpt lat="47.2561" lon="-1.53709">
        <ele>48.161335</ele>
        <time>2022-03-08T09:50:12Z</time>
      </trkpt>
      <trkpt lat="47.25607" lon="-1.53715">
        <ele>48.470734</ele>
        <time>2022-03-08T09:50:16Z</time>
      </trkpt>
      <trkpt lat="47.25604" lon="-1.53721">
        <ele>48.72908</ele>
        <time>2022-03-08T09:50:20Z</time>
      </trkpt>
      <trkpt lat="47.25602" lon="-1.53728">
        <ele>48.82987</ele>
        <time>2022-03-08T09:50:23Z</time>
      </trkpt>
      <trkpt lat="47.25599" lon="-1.53734">
        <ele>48.923615</ele>
        <time>2022-03-08T09:50:27Z</time>
      </trkpt>
      <trkpt lat="47.25597" lon="-1.53741">
        <ele>49.145912</ele>
        <time>2022-03-08T09:50:31Z</time>
      </trkpt>
      <trkpt lat="47.25594" lon="-1.53745">
        <ele>49.20857</ele>
        <time>2022-03-08T09:50:34Z</time>
      </trkpt>
      <trkpt lat="47.25591" lon="-1.53752">
        <ele>49.198795</ele>
        <time>2022-03-08T09:50:38Z</time>
      </trkpt>
      <trkpt lat="47.25589" lon="-1.5376">
        <ele>49.085033</ele>
        <time>2022-03-08T09:50:43Z</time>
      </trkpt>
      <trkpt lat="47.25584" lon="-1.53763">
        <ele>48.90386</ele>
        <time>2022-03-08T09:50:48Z</time>
      </trkpt>
      <trkpt lat="47.25584" lon="-1.5377">
        <ele>48.60442</ele>
        <time>2022-03-08T09:50:52Z</time>
      </trkpt>
      <trkpt lat="47.2558" lon="-1.53774">
        <ele>48.341305</ele>
        <time>2022-03-08T09:50:55Z</time>
      </trkpt>
      <trkpt lat="47.25576" lon="-1.53777">
        <ele>48.14735</ele>
        <time>2022-03-08T09:50:57Z</time>
      </trkpt>
      <trkpt lat="47.25571" lon="-1.5378">
        <ele>47.823032</ele>
        <time>2022-03-08T09:51:00Z</time>
      </trkpt>
      <trkpt lat="47.25566" lon="-1.53782">
        <ele>47.505257</ele>
        <time>2022-03-08T09:51:04Z</time>
      </trkpt>
      <trkpt lat="47.2556" lon="-1.53787">
        <ele>47.245975</ele>
        <time>2022-03-08T09:51:07Z</time>
      </trkpt>
      <trkpt lat="47.25555" lon="-1.53792">
        <ele>47.02142</ele>
        <time>2022-03-08T09:51:10Z</time>
      </trkpt>
      <trkpt lat="47.25554" lon="-1.53784">
        <ele>47.95253</ele>
        <time>2022-03-08T09:51:25Z</time>
      </trkpt>
      <trkpt lat="47.25554" lon="-1.53777">
        <ele>48.41129</ele>
        <time>2022-03-08T09:51:30Z</time>
      </trkpt>
      <trkpt lat="47.25554" lon="-1.5377">
        <ele>49.0674</ele>
        <time>2022-03-08T09:51:36Z</time>
      </trkpt>
      <trkpt lat="47.25553" lon="-1.53763">
        <ele>49.480618</ele>
        <time>2022-03-08T09:51:39Z</time>
      </trkpt>
      <trkpt lat="47.25551" lon="-1.53756">
        <ele>49.963142</ele>
        <time>2022-03-08T09:51:42Z</time>
      </trkpt>
      <trkpt lat="47.2555" lon="-1.53749">
        <ele>50.857956</ele>
        <time>2022-03-08T09:51:47Z</time>
      </trkpt>
      <trkpt lat="47.25548" lon="-1.53742">
        <ele>51.702686</ele>
        <time>2022-03-08T09:51:51Z</time>
      </trkpt>
      <trkpt lat="47.25547" lon="-1.53734">
        <ele>52.839546</ele>
        <time>2022-03-08T09:51:56Z</time>
      </trkpt>
      <trkpt lat="47.25546" lon="-1.53727">
        <ele>53.668816</ele>
        <time>2022-03-08T09:52:00Z</time>
      </trkpt>
      <trkpt lat="47.25543" lon="-1.5372">
        <ele>54.389282</ele>
        <time>2022-03-08T09:52:04Z</time>
      </trkpt>
      <trkpt lat="47.25544" lon="-1.53712">
        <ele>55.02452</ele>
        <time>2022-03-08T09:52:10Z</time>
      </trkpt>
      <trkpt lat="47.25543" lon="-1.53705">
        <ele>55.57401</ele>
        <time>2022-03-08T09:52:14Z</time>
      </trkpt>
      <trkpt lat="47.25542" lon="-1.53698">
        <ele>56.24049</ele>
        <time>2022-03-08T09:52:18Z</time>
      </trkpt>
      <trkpt lat="47.25541" lon="-1.53691">
        <ele>56.977478</ele>
        <time>2022-03-08T09:52:23Z</time>
      </trkpt>
      <trkpt lat="47.25538" lon="-1.53684">
        <ele>57.46256</ele>
        <time>2022-03-08T09:52:28Z</time>
      </trkpt>
      <trkpt lat="47.25534" lon="-1.53678">
        <ele>58.100525</ele>
        <time>2022-03-08T09:52:33Z</time>
      </trkpt>
      <trkpt lat="47.25532" lon="-1.53667">
        <ele>59.156345</ele>
        <time>2022-03-08T09:52:44Z</time>
      </trkpt>
      <trkpt lat="47.2553" lon="-1.53657">
        <ele>59.973766</ele>
        <time>2022-03-08T09:52:53Z</time>
      </trkpt>
      <trkpt lat="47.25526" lon="-1.53654">
        <ele>59.774223</ele>
        <time>2022-03-08T09:53:14Z</time>
      </trkpt>
      <trkpt lat="47.25525" lon="-1.53661">
        <ele>59.7572</ele>
        <time>2022-03-08T09:53:22Z</time>
      </trkpt>
      <trkpt lat="47.25523" lon="-1.53668">
        <ele>59.51079</ele>
        <time>2022-03-08T09:53:29Z</time>
      </trkpt>
      <trkpt lat="47.25525" lon="-1.53676">
        <ele>59.234303</ele>
        <time>2022-03-08T09:53:34Z</time>
      </trkpt>
      <trkpt lat="47.25525" lon="-1.53683">
        <ele>58.683224</ele>
        <time>2022-03-08T09:53:38Z</time>
      </trkpt>
      <trkpt lat="47.25526" lon="-1.5369">
        <ele>57.70431</ele>
        <time>2022-03-08T09:53:43Z</time>
      </trkpt>
      <trkpt lat="47.25527" lon="-1.53697">
        <ele>57.0267</ele>
        <time>2022-03-08T09:53:46Z</time>
      </trkpt>
      <trkpt lat="47.25527" lon="-1.53705">
        <ele>55.855824</ele>
        <time>2022-03-08T09:53:51Z</time>
      </trkpt>
      <trkpt lat="47.25529" lon="-1.53714">
        <ele>54.924595</ele>
        <time>2022-03-08T09:53:55Z</time>
      </trkpt>
      <trkpt lat="47.25531" lon="-1.53727">
        <ele>53.749355</ele>
        <time>2022-03-08T09:54:01Z</time>
      </trkpt>
      <trkpt lat="47.25534" lon="-1.53734">
        <ele>53.01885</ele>
        <time>2022-03-08T09:54:06Z</time>
      </trkpt>
      <trkpt lat="47.25536" lon="-1.53741">
        <ele>52.556454</ele>
        <time>2022-03-08T09:54:10Z</time>
      </trkpt>
      <trkpt lat="47.25538" lon="-1.5375">
        <ele>52.194042</ele>
        <time>2022-03-08T09:54:14Z</time>
      </trkpt>
      <trkpt lat="47.25539" lon="-1.53756">
        <ele>51.942066</ele>
        <time>2022-03-08T09:54:17Z</time>
      </trkpt>
      <trkpt lat="47.25548" lon="-1.5378">
        <ele>51.06094</ele>
        <time>2022-03-08T09:54:32Z</time>
      </trkpt>
      <trkpt lat="47.2555" lon="-1.53786">
        <ele>50.944786</ele>
        <time>2022-03-08T09:54:36Z</time>
      </trkpt>
      <trkpt lat="47.25553" lon="-1.53793">
        <ele>50.96795</ele>
        <time>2022-03-08T09:54:39Z</time>
      </trkpt>
      <trkpt lat="47.25555" lon="-1.53799">
        <ele>50.729313</ele>
        <time>2022-03-08T09:54:44Z</time>
      </trkpt>
      <trkpt lat="47.25557" lon="-1.53806">
        <ele>50.506573</ele>
        <time>2022-03-08T09:54:48Z</time>
      </trkpt>
      <trkpt lat="47.25562" lon="-1.53817">
        <ele>50.27189</ele>
        <time>2022-03-08T09:54:53Z</time>
      </trkpt>
      <trkpt lat="47.25565" lon="-1.53823">
        <ele>49.967293</ele>
        <time>2022-03-08T09:54:57Z</time>
      </trkpt>
      <trkpt lat="47.25568" lon="-1.53831">
        <ele>49.516132</ele>
        <time>2022-03-08T09:55:02Z</time>
      </trkpt>
      <trkpt lat="47.25571" lon="-1.53843">
        <ele>48.937016</ele>
        <time>2022-03-08T09:55:07Z</time>
      </trkpt>
      <trkpt lat="47.25573" lon="-1.53855">
        <ele>48.392128</ele>
        <time>2022-03-08T09:55:11Z</time>
      </trkpt>
      <trkpt lat="47.25575" lon="-1.53865">
        <ele>47.747528</ele>
        <time>2022-03-08T09:55:16Z</time>
      </trkpt>
      <trkpt lat="47.25577" lon="-1.53872">
        <ele>47.311687</ele>
        <time>2022-03-08T09:55:20Z</time>
      </trkpt>
      <trkpt lat="47.25576" lon="-1.5388">
        <ele>46.788055</ele>
        <time>2022-03-08T09:55:24Z</time>
      </trkpt>
      <trkpt lat="47.25576" lon="-1.53888">
        <ele>46.161606</ele>
        <time>2022-03-08T09:55:28Z</time>
      </trkpt>
      <trkpt lat="47.25577" lon="-1.53896">
        <ele>45.945644</ele>
        <time>2022-03-08T09:55:30Z</time>
      </trkpt>
      <trkpt lat="47.25578" lon="-1.53902">
        <ele>45.807755</ele>
        <time>2022-03-08T09:55:32Z</time>
      </trkpt>
      <trkpt lat="47.2558" lon="-1.53908">
        <ele>45.77365</ele>
        <time>2022-03-08T09:55:34Z</time>
      </trkpt>
      <trkpt lat="47.25581" lon="-1.53915">
        <ele>45.829803</ele>
        <time>2022-03-08T09:55:37Z</time>
      </trkpt>
      <trkpt lat="47.25584" lon="-1.53923">
        <ele>46.042534</ele>
        <time>2022-03-08T09:55:41Z</time>
      </trkpt>
      <trkpt lat="47.25586" lon="-1.53931">
        <ele>46.33545</ele>
        <time>2022-03-08T09:55:45Z</time>
      </trkpt>
      <trkpt lat="47.25591" lon="-1.53951">
        <ele>47.194504</ele>
        <time>2022-03-08T09:55:53Z</time>
      </trkpt>
      <trkpt lat="47.25594" lon="-1.53958">
        <ele>47.829247</ele>
        <time>2022-03-08T09:55:57Z</time>
      </trkpt>
      <trkpt lat="47.25596" lon="-1.53966">
        <ele>48.596375</ele>
        <time>2022-03-08T09:56:02Z</time>
      </trkpt>
      <trkpt lat="47.25598" lon="-1.53974">
        <ele>49.248074</ele>
        <time>2022-03-08T09:56:06Z</time>
      </trkpt>
      <trkpt lat="47.256" lon="-1.53981">
        <ele>49.90191</ele>
        <time>2022-03-08T09:56:10Z</time>
      </trkpt>
      <trkpt lat="47.25602" lon="-1.53987">
        <ele>50.576744</ele>
        <time>2022-03-08T09:56:15Z</time>
      </trkpt>
      <trkpt lat="47.25604" lon="-1.53994">
        <ele>50.78325</ele>
        <time>2022-03-08T09:56:18Z</time>
      </trkpt>
      <trkpt lat="47.25607" lon="-1.54001">
        <ele>50.977314</ele>
        <time>2022-03-08T09:56:21Z</time>
      </trkpt>
      <trkpt lat="47.25608" lon="-1.54008">
        <ele>51.273754</ele>
        <time>2022-03-08T09:56:24Z</time>
      </trkpt>
      <trkpt lat="47.25611" lon="-1.54016">
        <ele>51.582092</ele>
        <time>2022-03-08T09:56:27Z</time>
      </trkpt>
      <trkpt lat="47.25613" lon="-1.54022">
        <ele>51.965237</ele>
        <time>2022-03-08T09:56:31Z</time>
      </trkpt>
      <trkpt lat="47.25615" lon="-1.54029">
        <ele>52.55838</ele>
        <time>2022-03-08T09:56:38Z</time>
      </trkpt>
      <trkpt lat="47.25617" lon="-1.54038">
        <ele>52.720684</ele>
        <time>2022-03-08T09:56:46Z</time>
      </trkpt>
      <trkpt lat="47.25612" lon="-1.54035">
        <ele>52.51061</ele>
        <time>2022-03-08T09:57:02Z</time>
      </trkpt>
      <trkpt lat="47.25608" lon="-1.54028">
        <ele>51.997196</ele>
        <time>2022-03-08T09:57:06Z</time>
      </trkpt>
      <trkpt lat="47.25606" lon="-1.54022">
        <ele>51.13411</ele>
        <time>2022-03-08T09:57:10Z</time>
      </trkpt>
      <trkpt lat="47.25603" lon="-1.54016">
        <ele>50.302708</ele>
        <time>2022-03-08T09:57:13Z</time>
      </trkpt>
      <trkpt lat="47.25598" lon="-1.54014">
        <ele>46.29288</ele>
        <time>2022-03-08T09:57:26Z</time>
      </trkpt>
      <trkpt lat="47.25593" lon="-1.54014">
        <ele>45.512856</ele>
        <time>2022-03-08T09:57:33Z</time>
      </trkpt>
      <trkpt lat="47.25589" lon="-1.54014">
        <ele>45.286747</ele>
        <time>2022-03-08T09:57:38Z</time>
      </trkpt>
      <trkpt lat="47.25584" lon="-1.54017">
        <ele>45.321354</ele>
        <time>2022-03-08T09:57:42Z</time>
      </trkpt>
      <trkpt lat="47.25581" lon="-1.54023">
        <ele>45.561275</ele>
        <time>2022-03-08T09:57:47Z</time>
      </trkpt>
      <trkpt lat="47.25579" lon="-1.54029">
        <ele>46.109844</ele>
        <time>2022-03-08T09:57:54Z</time>
      </trkpt>
      <trkpt lat="47.25579" lon="-1.54022">
        <ele>46.000874</ele>
        <time>2022-03-08T09:58:05Z</time>
      </trkpt>
      <trkpt lat="47.25584" lon="-1.54016">
        <ele>45.751625</ele>
        <time>2022-03-08T09:58:10Z</time>
      </trkpt>
      <trkpt lat="47.25588" lon="-1.54015">
        <ele>45.767124</ele>
        <time>2022-03-08T09:58:16Z</time>
      </trkpt>
      <trkpt lat="47.25593" lon="-1.54012">
        <ele>46.0648</ele>
        <time>2022-03-08T09:58:23Z</time>
      </trkpt>
      <trkpt lat="47.25598" lon="-1.54008">
        <ele>46.15321</ele>
        <time>2022-03-08T09:58:26Z</time>
      </trkpt>
      <trkpt lat="47.25597" lon="-1.53999">
        <ele>46.03798</ele>
        <time>2022-03-08T09:58:30Z</time>
      </trkpt>
      <trkpt lat="47.25593" lon="-1.53989">
        <ele>45.489815</ele>
        <time>2022-03-08T09:58:39Z</time>
      </trkpt>
      <trkpt lat="47.25591" lon="-1.53982">
        <ele>45.299477</ele>
        <time>2022-03-08T09:58:42Z</time>
      </trkpt>
      <trkpt lat="47.25595" lon="-1.53977">
        <ele>45.225822</ele>
        <time>2022-03-08T09:58:44Z</time>
      </trkpt>
      <trkpt lat="47.25598" lon="-1.53972">
        <ele>45.267582</ele>
        <time>2022-03-08T09:58:47Z</time>
      </trkpt>
      <trkpt lat="47.25601" lon="-1.53965">
        <ele>45.428997</ele>
        <time>2022-03-08T09:58:51Z</time>
      </trkpt>
      <trkpt lat="47.25604" lon="-1.5396">
        <ele>45.52403</ele>
        <time>2022-03-08T09:58:55Z</time>
      </trkpt>
      <trkpt lat="47.25606" lon="-1.53954">
        <ele>45.611107</ele>
        <time>2022-03-08T09:59:02Z</time>
      </trkpt>
      <trkpt lat="47.25605" lon="-1.53947">
        <ele>45.520454</ele>
        <time>2022-03-08T09:59:09Z</time>
      </trkpt>
      <trkpt lat="47.25612" lon="-1.53945">
        <ele>45.578506</ele>
        <time>2022-03-08T09:59:11Z</time>
      </trkpt>
      <trkpt lat="47.25618" lon="-1.53943">
        <ele>45.598274</ele>
        <time>2022-03-08T09:59:14Z</time>
      </trkpt>
      <trkpt lat="47.25622" lon="-1.5394">
        <ele>45.612885</ele>
        <time>2022-03-08T09:59:17Z</time>
      </trkpt>
      <trkpt lat="47.25626" lon="-1.53936">
        <ele>45.547417</ele>
        <time>2022-03-08T09:59:21Z</time>
      </trkpt>
      <trkpt lat="47.25631" lon="-1.53934">
        <ele>45.468357</ele>
        <time>2022-03-08T09:59:25Z</time>
      </trkpt>
      <trkpt lat="47.25637" lon="-1.53931">
        <ele>45.318424</ele>
        <time>2022-03-08T09:59:29Z</time>
      </trkpt>
      <trkpt lat="47.25642" lon="-1.53928">
        <ele>45.120483</ele>
        <time>2022-03-08T09:59:32Z</time>
      </trkpt>
      <trkpt lat="47.25649" lon="-1.53927">
        <ele>44.92754</ele>
        <time>2022-03-08T09:59:35Z</time>
      </trkpt>
      <trkpt lat="47.25654" lon="-1.53925">
        <ele>44.761547</ele>
        <time>2022-03-08T09:59:38Z</time>
      </trkpt>
      <trkpt lat="47.2566" lon="-1.53924">
        <ele>44.6782</ele>
        <time>2022-03-08T09:59:42Z</time>
      </trkpt>
      <trkpt lat="47.25665" lon="-1.53922">
        <ele>44.626297</ele>
        <time>2022-03-08T09:59:45Z</time>
      </trkpt>
      <trkpt lat="47.25671" lon="-1.53919">
        <ele>44.670174</ele>
        <time>2022-03-08T09:59:48Z</time>
      </trkpt>
      <trkpt lat="47.25676" lon="-1.53918">
        <ele>44.84342</ele>
        <time>2022-03-08T09:59:52Z</time>
      </trkpt>
      <trkpt lat="47.25681" lon="-1.53916">
        <ele>44.888725</ele>
        <time>2022-03-08T09:59:55Z</time>
      </trkpt>
      <trkpt lat="47.25687" lon="-1.53914">
        <ele>45.050583</ele>
        <time>2022-03-08T09:59:58Z</time>
      </trkpt>
      <trkpt lat="47.25693" lon="-1.53911">
        <ele>45.274334</ele>
        <time>2022-03-08T10:00:01Z</time>
      </trkpt>
      <trkpt lat="47.25698" lon="-1.53909">
        <ele>45.626167</ele>
        <time>2022-03-08T10:00:04Z</time>
      </trkpt>
      <trkpt lat="47.25702" lon="-1.53906">
        <ele>46.194115</ele>
        <time>2022-03-08T10:00:08Z</time>
      </trkpt>
      <trkpt lat="47.25708" lon="-1.53905">
        <ele>46.809452</ele>
        <time>2022-03-08T10:00:12Z</time>
      </trkpt>
      <trkpt lat="47.25713" lon="-1.53906">
        <ele>47.36931</ele>
        <time>2022-03-08T10:00:16Z</time>
      </trkpt>
      <trkpt lat="47.25719" lon="-1.5391">
        <ele>47.95444</ele>
        <time>2022-03-08T10:00:20Z</time>
      </trkpt>
      <trkpt lat="47.25723" lon="-1.53916">
        <ele>48.570908</ele>
        <time>2022-03-08T10:00:24Z</time>
      </trkpt>
      <trkpt lat="47.25727" lon="-1.53922">
        <ele>49.075478</ele>
        <time>2022-03-08T10:00:27Z</time>
      </trkpt>
      <trkpt lat="47.25731" lon="-1.53929">
        <ele>49.52424</ele>
        <time>2022-03-08T10:00:30Z</time>
      </trkpt>
      <trkpt lat="47.25733" lon="-1.53935">
        <ele>50.036415</ele>
        <time>2022-03-08T10:00:34Z</time>
      </trkpt>
      <trkpt lat="47.25736" lon="-1.53942">
        <ele>50.321465</ele>
        <time>2022-03-08T10:00:38Z</time>
      </trkpt>
      <trkpt lat="47.25739" lon="-1.53947">
        <ele>50.30845</ele>
        <time>2022-03-08T10:00:42Z</time>
      </trkpt>
      <trkpt lat="47.25742" lon="-1.53954">
        <ele>50.21596</ele>
        <time>2022-03-08T10:00:45Z</time>
      </trkpt>
      <trkpt lat="47.25746" lon="-1.53959">
        <ele>50.159145</ele>
        <time>2022-03-08T10:00:48Z</time>
      </trkpt>
      <trkpt lat="47.2575" lon="-1.53963">
        <ele>49.913822</ele>
        <time>2022-03-08T10:00:52Z</time>
      </trkpt>
      <trkpt lat="47.25754" lon="-1.53967">
        <ele>49.59206</ele>
        <time>2022-03-08T10:00:57Z</time>
      </trkpt>
      <trkpt lat="47.25759" lon="-1.53969">
        <ele>49.521324</ele>
        <time>2022-03-08T10:01:01Z</time>
      </trkpt>
      <trkpt lat="47.25763" lon="-1.53966">
        <ele>49.184177</ele>
        <time>2022-03-08T10:01:07Z</time>
      </trkpt>
      <trkpt lat="47.25768" lon="-1.53963">
        <ele>48.830795</ele>
        <time>2022-03-08T10:01:10Z</time>
      </trkpt>
      <trkpt lat="47.25773" lon="-1.5396">
        <ele>48.175087</ele>
        <time>2022-03-08T10:01:14Z</time>
      </trkpt>
      <trkpt lat="47.25779" lon="-1.53957">
        <ele>47.408154</ele>
        <time>2022-03-08T10:01:20Z</time>
      </trkpt>
      <trkpt lat="47.25783" lon="-1.53954">
        <ele>46.776283</ele>
        <time>2022-03-08T10:01:25Z</time>
      </trkpt>
      <trkpt lat="47.25788" lon="-1.53952">
        <ele>46.11033</ele>
        <time>2022-03-08T10:01:30Z</time>
      </trkpt>
      <trkpt lat="47.25793" lon="-1.53951">
        <ele>45.636227</ele>
        <time>2022-03-08T10:01:33Z</time>
      </trkpt>
      <trkpt lat="47.25798" lon="-1.53948">
        <ele>45.173565</ele>
        <time>2022-03-08T10:01:36Z</time>
      </trkpt>
      <trkpt lat="47.25803" lon="-1.53947">
        <ele>44.79762</ele>
        <time>2022-03-08T10:01:39Z</time>
      </trkpt>
      <trkpt lat="47.25808" lon="-1.53944">
        <ele>44.65947</ele>
        <time>2022-03-08T10:01:42Z</time>
      </trkpt>
      <trkpt lat="47.25813" lon="-1.53943">
        <ele>44.672466</ele>
        <time>2022-03-08T10:01:46Z</time>
      </trkpt>
      <trkpt lat="47.25818" lon="-1.53941">
        <ele>44.83367</ele>
        <time>2022-03-08T10:01:49Z</time>
      </trkpt>
      <trkpt lat="47.25823" lon="-1.53939">
        <ele>44.978363</ele>
        <time>2022-03-08T10:01:52Z</time>
      </trkpt>
      <trkpt lat="47.25828" lon="-1.53939">
        <ele>45.05593</ele>
        <time>2022-03-08T10:01:54Z</time>
      </trkpt>
      <trkpt lat="47.25832" lon="-1.53938">
        <ele>45.217247</ele>
        <time>2022-03-08T10:01:57Z</time>
      </trkpt>
      <trkpt lat="47.25838" lon="-1.53936">
        <ele>45.45128</ele>
        <time>2022-03-08T10:02:01Z</time>
      </trkpt>
      <trkpt lat="47.25842" lon="-1.53933">
        <ele>45.95479</ele>
        <time>2022-03-08T10:02:05Z</time>
      </trkpt>
      <trkpt lat="47.25848" lon="-1.53931">
        <ele>46.546036</ele>
        <time>2022-03-08T10:02:08Z</time>
      </trkpt>
      <trkpt lat="47.25853" lon="-1.53929">
        <ele>47.28406</ele>
        <time>2022-03-08T10:02:11Z</time>
      </trkpt>
      <trkpt lat="47.25858" lon="-1.53926">
        <ele>48.12516</ele>
        <time>2022-03-08T10:02:14Z</time>
      </trkpt>
      <trkpt lat="47.25863" lon="-1.53924">
        <ele>49.380123</ele>
        <time>2022-03-08T10:02:18Z</time>
      </trkpt>
      <trkpt lat="47.25868" lon="-1.53923">
        <ele>50.732307</ele>
        <time>2022-03-08T10:02:23Z</time>
      </trkpt>
      <trkpt lat="47.25874" lon="-1.5392">
        <ele>51.464546</ele>
        <time>2022-03-08T10:02:27Z</time>
      </trkpt>
      <trkpt lat="47.25877" lon="-1.53915">
        <ele>51.749256</ele>
        <time>2022-03-08T10:02:30Z</time>
      </trkpt>
      <trkpt lat="47.25882" lon="-1.5391">
        <ele>51.8007</ele>
        <time>2022-03-08T10:02:33Z</time>
      </trkpt>
      <trkpt lat="47.25887" lon="-1.53905">
        <ele>51.819866</ele>
        <time>2022-03-08T10:02:37Z</time>
      </trkpt>
      <trkpt lat="47.25891" lon="-1.53902">
        <ele>51.862953</ele>
        <time>2022-03-08T10:02:40Z</time>
      </trkpt>
      <trkpt lat="47.25896" lon="-1.53898">
        <ele>51.94844</ele>
        <time>2022-03-08T10:02:43Z</time>
      </trkpt>
      <trkpt lat="47.259" lon="-1.53895">
        <ele>52.143806</ele>
        <time>2022-03-08T10:02:47Z</time>
      </trkpt>
      <trkpt lat="47.25905" lon="-1.53891">
        <ele>52.31349</ele>
        <time>2022-03-08T10:02:50Z</time>
      </trkpt>
      <trkpt lat="47.25909" lon="-1.53888">
        <ele>52.57032</ele>
        <time>2022-03-08T10:02:53Z</time>
      </trkpt>
      <trkpt lat="47.25915" lon="-1.53885">
        <ele>52.97362</ele>
        <time>2022-03-08T10:02:57Z</time>
      </trkpt>
      <trkpt lat="47.25919" lon="-1.53884">
        <ele>53.453342</ele>
        <time>2022-03-08T10:03:01Z</time>
      </trkpt>
      <trkpt lat="47.25924" lon="-1.53882">
        <ele>53.744236</ele>
        <time>2022-03-08T10:03:07Z</time>
      </trkpt>
      <trkpt lat="47.25929" lon="-1.53878">
        <ele>53.660645</ele>
        <time>2022-03-08T10:03:18Z</time>
      </trkpt>
      <trkpt lat="47.25934" lon="-1.53875">
        <ele>53.508083</ele>
        <time>2022-03-08T10:03:21Z</time>
      </trkpt>
      <trkpt lat="47.25938" lon="-1.53871">
        <ele>53.358494</ele>
        <time>2022-03-08T10:03:25Z</time>
      </trkpt>
      <trkpt lat="47.25942" lon="-1.53867">
        <ele>53.252975</ele>
        <time>2022-03-08T10:03:28Z</time>
      </trkpt>
      <trkpt lat="47.25946" lon="-1.53863">
        <ele>53.084694</ele>
        <time>2022-03-08T10:03:31Z</time>
      </trkpt>
      <trkpt lat="47.25951" lon="-1.53859">
        <ele>52.81781</ele>
        <time>2022-03-08T10:03:35Z</time>
      </trkpt>
      <trkpt lat="47.25956" lon="-1.53855">
        <ele>52.60738</ele>
        <time>2022-03-08T10:03:38Z</time>
      </trkpt>
      <trkpt lat="47.25961" lon="-1.53852">
        <ele>52.304554</ele>
        <time>2022-03-08T10:03:43Z</time>
      </trkpt>
      <trkpt lat="47.25966" lon="-1.5385">
        <ele>52.128357</ele>
        <time>2022-03-08T10:03:47Z</time>
      </trkpt>
      <trkpt lat="47.25971" lon="-1.53847">
        <ele>51.92454</ele>
        <time>2022-03-08T10:03:51Z</time>
      </trkpt>
      <trkpt lat="47.25976" lon="-1.53845">
        <ele>51.827297</ele>
        <time>2022-03-08T10:03:54Z</time>
      </trkpt>
      <trkpt lat="47.25981" lon="-1.53845">
        <ele>51.6708</ele>
        <time>2022-03-08T10:03:58Z</time>
      </trkpt>
      <trkpt lat="47.25985" lon="-1.53843">
        <ele>51.46008</ele>
        <time>2022-03-08T10:04:02Z</time>
      </trkpt>
      <trkpt lat="47.25991" lon="-1.5384">
        <ele>51.29593</ele>
        <time>2022-03-08T10:04:06Z</time>
      </trkpt>
      <trkpt lat="47.25995" lon="-1.53838">
        <ele>51.00275</ele>
        <time>2022-03-08T10:04:11Z</time>
      </trkpt>
      <trkpt lat="47.26" lon="-1.53836">
        <ele>50.759605</ele>
        <time>2022-03-08T10:04:14Z</time>
      </trkpt>
      <trkpt lat="47.26004" lon="-1.53835">
        <ele>50.507786</ele>
        <time>2022-03-08T10:04:17Z</time>
      </trkpt>
      <trkpt lat="47.2601" lon="-1.53836">
        <ele>49.94197</ele>
        <time>2022-03-08T10:04:22Z</time>
      </trkpt>
      <trkpt lat="47.26015" lon="-1.53835">
        <ele>49.311985</ele>
        <time>2022-03-08T10:04:26Z</time>
      </trkpt>
      <trkpt lat="47.26019" lon="-1.53838">
        <ele>48.74448</ele>
        <time>2022-03-08T10:04:29Z</time>
      </trkpt>
      <trkpt lat="47.26024" lon="-1.53837">
        <ele>48.12761</ele>
        <time>2022-03-08T10:04:33Z</time>
      </trkpt>
      <trkpt lat="47.26031" lon="-1.53836">
        <ele>47.71325</ele>
        <time>2022-03-08T10:04:36Z</time>
      </trkpt>
      <trkpt lat="47.26036" lon="-1.53836">
        <ele>47.458496</ele>
        <time>2022-03-08T10:04:38Z</time>
      </trkpt>
      <trkpt lat="47.26041" lon="-1.53839">
        <ele>46.917404</ele>
        <time>2022-03-08T10:04:41Z</time>
      </trkpt>
      <trkpt lat="47.26045" lon="-1.53841">
        <ele>45.672203</ele>
        <time>2022-03-08T10:04:46Z</time>
      </trkpt>
      <trkpt lat="47.26051" lon="-1.53842">
        <ele>44.66834</ele>
        <time>2022-03-08T10:04:50Z</time>
      </trkpt>
      <trkpt lat="47.26056" lon="-1.53844">
        <ele>43.971825</ele>
        <time>2022-03-08T10:04:53Z</time>
      </trkpt>
      <trkpt lat="47.26062" lon="-1.53845">
        <ele>43.234104</ele>
        <time>2022-03-08T10:04:56Z</time>
      </trkpt>
      <trkpt lat="47.26067" lon="-1.53844">
        <ele>42.618443</ele>
        <time>2022-03-08T10:04:59Z</time>
      </trkpt>
      <trkpt lat="47.26072" lon="-1.53843">
        <ele>42.26455</ele>
        <time>2022-03-08T10:05:02Z</time>
      </trkpt>
      <trkpt lat="47.26077" lon="-1.53844">
        <ele>42.01104</ele>
        <time>2022-03-08T10:05:05Z</time>
      </trkpt>
      <trkpt lat="47.26083" lon="-1.53843">
        <ele>41.696545</ele>
        <time>2022-03-08T10:05:09Z</time>
      </trkpt>
      <trkpt lat="47.26088" lon="-1.53843">
        <ele>41.33188</ele>
        <time>2022-03-08T10:05:13Z</time>
      </trkpt>
      <trkpt lat="47.26092" lon="-1.53838">
        <ele>40.867607</ele>
        <time>2022-03-08T10:05:19Z</time>
      </trkpt>
      <trkpt lat="47.26098" lon="-1.53837">
        <ele>40.756355</ele>
        <time>2022-03-08T10:05:22Z</time>
      </trkpt>
      <trkpt lat="47.26102" lon="-1.53835">
        <ele>40.778057</ele>
        <time>2022-03-08T10:05:25Z</time>
      </trkpt>
      <trkpt lat="47.26107" lon="-1.53833">
        <ele>40.438984</ele>
        <time>2022-03-08T10:05:31Z</time>
      </trkpt>
      <trkpt lat="47.26112" lon="-1.53832">
        <ele>39.682426</ele>
        <time>2022-03-08T10:05:38Z</time>
      </trkpt>
      <trkpt lat="47.26117" lon="-1.53833">
        <ele>39.546852</ele>
        <time>2022-03-08T10:05:41Z</time>
      </trkpt>
      <trkpt lat="47.26123" lon="-1.53834">
        <ele>39.692265</ele>
        <time>2022-03-08T10:05:44Z</time>
      </trkpt>
      <trkpt lat="47.26128" lon="-1.53835">
        <ele>40.029892</ele>
        <time>2022-03-08T10:05:47Z</time>
      </trkpt>
      <trkpt lat="47.26134" lon="-1.53834">
        <ele>40.35987</ele>
        <time>2022-03-08T10:05:50Z</time>
      </trkpt>
      <trkpt lat="47.2614" lon="-1.53834">
        <ele>40.613495</ele>
        <time>2022-03-08T10:05:54Z</time>
      </trkpt>
      <trkpt lat="47.26144" lon="-1.53834">
        <ele>40.73285</ele>
        <time>2022-03-08T10:05:57Z</time>
      </trkpt>
      <trkpt lat="47.26149" lon="-1.53836">
        <ele>40.948666</ele>
        <time>2022-03-08T10:06:01Z</time>
      </trkpt>
      <trkpt lat="47.26154" lon="-1.53839">
        <ele>41.210403</ele>
        <time>2022-03-08T10:06:06Z</time>
      </trkpt>
      <trkpt lat="47.2616" lon="-1.5384">
        <ele>41.478085</ele>
        <time>2022-03-08T10:06:09Z</time>
      </trkpt>
      <trkpt lat="47.26164" lon="-1.53842">
        <ele>42.017887</ele>
        <time>2022-03-08T10:06:16Z</time>
      </trkpt>
      <trkpt lat="47.2617" lon="-1.53844">
        <ele>42.112633</ele>
        <time>2022-03-08T10:06:21Z</time>
      </trkpt>
      <trkpt lat="47.26175" lon="-1.53845">
        <ele>42.143627</ele>
        <time>2022-03-08T10:06:26Z</time>
      </trkpt>
      <trkpt lat="47.2618" lon="-1.53849">
        <ele>42.227264</ele>
        <time>2022-03-08T10:06:29Z</time>
      </trkpt>
      <trkpt lat="47.26184" lon="-1.53849">
        <ele>42.62466</ele>
        <time>2022-03-08T10:06:34Z</time>
      </trkpt>
      <trkpt lat="47.26189" lon="-1.53852">
        <ele>42.979183</ele>
        <time>2022-03-08T10:06:39Z</time>
      </trkpt>
      <trkpt lat="47.26193" lon="-1.53855">
        <ele>43.36297</ele>
        <time>2022-03-08T10:06:42Z</time>
      </trkpt>
      <trkpt lat="47.26197" lon="-1.53857">
        <ele>44.4614</ele>
        <time>2022-03-08T10:06:47Z</time>
      </trkpt>
      <trkpt lat="47.26201" lon="-1.53862">
        <ele>45.069176</ele>
        <time>2022-03-08T10:06:50Z</time>
      </trkpt>
      <trkpt lat="47.26205" lon="-1.53866">
        <ele>45.685524</ele>
        <time>2022-03-08T10:06:54Z</time>
      </trkpt>
      <trkpt lat="47.26209" lon="-1.53869">
        <ele>46.861206</ele>
        <time>2022-03-08T10:07:00Z</time>
      </trkpt>
      <trkpt lat="47.26214" lon="-1.53875">
        <ele>47.303955</ele>
        <time>2022-03-08T10:07:03Z</time>
      </trkpt>
      <trkpt lat="47.26218" lon="-1.53881">
        <ele>47.60374</ele>
        <time>2022-03-08T10:07:06Z</time>
      </trkpt>
      <trkpt lat="47.26222" lon="-1.53886">
        <ele>47.77057</ele>
        <time>2022-03-08T10:07:09Z</time>
      </trkpt>
      <trkpt lat="47.26226" lon="-1.5389">
        <ele>47.9156</ele>
        <time>2022-03-08T10:07:13Z</time>
      </trkpt>
      <trkpt lat="47.26231" lon="-1.53892">
        <ele>48.07302</ele>
        <time>2022-03-08T10:07:17Z</time>
      </trkpt>
      <trkpt lat="47.26234" lon="-1.53898">
        <ele>48.439137</ele>
        <time>2022-03-08T10:07:22Z</time>
      </trkpt>
      <trkpt lat="47.26238" lon="-1.53902">
        <ele>48.75835</ele>
        <time>2022-03-08T10:07:26Z</time>
      </trkpt>
      <trkpt lat="47.26243" lon="-1.53904">
        <ele>48.92154</ele>
        <time>2022-03-08T10:07:29Z</time>
      </trkpt>
      <trkpt lat="47.26247" lon="-1.53909">
        <ele>48.58212</ele>
        <time>2022-03-08T10:07:34Z</time>
      </trkpt>
      <trkpt lat="47.26253" lon="-1.53912">
        <ele>48.226864</ele>
        <time>2022-03-08T10:07:39Z</time>
      </trkpt>
      <trkpt lat="47.26258" lon="-1.53913">
        <ele>48.080566</ele>
        <time>2022-03-08T10:07:42Z</time>
      </trkpt>
      <trkpt lat="47.26262" lon="-1.53916">
        <ele>48.09657</ele>
        <time>2022-03-08T10:07:45Z</time>
      </trkpt>
      <trkpt lat="47.26266" lon="-1.53922">
        <ele>48.115097</ele>
        <time>2022-03-08T10:07:48Z</time>
      </trkpt>
      <trkpt lat="47.2627" lon="-1.53927">
        <ele>47.96184</ele>
        <time>2022-03-08T10:07:51Z</time>
      </trkpt>
      <trkpt lat="47.26274" lon="-1.53931">
        <ele>47.880375</ele>
        <time>2022-03-08T10:07:53Z</time>
      </trkpt>
      <trkpt lat="47.26279" lon="-1.53936">
        <ele>47.89319</ele>
        <time>2022-03-08T10:07:56Z</time>
      </trkpt>
      <trkpt lat="47.26283" lon="-1.5394">
        <ele>47.82892</ele>
        <time>2022-03-08T10:08:00Z</time>
      </trkpt>
      <trkpt lat="47.26287" lon="-1.53944">
        <ele>47.64962</ele>
        <time>2022-03-08T10:08:04Z</time>
      </trkpt>
      <trkpt lat="47.26292" lon="-1.53947">
        <ele>47.50867</ele>
        <time>2022-03-08T10:08:07Z</time>
      </trkpt>
      <trkpt lat="47.26298" lon="-1.5395">
        <ele>47.23552</ele>
        <time>2022-03-08T10:08:10Z</time>
      </trkpt>
      <trkpt lat="47.26304" lon="-1.53955">
        <ele>46.962265</ele>
        <time>2022-03-08T10:08:13Z</time>
      </trkpt>
      <trkpt lat="47.26308" lon="-1.53958">
        <ele>46.67627</ele>
        <time>2022-03-08T10:08:17Z</time>
      </trkpt>
      <trkpt lat="47.26315" lon="-1.53959">
        <ele>46.308044</ele>
        <time>2022-03-08T10:08:22Z</time>
      </trkpt>
      <trkpt lat="47.26319" lon="-1.53962">
        <ele>45.99905</ele>
        <time>2022-03-08T10:08:25Z</time>
      </trkpt>
      <trkpt lat="47.26323" lon="-1.53965">
        <ele>45.702423</ele>
        <time>2022-03-08T10:08:29Z</time>
      </trkpt>
      <trkpt lat="47.26327" lon="-1.5397">
        <ele>45.174145</ele>
        <time>2022-03-08T10:08:33Z</time>
      </trkpt>
      <trkpt lat="47.26333" lon="-1.53972">
        <ele>44.28179</ele>
        <time>2022-03-08T10:08:39Z</time>
      </trkpt>
      <trkpt lat="47.26338" lon="-1.53973">
        <ele>43.450832</ele>
        <time>2022-03-08T10:08:43Z</time>
      </trkpt>
      <trkpt lat="47.26344" lon="-1.53974">
        <ele>42.40031</ele>
        <time>2022-03-08T10:08:47Z</time>
      </trkpt>
      <trkpt lat="47.2635" lon="-1.53976">
        <ele>41.37814</ele>
        <time>2022-03-08T10:08:51Z</time>
      </trkpt>
      <trkpt lat="47.26358" lon="-1.53981">
        <ele>40.379303</ele>
        <time>2022-03-08T10:08:55Z</time>
      </trkpt>
      <trkpt lat="47.26363" lon="-1.53983">
        <ele>39.4589</ele>
        <time>2022-03-08T10:08:59Z</time>
      </trkpt>
      <trkpt lat="47.26367" lon="-1.53983">
        <ele>38.703648</ele>
        <time>2022-03-08T10:09:03Z</time>
      </trkpt>
      <trkpt lat="47.26373" lon="-1.53986">
        <ele>38.239227</ele>
        <time>2022-03-08T10:09:07Z</time>
      </trkpt>
      <trkpt lat="47.26378" lon="-1.53985">
        <ele>37.969524</ele>
        <time>2022-03-08T10:09:11Z</time>
      </trkpt>
      <trkpt lat="47.26383" lon="-1.53987">
        <ele>37.75683</ele>
        <time>2022-03-08T10:09:14Z</time>
      </trkpt>
      <trkpt lat="47.2639" lon="-1.53988">
        <ele>37.577724</ele>
        <time>2022-03-08T10:09:19Z</time>
      </trkpt>
      <trkpt lat="47.26395" lon="-1.5399">
        <ele>37.45391</ele>
        <time>2022-03-08T10:09:22Z</time>
      </trkpt>
      <trkpt lat="47.26402" lon="-1.53991">
        <ele>37.598488</ele>
        <time>2022-03-08T10:09:28Z</time>
      </trkpt>
      <trkpt lat="47.26406" lon="-1.53992">
        <ele>38.121365</ele>
        <time>2022-03-08T10:09:34Z</time>
      </trkpt>
      <trkpt lat="47.26411" lon="-1.53991">
        <ele>38.693043</ele>
        <time>2022-03-08T10:09:38Z</time>
      </trkpt>
      <trkpt lat="47.26417" lon="-1.53993">
        <ele>39.574844</ele>
        <time>2022-03-08T10:09:45Z</time>
      </trkpt>
      <trkpt lat="47.26422" lon="-1.53995">
        <ele>39.992176</ele>
        <time>2022-03-08T10:09:48Z</time>
      </trkpt>
      <trkpt lat="47.26427" lon="-1.53998">
        <ele>40.27998</ele>
        <time>2022-03-08T10:09:51Z</time>
      </trkpt>
      <trkpt lat="47.26432" lon="-1.54">
        <ele>40.573257</ele>
        <time>2022-03-08T10:09:54Z</time>
      </trkpt>
      <trkpt lat="47.26437" lon="-1.54001">
        <ele>41.09265</ele>
        <time>2022-03-08T10:09:59Z</time>
      </trkpt>
      <trkpt lat="47.26442" lon="-1.54005">
        <ele>41.418682</ele>
        <time>2022-03-08T10:10:03Z</time>
      </trkpt>
      <trkpt lat="47.26447" lon="-1.54006">
        <ele>41.573853</ele>
        <time>2022-03-08T10:10:06Z</time>
      </trkpt>
      <trkpt lat="47.26452" lon="-1.54002">
        <ele>41.639248</ele>
        <time>2022-03-08T10:10:09Z</time>
      </trkpt>
      <trkpt lat="47.26456" lon="-1.53999">
        <ele>41.70107</ele>
        <time>2022-03-08T10:10:12Z</time>
      </trkpt>
      <trkpt lat="47.2646" lon="-1.53996">
        <ele>41.743896</ele>
        <time>2022-03-08T10:10:15Z</time>
      </trkpt>
      <trkpt lat="47.26466" lon="-1.53994">
        <ele>41.779263</ele>
        <time>2022-03-08T10:10:19Z</time>
      </trkpt>
      <trkpt lat="47.26471" lon="-1.53991">
        <ele>41.89361</ele>
        <time>2022-03-08T10:10:24Z</time>
      </trkpt>
      <trkpt lat="47.26475" lon="-1.53987">
        <ele>42.09379</ele>
        <time>2022-03-08T10:10:28Z</time>
      </trkpt>
      <trkpt lat="47.26481" lon="-1.53983">
        <ele>42.458862</ele>
        <time>2022-03-08T10:10:33Z</time>
      </trkpt>
      <trkpt lat="47.26484" lon="-1.53979">
        <ele>42.717865</ele>
        <time>2022-03-08T10:10:37Z</time>
      </trkpt>
      <trkpt lat="47.26489" lon="-1.53978">
        <ele>42.41614</ele>
        <time>2022-03-08T10:10:43Z</time>
      </trkpt>
      <trkpt lat="47.26494" lon="-1.53978">
        <ele>42.004925</ele>
        <time>2022-03-08T10:10:46Z</time>
      </trkpt>
      <trkpt lat="47.26499" lon="-1.53979">
        <ele>41.50433</ele>
        <time>2022-03-08T10:10:50Z</time>
      </trkpt>
      <trkpt lat="47.26504" lon="-1.53981">
        <ele>41.032246</ele>
        <time>2022-03-08T10:10:54Z</time>
      </trkpt>
      <trkpt lat="47.2651" lon="-1.53979">
        <ele>40.735073</ele>
        <time>2022-03-08T10:11:00Z</time>
      </trkpt>
      <trkpt lat="47.26514" lon="-1.53981">
        <ele>40.655724</ele>
        <time>2022-03-08T10:11:04Z</time>
      </trkpt>
      <trkpt lat="47.26519" lon="-1.53984">
        <ele>40.58239</ele>
        <time>2022-03-08T10:11:07Z</time>
      </trkpt>
      <trkpt lat="47.26524" lon="-1.53986">
        <ele>40.47203</ele>
        <time>2022-03-08T10:11:11Z</time>
      </trkpt>
      <trkpt lat="47.26529" lon="-1.53989">
        <ele>40.350094</ele>
        <time>2022-03-08T10:11:15Z</time>
      </trkpt>
      <trkpt lat="47.26535" lon="-1.53991">
        <ele>40.186443</ele>
        <time>2022-03-08T10:11:19Z</time>
      </trkpt>
      <trkpt lat="47.2654" lon="-1.53991">
        <ele>39.758575</ele>
        <time>2022-03-08T10:11:24Z</time>
      </trkpt>
      <trkpt lat="47.26546" lon="-1.53993">
        <ele>39.272243</ele>
        <time>2022-03-08T10:11:29Z</time>
      </trkpt>
      <trkpt lat="47.2655" lon="-1.53996">
        <ele>39.011684</ele>
        <time>2022-03-08T10:11:32Z</time>
      </trkpt>
      <trkpt lat="47.26555" lon="-1.54001">
        <ele>38.807827</ele>
        <time>2022-03-08T10:11:35Z</time>
      </trkpt>
      <trkpt lat="47.26558" lon="-1.54008">
        <ele>38.874897</ele>
        <time>2022-03-08T10:11:38Z</time>
      </trkpt>
      <trkpt lat="47.26562" lon="-1.54013">
        <ele>39.120373</ele>
        <time>2022-03-08T10:11:41Z</time>
      </trkpt>
      <trkpt lat="47.26568" lon="-1.54015">
        <ele>39.559868</ele>
        <time>2022-03-08T10:11:46Z</time>
      </trkpt>
      <trkpt lat="47.26572" lon="-1.54014">
        <ele>39.777462</ele>
        <time>2022-03-08T10:11:52Z</time>
      </trkpt>
      <trkpt lat="47.26577" lon="-1.54015">
        <ele>40.080044</ele>
        <time>2022-03-08T10:11:56Z</time>
      </trkpt>
      <trkpt lat="47.26582" lon="-1.54019">
        <ele>40.52499</ele>
        <time>2022-03-08T10:12:00Z</time>
      </trkpt>
      <trkpt lat="47.26585" lon="-1.54015">
        <ele>41.434002</ele>
        <time>2022-03-08T10:12:06Z</time>
      </trkpt>
      <trkpt lat="47.2659" lon="-1.54014">
        <ele>42.84174</ele>
        <time>2022-03-08T10:12:12Z</time>
      </trkpt>
      <trkpt lat="47.26595" lon="-1.54015">
        <ele>44.553204</ele>
        <time>2022-03-08T10:12:18Z</time>
      </trkpt>
      <trkpt lat="47.26598" lon="-1.54012">
        <ele>46.107986</ele>
        <time>2022-03-08T10:12:25Z</time>
      </trkpt>
      <trkpt lat="47.26601" lon="-1.54017">
        <ele>47.289486</ele>
        <time>2022-03-08T10:12:30Z</time>
      </trkpt>
      <trkpt lat="47.26605" lon="-1.54021">
        <ele>48.638695</ele>
        <time>2022-03-08T10:12:35Z</time>
      </trkpt>
      <trkpt lat="47.26604" lon="-1.54028">
        <ele>49.978897</ele>
        <time>2022-03-08T10:12:41Z</time>
      </trkpt>
      <trkpt lat="47.26607" lon="-1.54032">
        <ele>50.84158</ele>
        <time>2022-03-08T10:12:47Z</time>
      </trkpt>
      <trkpt lat="47.26612" lon="-1.54038">
        <ele>50.956245</ele>
        <time>2022-03-08T10:12:50Z</time>
      </trkpt>
      <trkpt lat="47.26614" lon="-1.54044">
        <ele>50.935066</ele>
        <time>2022-03-08T10:12:56Z</time>
      </trkpt>
      <trkpt lat="47.26617" lon="-1.54051">
        <ele>51.08315</ele>
        <time>2022-03-08T10:13:02Z</time>
      </trkpt>
      <trkpt lat="47.26621" lon="-1.54055">
        <ele>51.130726</ele>
        <time>2022-03-08T10:13:06Z</time>
      </trkpt>
      <trkpt lat="47.26625" lon="-1.5406">
        <ele>51.29479</ele>
        <time>2022-03-08T10:13:10Z</time>
      </trkpt>
      <trkpt lat="47.26626" lon="-1.54066">
        <ele>51.534027</ele>
        <time>2022-03-08T10:13:13Z</time>
      </trkpt>
      <trkpt lat="47.26628" lon="-1.54073">
        <ele>51.6668</ele>
        <time>2022-03-08T10:13:15Z</time>
      </trkpt>
      <trkpt lat="47.2663" lon="-1.5408">
        <ele>51.797268</ele>
        <time>2022-03-08T10:13:17Z</time>
      </trkpt>
      <trkpt lat="47.26632" lon="-1.54087">
        <ele>52.098362</ele>
        <time>2022-03-08T10:13:21Z</time>
      </trkpt>
      <trkpt lat="47.26636" lon="-1.54092">
        <ele>52.77645</ele>
        <time>2022-03-08T10:13:27Z</time>
      </trkpt>
      <trkpt lat="47.26639" lon="-1.54097">
        <ele>52.9665</ele>
        <time>2022-03-08T10:13:31Z</time>
      </trkpt>
      <trkpt lat="47.26641" lon="-1.54103">
        <ele>53.30138</ele>
        <time>2022-03-08T10:13:39Z</time>
      </trkpt>
      <trkpt lat="47.26646" lon="-1.54103">
        <ele>53.691868</ele>
        <time>2022-03-08T10:13:42Z</time>
      </trkpt>
      <trkpt lat="47.2665" lon="-1.54108">
        <ele>54.220154</ele>
        <time>2022-03-08T10:13:46Z</time>
      </trkpt>
      <trkpt lat="47.26654" lon="-1.54112">
        <ele>54.601574</ele>
        <time>2022-03-08T10:13:50Z</time>
      </trkpt>
      <trkpt lat="47.26655" lon="-1.54119">
        <ele>55.155</ele>
        <time>2022-03-08T10:13:54Z</time>
      </trkpt>
      <trkpt lat="47.26657" lon="-1.54125">
        <ele>55.88714</ele>
        <time>2022-03-08T10:13:58Z</time>
      </trkpt>
      <trkpt lat="47.2666" lon="-1.54131">
        <ele>56.702335</ele>
        <time>2022-03-08T10:14:04Z</time>
      </trkpt>
      <trkpt lat="47.26664" lon="-1.54136">
        <ele>57.08738</ele>
        <time>2022-03-08T10:14:08Z</time>
      </trkpt>
      <trkpt lat="47.26669" lon="-1.5414">
        <ele>57.217045</ele>
        <time>2022-03-08T10:14:10Z</time>
      </trkpt>
      <trkpt lat="47.26672" lon="-1.54148">
        <ele>57.375626</ele>
        <time>2022-03-08T10:14:16Z</time>
      </trkpt>
      <trkpt lat="47.26671" lon="-1.54156">
        <ele>57.64676</ele>
        <time>2022-03-08T10:14:26Z</time>
      </trkpt>
      <trkpt lat="47.26669" lon="-1.54162">
        <ele>57.990208</ele>
        <time>2022-03-08T10:14:30Z</time>
      </trkpt>
      <trkpt lat="47.2667" lon="-1.5417">
        <ele>58.826183</ele>
        <time>2022-03-08T10:14:35Z</time>
      </trkpt>
      <trkpt lat="47.26666" lon="-1.54176">
        <ele>59.40353</ele>
        <time>2022-03-08T10:14:40Z</time>
      </trkpt>
      <trkpt lat="47.26662" lon="-1.54182">
        <ele>59.880688</ele>
        <time>2022-03-08T10:14:45Z</time>
      </trkpt>
      <trkpt lat="47.26657" lon="-1.54188">
        <ele>60.695415</ele>
        <time>2022-03-08T10:14:50Z</time>
      </trkpt>
      <trkpt lat="47.26656" lon="-1.54196">
        <ele>61.287506</ele>
        <time>2022-03-08T10:14:55Z</time>
      </trkpt>
      <trkpt lat="47.26655" lon="-1.54203">
        <ele>61.30484</ele>
        <time>2022-03-08T10:14:58Z</time>
      </trkpt>
      <trkpt lat="47.26652" lon="-1.5421">
        <ele>61.33398</ele>
        <time>2022-03-08T10:15:01Z</time>
      </trkpt>
      <trkpt lat="47.2665" lon="-1.54216">
        <ele>61.36062</ele>
        <time>2022-03-08T10:15:04Z</time>
      </trkpt>
      <trkpt lat="47.26647" lon="-1.54223">
        <ele>61.25231</ele>
        <time>2022-03-08T10:15:07Z</time>
      </trkpt>
      <trkpt lat="47.26645" lon="-1.5423">
        <ele>61.21291</ele>
        <time>2022-03-08T10:15:12Z</time>
      </trkpt>
      <trkpt lat="47.26644" lon="-1.54236">
        <ele>61.25513</ele>
        <time>2022-03-08T10:15:16Z</time>
      </trkpt>
      <trkpt lat="47.26644" lon="-1.54244">
        <ele>61.332073</ele>
        <time>2022-03-08T10:15:22Z</time>
      </trkpt>
      <trkpt lat="47.26642" lon="-1.54252">
        <ele>61.268723</ele>
        <time>2022-03-08T10:15:26Z</time>
      </trkpt>
      <trkpt lat="47.26639" lon="-1.54259">
        <ele>61.286617</ele>
        <time>2022-03-08T10:15:28Z</time>
      </trkpt>
      <trkpt lat="47.26636" lon="-1.54266">
        <ele>61.30597</ele>
        <time>2022-03-08T10:15:31Z</time>
      </trkpt>
      <trkpt lat="47.26634" lon="-1.54272">
        <ele>61.27921</ele>
        <time>2022-03-08T10:15:34Z</time>
      </trkpt>
      <trkpt lat="47.2663" lon="-1.54278">
        <ele>60.998165</ele>
        <time>2022-03-08T10:15:39Z</time>
      </trkpt>
      <trkpt lat="47.26629" lon="-1.54285">
        <ele>60.91117</ele>
        <time>2022-03-08T10:15:42Z</time>
      </trkpt>
      <trkpt lat="47.26626" lon="-1.54292">
        <ele>60.943283</ele>
        <time>2022-03-08T10:15:48Z</time>
      </trkpt>
      <trkpt lat="47.26623" lon="-1.54298">
        <ele>60.947052</ele>
        <time>2022-03-08T10:15:53Z</time>
      </trkpt>
      <trkpt lat="47.26624" lon="-1.54305">
        <ele>60.835938</ele>
        <time>2022-03-08T10:15:58Z</time>
      </trkpt>
      <trkpt lat="47.26625" lon="-1.54312">
        <ele>60.55793</ele>
        <time>2022-03-08T10:16:02Z</time>
      </trkpt>
      <trkpt lat="47.26626" lon="-1.5432">
        <ele>60.404907</ele>
        <time>2022-03-08T10:16:07Z</time>
      </trkpt>
      <trkpt lat="47.26627" lon="-1.54327">
        <ele>60.43697</ele>
        <time>2022-03-08T10:16:10Z</time>
      </trkpt>
      <trkpt lat="47.26627" lon="-1.54334">
        <ele>60.628914</ele>
        <time>2022-03-08T10:16:13Z</time>
      </trkpt>
      <trkpt lat="47.26628" lon="-1.54341">
        <ele>60.97498</ele>
        <time>2022-03-08T10:16:18Z</time>
      </trkpt>
      <trkpt lat="47.26629" lon="-1.54349">
        <ele>61.410595</ele>
        <time>2022-03-08T10:16:23Z</time>
      </trkpt>
      <trkpt lat="47.26629" lon="-1.54357">
        <ele>61.964924</ele>
        <time>2022-03-08T10:16:29Z</time>
      </trkpt>
      <trkpt lat="47.26628" lon="-1.54364">
        <ele>62.30624</ele>
        <time>2022-03-08T10:16:33Z</time>
      </trkpt>
      <trkpt lat="47.26625" lon="-1.54371">
        <ele>62.61709</ele>
        <time>2022-03-08T10:16:37Z</time>
      </trkpt>
      <trkpt lat="47.26621" lon="-1.54375">
        <ele>63.05982</ele>
        <time>2022-03-08T10:16:43Z</time>
      </trkpt>
      <trkpt lat="47.26617" lon="-1.54379">
        <ele>63.379154</ele>
        <time>2022-03-08T10:16:47Z</time>
      </trkpt>
      <trkpt lat="47.26611" lon="-1.54381">
        <ele>64.036255</ele>
        <time>2022-03-08T10:16:53Z</time>
      </trkpt>
      <trkpt lat="47.26606" lon="-1.54383">
        <ele>64.70681</ele>
        <time>2022-03-08T10:16:59Z</time>
      </trkpt>
      <trkpt lat="47.26601" lon="-1.54385">
        <ele>65.15695</ele>
        <time>2022-03-08T10:17:04Z</time>
      </trkpt>
      <trkpt lat="47.26595" lon="-1.54388">
        <ele>65.555214</ele>
        <time>2022-03-08T10:17:09Z</time>
      </trkpt>
      <trkpt lat="47.2659" lon="-1.5439">
        <ele>65.77764</ele>
        <time>2022-03-08T10:17:12Z</time>
      </trkpt>
      <trkpt lat="47.26584" lon="-1.54392">
        <ele>66.113976</ele>
        <time>2022-03-08T10:17:16Z</time>
      </trkpt>
      <trkpt lat="47.2658" lon="-1.54396">
        <ele>66.4936</ele>
        <time>2022-03-08T10:17:20Z</time>
      </trkpt>
      <trkpt lat="47.26577" lon="-1.54402">
        <ele>66.86128</ele>
        <time>2022-03-08T10:17:24Z</time>
      </trkpt>
      <trkpt lat="47.26576" lon="-1.54409">
        <ele>67.07472</ele>
        <time>2022-03-08T10:17:29Z</time>
      </trkpt>
      <trkpt lat="47.26576" lon="-1.54416">
        <ele>67.16291</ele>
        <time>2022-03-08T10:17:32Z</time>
      </trkpt>
      <trkpt lat="47.26579" lon="-1.54423">
        <ele>67.262566</ele>
        <time>2022-03-08T10:17:36Z</time>
      </trkpt>
      <trkpt lat="47.2658" lon="-1.54429">
        <ele>67.24791</ele>
        <time>2022-03-08T10:17:40Z</time>
      </trkpt>
      <trkpt lat="47.26582" lon="-1.54437">
        <ele>67.1963</ele>
        <time>2022-03-08T10:17:44Z</time>
      </trkpt>
      <trkpt lat="47.26583" lon="-1.54443">
        <ele>67.172104</ele>
        <time>2022-03-08T10:17:47Z</time>
      </trkpt>
      <trkpt lat="47.26585" lon="-1.54449">
        <ele>67.17746</ele>
        <time>2022-03-08T10:17:50Z</time>
      </trkpt>
      <trkpt lat="47.26589" lon="-1.54455">
        <ele>67.21667</ele>
        <time>2022-03-08T10:17:53Z</time>
      </trkpt>
      <trkpt lat="47.26592" lon="-1.5446">
        <ele>67.29574</ele>
        <time>2022-03-08T10:17:56Z</time>
      </trkpt>
      <trkpt lat="47.26596" lon="-1.54464">
        <ele>67.382126</ele>
        <time>2022-03-08T10:17:59Z</time>
      </trkpt>
      <trkpt lat="47.266" lon="-1.54467">
        <ele>67.45495</ele>
        <time>2022-03-08T10:18:03Z</time>
      </trkpt>
      <trkpt lat="47.26606" lon="-1.54464">
        <ele>67.293564</ele>
        <time>2022-03-08T10:18:08Z</time>
      </trkpt>
      <trkpt lat="47.26611" lon="-1.54462">
        <ele>67.076614</ele>
        <time>2022-03-08T10:18:11Z</time>
      </trkpt>
      <trkpt lat="47.26616" lon="-1.54461">
        <ele>66.92617</ele>
        <time>2022-03-08T10:18:14Z</time>
      </trkpt>
      <trkpt lat="47.26621" lon="-1.54459">
        <ele>66.78861</ele>
        <time>2022-03-08T10:18:18Z</time>
      </trkpt>
      <trkpt lat="47.26626" lon="-1.54457">
        <ele>66.69992</ele>
        <time>2022-03-08T10:18:22Z</time>
      </trkpt>
      <trkpt lat="47.26632" lon="-1.54457">
        <ele>66.694</ele>
        <time>2022-03-08T10:18:25Z</time>
      </trkpt>
      <trkpt lat="47.26637" lon="-1.54455">
        <ele>66.66321</ele>
        <time>2022-03-08T10:18:29Z</time>
      </trkpt>
      <trkpt lat="47.26642" lon="-1.54454">
        <ele>66.680046</ele>
        <time>2022-03-08T10:18:33Z</time>
      </trkpt>
      <trkpt lat="47.26647" lon="-1.54453">
        <ele>66.671814</ele>
        <time>2022-03-08T10:18:37Z</time>
      </trkpt>
      <trkpt lat="47.26652" lon="-1.54451">
        <ele>66.5684</ele>
        <time>2022-03-08T10:18:41Z</time>
      </trkpt>
      <trkpt lat="47.26657" lon="-1.54451">
        <ele>66.52193</ele>
        <time>2022-03-08T10:18:44Z</time>
      </trkpt>
      <trkpt lat="47.26661" lon="-1.5445">
        <ele>66.48952</ele>
        <time>2022-03-08T10:18:48Z</time>
      </trkpt>
      <trkpt lat="47.26666" lon="-1.5445">
        <ele>66.35035</ele>
        <time>2022-03-08T10:18:52Z</time>
      </trkpt>
      <trkpt lat="47.26672" lon="-1.54451">
        <ele>66.069336</ele>
        <time>2022-03-08T10:18:57Z</time>
      </trkpt>
      <trkpt lat="47.26676" lon="-1.54452">
        <ele>65.95917</ele>
        <time>2022-03-08T10:19:00Z</time>
      </trkpt>
      <trkpt lat="47.26681" lon="-1.54452">
        <ele>65.85136</ele>
        <time>2022-03-08T10:19:04Z</time>
      </trkpt>
      <trkpt lat="47.26687" lon="-1.54455">
        <ele>65.740456</ele>
        <time>2022-03-08T10:19:09Z</time>
      </trkpt>
      <trkpt lat="47.26693" lon="-1.54456">
        <ele>65.62594</ele>
        <time>2022-03-08T10:19:13Z</time>
      </trkpt>
      <trkpt lat="47.26698" lon="-1.54456">
        <ele>65.41502</ele>
        <time>2022-03-08T10:19:16Z</time>
      </trkpt>
      <trkpt lat="47.26704" lon="-1.54458">
        <ele>65.01376</ele>
        <time>2022-03-08T10:19:20Z</time>
      </trkpt>
      <trkpt lat="47.26709" lon="-1.54457">
        <ele>64.59018</ele>
        <time>2022-03-08T10:19:25Z</time>
      </trkpt>
      <trkpt lat="47.26713" lon="-1.5446">
        <ele>64.383995</ele>
        <time>2022-03-08T10:19:29Z</time>
      </trkpt>
      <trkpt lat="47.26719" lon="-1.54463">
        <ele>64.31392</ele>
        <time>2022-03-08T10:19:32Z</time>
      </trkpt>
      <trkpt lat="47.26724" lon="-1.54465">
        <ele>64.15405</ele>
        <time>2022-03-08T10:19:36Z</time>
      </trkpt>
      <trkpt lat="47.26728" lon="-1.54469">
        <ele>64.13922</ele>
        <time>2022-03-08T10:19:40Z</time>
      </trkpt>
      <trkpt lat="47.26733" lon="-1.54471">
        <ele>64.20061</ele>
        <time>2022-03-08T10:19:44Z</time>
      </trkpt>
      <trkpt lat="47.26739" lon="-1.54474">
        <ele>64.06981</ele>
        <time>2022-03-08T10:19:48Z</time>
      </trkpt>
      <trkpt lat="47.26743" lon="-1.54478">
        <ele>64.11159</ele>
        <time>2022-03-08T10:19:52Z</time>
      </trkpt>
      <trkpt lat="47.26747" lon="-1.54481">
        <ele>64.35905</ele>
        <time>2022-03-08T10:19:56Z</time>
      </trkpt>
      <trkpt lat="47.26752" lon="-1.54484">
        <ele>64.77769</ele>
        <time>2022-03-08T10:20:01Z</time>
      </trkpt>
      <trkpt lat="47.26755" lon="-1.54489">
        <ele>65.18264</ele>
        <time>2022-03-08T10:20:06Z</time>
      </trkpt>
      <trkpt lat="47.26758" lon="-1.54495">
        <ele>65.37673</ele>
        <time>2022-03-08T10:20:13Z</time>
      </trkpt>
      <trkpt lat="47.26764" lon="-1.54498">
        <ele>65.26681</ele>
        <time>2022-03-08T10:20:18Z</time>
      </trkpt>
      <trkpt lat="47.2677" lon="-1.54501">
        <ele>65.21692</ele>
        <time>2022-03-08T10:20:21Z</time>
      </trkpt>
      <trkpt lat="47.26775" lon="-1.54504">
        <ele>65.1119</ele>
        <time>2022-03-08T10:20:24Z</time>
      </trkpt>
      <trkpt lat="47.26779" lon="-1.54507">
        <ele>64.94369</ele>
        <time>2022-03-08T10:20:28Z</time>
      </trkpt>
      <trkpt lat="47.26784" lon="-1.5451">
        <ele>64.79178</ele>
        <time>2022-03-08T10:20:30Z</time>
      </trkpt>
      <trkpt lat="47.26789" lon="-1.54513">
        <ele>64.49077</ele>
        <time>2022-03-08T10:20:34Z</time>
      </trkpt>
      <trkpt lat="47.26792" lon="-1.5452">
        <ele>64.43024</ele>
        <time>2022-03-08T10:20:38Z</time>
      </trkpt>
      <trkpt lat="47.26796" lon="-1.54524">
        <ele>64.30563</ele>
        <time>2022-03-08T10:20:43Z</time>
      </trkpt>
      <trkpt lat="47.26801" lon="-1.54526">
        <ele>63.984932</ele>
        <time>2022-03-08T10:20:47Z</time>
      </trkpt>
      <trkpt lat="47.26805" lon="-1.54531">
        <ele>63.791004</ele>
        <time>2022-03-08T10:20:51Z</time>
      </trkpt>
      <trkpt lat="47.26808" lon="-1.54537">
        <ele>63.766575</ele>
        <time>2022-03-08T10:20:53Z</time>
      </trkpt>
      <trkpt lat="47.26812" lon="-1.54542">
        <ele>63.875664</ele>
        <time>2022-03-08T10:20:56Z</time>
      </trkpt>
      <trkpt lat="47.26817" lon="-1.54548">
        <ele>64.25602</ele>
        <time>2022-03-08T10:21:00Z</time>
      </trkpt>
      <trkpt lat="47.26823" lon="-1.54553">
        <ele>64.80557</ele>
        <time>2022-03-08T10:21:05Z</time>
      </trkpt>
      <trkpt lat="47.26828" lon="-1.54556">
        <ele>65.043495</ele>
        <time>2022-03-08T10:21:08Z</time>
      </trkpt>
      <trkpt lat="47.26834" lon="-1.54558">
        <ele>65.52577</ele>
        <time>2022-03-08T10:21:12Z</time>
      </trkpt>
      <trkpt lat="47.2684" lon="-1.54561">
        <ele>65.77351</ele>
        <time>2022-03-08T10:21:16Z</time>
      </trkpt>
      <trkpt lat="47.26844" lon="-1.54562">
        <ele>65.89622</ele>
        <time>2022-03-08T10:21:20Z</time>
      </trkpt>
      <trkpt lat="47.2685" lon="-1.54562">
        <ele>66.05752</ele>
        <time>2022-03-08T10:21:24Z</time>
      </trkpt>
      <trkpt lat="47.26856" lon="-1.54563">
        <ele>66.246254</ele>
        <time>2022-03-08T10:21:28Z</time>
      </trkpt>
      <trkpt lat="47.26861" lon="-1.54563">
        <ele>66.31963</ele>
        <time>2022-03-08T10:21:32Z</time>
      </trkpt>
      <trkpt lat="47.26866" lon="-1.54564">
        <ele>66.3338</ele>
        <time>2022-03-08T10:21:35Z</time>
      </trkpt>
      <trkpt lat="47.2687" lon="-1.54565">
        <ele>66.28898</ele>
        <time>2022-03-08T10:21:38Z</time>
      </trkpt>
      <trkpt lat="47.26875" lon="-1.54566">
        <ele>66.36534</ele>
        <time>2022-03-08T10:21:43Z</time>
      </trkpt>
      <trkpt lat="47.26876" lon="-1.54573">
        <ele>66.62845</ele>
        <time>2022-03-08T10:21:50Z</time>
      </trkpt>
      <trkpt lat="47.26874" lon="-1.54581">
        <ele>66.916115</ele>
        <time>2022-03-08T10:21:53Z</time>
      </trkpt>
      <trkpt lat="47.26874" lon="-1.54595">
        <ele>67.72415</ele>
        <time>2022-03-08T10:21:57Z</time>
      </trkpt>
      <trkpt lat="47.26876" lon="-1.54603">
        <ele>68.88063</ele>
        <time>2022-03-08T10:22:01Z</time>
      </trkpt>
      <trkpt lat="47.26878" lon="-1.54611">
        <ele>69.84416</ele>
        <time>2022-03-08T10:22:04Z</time>
      </trkpt>
      <trkpt lat="47.26879" lon="-1.54618">
        <ele>71.47203</ele>
        <time>2022-03-08T10:22:09Z</time>
      </trkpt>
      <trkpt lat="47.26882" lon="-1.54623">
        <ele>72.68245</ele>
        <time>2022-03-08T10:22:15Z</time>
      </trkpt>
      <trkpt lat="47.26887" lon="-1.54624">
        <ele>72.938675</ele>
        <time>2022-03-08T10:22:19Z</time>
      </trkpt>
      <trkpt lat="47.26892" lon="-1.54624">
        <ele>72.79575</ele>
        <time>2022-03-08T10:22:23Z</time>
      </trkpt>
      <trkpt lat="47.26897" lon="-1.54624">
        <ele>72.483475</ele>
        <time>2022-03-08T10:22:26Z</time>
      </trkpt>
      <trkpt lat="47.26902" lon="-1.54625">
        <ele>71.95917</ele>
        <time>2022-03-08T10:22:30Z</time>
      </trkpt>
      <trkpt lat="47.26907" lon="-1.54623">
        <ele>71.343414</ele>
        <time>2022-03-08T10:22:34Z</time>
      </trkpt>
      <trkpt lat="47.26912" lon="-1.54621">
        <ele>70.682594</ele>
        <time>2022-03-08T10:22:38Z</time>
      </trkpt>
      <trkpt lat="47.26917" lon="-1.5462">
        <ele>69.903755</ele>
        <time>2022-03-08T10:22:43Z</time>
      </trkpt>
      <trkpt lat="47.26922" lon="-1.5462">
        <ele>69.5516</ele>
        <time>2022-03-08T10:22:46Z</time>
      </trkpt>
      <trkpt lat="47.26927" lon="-1.5462">
        <ele>69.34857</ele>
        <time>2022-03-08T10:22:50Z</time>
      </trkpt>
      <trkpt lat="47.26932" lon="-1.5462">
        <ele>69.34916</ele>
        <time>2022-03-08T10:22:53Z</time>
      </trkpt>
      <trkpt lat="47.26938" lon="-1.54622">
        <ele>69.36331</ele>
        <time>2022-03-08T10:22:56Z</time>
      </trkpt>
      <trkpt lat="47.26942" lon="-1.54622">
        <ele>69.3432</ele>
        <time>2022-03-08T10:23:02Z</time>
      </trkpt>
      <trkpt lat="47.2695" lon="-1.54623">
        <ele>69.46147</ele>
        <time>2022-03-08T10:23:07Z</time>
      </trkpt>
      <trkpt lat="47.26958" lon="-1.54622">
        <ele>69.53399</ele>
        <time>2022-03-08T10:23:11Z</time>
      </trkpt>
      <trkpt lat="47.26964" lon="-1.54623">
        <ele>69.44373</ele>
        <time>2022-03-08T10:23:15Z</time>
      </trkpt>
      <trkpt lat="47.26969" lon="-1.54624">
        <ele>69.3447</ele>
        <time>2022-03-08T10:23:18Z</time>
      </trkpt>
      <trkpt lat="47.26976" lon="-1.54624">
        <ele>69.223495</ele>
        <time>2022-03-08T10:23:22Z</time>
      </trkpt>
      <trkpt lat="47.26982" lon="-1.54624">
        <ele>69.16737</ele>
        <time>2022-03-08T10:23:26Z</time>
      </trkpt>
      <trkpt lat="47.26987" lon="-1.54624">
        <ele>69.19814</ele>
        <time>2022-03-08T10:23:30Z</time>
      </trkpt>
      <trkpt lat="47.26992" lon="-1.54623">
        <ele>69.17138</ele>
        <time>2022-03-08T10:23:33Z</time>
      </trkpt>
      <trkpt lat="47.26997" lon="-1.5462">
        <ele>69.208305</ele>
        <time>2022-03-08T10:23:37Z</time>
      </trkpt>
      <trkpt lat="47.27003" lon="-1.54619">
        <ele>69.274925</ele>
        <time>2022-03-08T10:23:41Z</time>
      </trkpt>
      <trkpt lat="47.27008" lon="-1.54621">
        <ele>69.27562</ele>
        <time>2022-03-08T10:23:44Z</time>
      </trkpt>
      <trkpt lat="47.27014" lon="-1.5462">
        <ele>69.242424</ele>
        <time>2022-03-08T10:23:48Z</time>
      </trkpt>
      <trkpt lat="47.2702" lon="-1.5462">
        <ele>69.42468</ele>
        <time>2022-03-08T10:23:52Z</time>
      </trkpt>
      <trkpt lat="47.27026" lon="-1.54618">
        <ele>69.654495</ele>
        <time>2022-03-08T10:23:58Z</time>
      </trkpt>
      <trkpt lat="47.27033" lon="-1.54619">
        <ele>69.67042</ele>
        <time>2022-03-08T10:24:02Z</time>
      </trkpt>
      <trkpt lat="47.27037" lon="-1.54618">
        <ele>69.50432</ele>
        <time>2022-03-08T10:24:06Z</time>
      </trkpt>
      <trkpt lat="47.27042" lon="-1.54619">
        <ele>69.55957</ele>
        <time>2022-03-08T10:24:10Z</time>
      </trkpt>
      <trkpt lat="47.27047" lon="-1.54622">
        <ele>69.671234</ele>
        <time>2022-03-08T10:24:13Z</time>
      </trkpt>
      <trkpt lat="47.27053" lon="-1.54624">
        <ele>69.88245</ele>
        <time>2022-03-08T10:24:20Z</time>
      </trkpt>
      <trkpt lat="47.27058" lon="-1.54626">
        <ele>69.9937</ele>
        <time>2022-03-08T10:24:24Z</time>
      </trkpt>
      <trkpt lat="47.27065" lon="-1.54629">
        <ele>70.00841</ele>
        <time>2022-03-08T10:24:28Z</time>
      </trkpt>
      <trkpt lat="47.2707" lon="-1.5463">
        <ele>70.10005</ele>
        <time>2022-03-08T10:24:31Z</time>
      </trkpt>
      <trkpt lat="47.27075" lon="-1.54632">
        <ele>70.163765</ele>
        <time>2022-03-08T10:24:35Z</time>
      </trkpt>
      <trkpt lat="47.2708" lon="-1.5463">
        <ele>69.7905</ele>
        <time>2022-03-08T10:24:42Z</time>
      </trkpt>
      <trkpt lat="47.27086" lon="-1.54633">
        <ele>69.638115</ele>
        <time>2022-03-08T10:24:45Z</time>
      </trkpt>
      <trkpt lat="47.27093" lon="-1.54636">
        <ele>69.39043</ele>
        <time>2022-03-08T10:24:50Z</time>
      </trkpt>
      <trkpt lat="47.27098" lon="-1.54638">
        <ele>69.329025</ele>
        <time>2022-03-08T10:24:52Z</time>
      </trkpt>
      <trkpt lat="47.27103" lon="-1.54639">
        <ele>69.30592</ele>
        <time>2022-03-08T10:24:55Z</time>
      </trkpt>
      <trkpt lat="47.27108" lon="-1.5464">
        <ele>69.41455</ele>
        <time>2022-03-08T10:25:00Z</time>
      </trkpt>
      <trkpt lat="47.27114" lon="-1.5464">
        <ele>69.48479</ele>
        <time>2022-03-08T10:25:03Z</time>
      </trkpt>
      <trkpt lat="47.27118" lon="-1.5464">
        <ele>69.56376</ele>
        <time>2022-03-08T10:25:06Z</time>
      </trkpt>
      <trkpt lat="47.27124" lon="-1.54642">
        <ele>69.652115</ele>
        <time>2022-03-08T10:25:09Z</time>
      </trkpt>
      <trkpt lat="47.27129" lon="-1.54643">
        <ele>69.60535</ele>
        <time>2022-03-08T10:25:13Z</time>
      </trkpt>
      <trkpt lat="47.27134" lon="-1.54645">
        <ele>69.431076</ele>
        <time>2022-03-08T10:25:17Z</time>
      </trkpt>
      <trkpt lat="47.27139" lon="-1.54646">
        <ele>69.1178</ele>
        <time>2022-03-08T10:25:21Z</time>
      </trkpt>
      <trkpt lat="47.27144" lon="-1.54647">
        <ele>68.77237</ele>
        <time>2022-03-08T10:25:25Z</time>
      </trkpt>
      <trkpt lat="47.27149" lon="-1.54649">
        <ele>68.43399</ele>
        <time>2022-03-08T10:25:28Z</time>
      </trkpt>
      <trkpt lat="47.27154" lon="-1.5465">
        <ele>68.07155</ele>
        <time>2022-03-08T10:25:31Z</time>
      </trkpt>
      <trkpt lat="47.27159" lon="-1.54652">
        <ele>67.63734</ele>
        <time>2022-03-08T10:25:35Z</time>
      </trkpt>
      <trkpt lat="47.27165" lon="-1.54653">
        <ele>67.23095</ele>
        <time>2022-03-08T10:25:40Z</time>
      </trkpt>
      <trkpt lat="47.27171" lon="-1.54656">
        <ele>66.97494</ele>
        <time>2022-03-08T10:25:44Z</time>
      </trkpt>
      <trkpt lat="47.27176" lon="-1.54659">
        <ele>66.91825</ele>
        <time>2022-03-08T10:25:47Z</time>
      </trkpt>
      <trkpt lat="47.2718" lon="-1.54659">
        <ele>66.87018</ele>
        <time>2022-03-08T10:25:51Z</time>
      </trkpt>
      <trkpt lat="47.27185" lon="-1.5466">
        <ele>66.86169</ele>
        <time>2022-03-08T10:25:54Z</time>
      </trkpt>
      <trkpt lat="47.2719" lon="-1.54662">
        <ele>66.823364</ele>
        <time>2022-03-08T10:25:59Z</time>
      </trkpt>
      <trkpt lat="47.27195" lon="-1.54665">
        <ele>66.787285</ele>
        <time>2022-03-08T10:26:03Z</time>
      </trkpt>
      <trkpt lat="47.27201" lon="-1.54666">
        <ele>66.71</ele>
        <time>2022-03-08T10:26:07Z</time>
      </trkpt>
      <trkpt lat="47.27209" lon="-1.5467">
        <ele>66.44406</ele>
        <time>2022-03-08T10:26:11Z</time>
      </trkpt>
      <trkpt lat="47.27215" lon="-1.54673">
        <ele>66.21169</ele>
        <time>2022-03-08T10:26:14Z</time>
      </trkpt>
      <trkpt lat="47.2722" lon="-1.54674">
        <ele>66.001945</ele>
        <time>2022-03-08T10:26:16Z</time>
      </trkpt>
      <trkpt lat="47.27224" lon="-1.54674">
        <ele>65.74444</ele>
        <time>2022-03-08T10:26:19Z</time>
      </trkpt>
      <trkpt lat="47.27229" lon="-1.54673">
        <ele>65.50731</ele>
        <time>2022-03-08T10:26:23Z</time>
      </trkpt>
      <trkpt lat="47.27234" lon="-1.54676">
        <ele>65.33799</ele>
        <time>2022-03-08T10:26:27Z</time>
      </trkpt>
      <trkpt lat="47.27239" lon="-1.54679">
        <ele>65.2345</ele>
        <time>2022-03-08T10:26:30Z</time>
      </trkpt>
      <trkpt lat="47.27244" lon="-1.54679">
        <ele>65.19077</ele>
        <time>2022-03-08T10:26:33Z</time>
      </trkpt>
      <trkpt lat="47.2725" lon="-1.54681">
        <ele>65.303505</ele>
        <time>2022-03-08T10:26:39Z</time>
      </trkpt>
      <trkpt lat="47.27255" lon="-1.54681">
        <ele>65.73893</ele>
        <time>2022-03-08T10:26:43Z</time>
      </trkpt>
      <trkpt lat="47.2726" lon="-1.54681">
        <ele>66.00255</ele>
        <time>2022-03-08T10:26:47Z</time>
      </trkpt>
      <trkpt lat="47.27265" lon="-1.54683">
        <ele>66.0981</ele>
        <time>2022-03-08T10:26:52Z</time>
      </trkpt>
      <trkpt lat="47.27271" lon="-1.54685">
        <ele>65.98043</ele>
        <time>2022-03-08T10:26:55Z</time>
      </trkpt>
      <trkpt lat="47.27275" lon="-1.54689">
        <ele>65.799904</ele>
        <time>2022-03-08T10:26:59Z</time>
      </trkpt>
      <trkpt lat="47.27282" lon="-1.54687">
        <ele>65.80705</ele>
        <time>2022-03-08T10:27:02Z</time>
      </trkpt>
      <trkpt lat="47.27287" lon="-1.54688">
        <ele>65.75835</ele>
        <time>2022-03-08T10:27:05Z</time>
      </trkpt>
      <trkpt lat="47.27293" lon="-1.54692">
        <ele>65.89797</ele>
        <time>2022-03-08T10:27:11Z</time>
      </trkpt>
      <trkpt lat="47.27297" lon="-1.54694">
        <ele>65.885414</ele>
        <time>2022-03-08T10:27:14Z</time>
      </trkpt>
      <trkpt lat="47.27302" lon="-1.54699">
        <ele>65.77976</ele>
        <time>2022-03-08T10:27:18Z</time>
      </trkpt>
      <trkpt lat="47.27307" lon="-1.54702">
        <ele>65.63091</ele>
        <time>2022-03-08T10:27:22Z</time>
      </trkpt>
      <trkpt lat="47.27312" lon="-1.54701">
        <ele>65.32188</ele>
        <time>2022-03-08T10:27:26Z</time>
      </trkpt>
      <trkpt lat="47.27317" lon="-1.54705">
        <ele>64.886024</ele>
        <time>2022-03-08T10:27:30Z</time>
      </trkpt>
      <trkpt lat="47.27322" lon="-1.54705">
        <ele>64.72066</ele>
        <time>2022-03-08T10:27:32Z</time>
      </trkpt>
      <trkpt lat="47.27327" lon="-1.54705">
        <ele>64.69081</ele>
        <time>2022-03-08T10:27:34Z</time>
      </trkpt>
      <trkpt lat="47.27333" lon="-1.54705">
        <ele>64.67021</ele>
        <time>2022-03-08T10:27:37Z</time>
      </trkpt>
      <trkpt lat="47.27338" lon="-1.54706">
        <ele>64.617195</ele>
        <time>2022-03-08T10:27:40Z</time>
      </trkpt>
      <trkpt lat="47.27343" lon="-1.54706">
        <ele>64.580734</ele>
        <time>2022-03-08T10:27:44Z</time>
      </trkpt>
      <trkpt lat="47.27347" lon="-1.54708">
        <ele>64.6184</ele>
        <time>2022-03-08T10:27:48Z</time>
      </trkpt>
      <trkpt lat="47.27353" lon="-1.5471">
        <ele>64.94695</ele>
        <time>2022-03-08T10:27:52Z</time>
      </trkpt>
      <trkpt lat="47.27357" lon="-1.54712">
        <ele>65.24309</ele>
        <time>2022-03-08T10:27:56Z</time>
      </trkpt>
      <trkpt lat="47.27361" lon="-1.54716">
        <ele>65.45262</ele>
        <time>2022-03-08T10:28:00Z</time>
      </trkpt>
      <trkpt lat="47.27366" lon="-1.54718">
        <ele>65.645065</ele>
        <time>2022-03-08T10:28:04Z</time>
      </trkpt>
      <trkpt lat="47.27369" lon="-1.54723">
        <ele>65.88907</ele>
        <time>2022-03-08T10:28:07Z</time>
      </trkpt>
      <trkpt lat="47.27374" lon="-1.54728">
        <ele>66.27599</ele>
        <time>2022-03-08T10:28:11Z</time>
      </trkpt>
      <trkpt lat="47.27379" lon="-1.54732">
        <ele>66.7244</ele>
        <time>2022-03-08T10:28:14Z</time>
      </trkpt>
      <trkpt lat="47.27382" lon="-1.54737">
        <ele>67.19855</ele>
        <time>2022-03-08T10:28:17Z</time>
      </trkpt>
      <trkpt lat="47.27385" lon="-1.54744">
        <ele>67.89122</ele>
        <time>2022-03-08T10:28:21Z</time>
      </trkpt>
      <trkpt lat="47.27389" lon="-1.5475">
        <ele>68.54705</ele>
        <time>2022-03-08T10:28:25Z</time>
      </trkpt>
      <trkpt lat="47.27392" lon="-1.54756">
        <ele>68.91907</ele>
        <time>2022-03-08T10:28:28Z</time>
      </trkpt>
      <trkpt lat="47.27396" lon="-1.5476">
        <ele>69.342285</ele>
        <time>2022-03-08T10:28:32Z</time>
      </trkpt>
      <trkpt lat="47.27399" lon="-1.54764">
        <ele>69.62232</ele>
        <time>2022-03-08T10:28:36Z</time>
      </trkpt>
      <trkpt lat="47.27404" lon="-1.54769">
        <ele>69.9459</ele>
        <time>2022-03-08T10:28:40Z</time>
      </trkpt>
      <trkpt lat="47.27408" lon="-1.54773">
        <ele>70.098045</ele>
        <time>2022-03-08T10:28:43Z</time>
      </trkpt>
      <trkpt lat="47.27412" lon="-1.54778">
        <ele>70.23211</ele>
        <time>2022-03-08T10:28:47Z</time>
      </trkpt>
      <trkpt lat="47.27411" lon="-1.54786">
        <ele>70.34698</ele>
        <time>2022-03-08T10:28:51Z</time>
      </trkpt>
      <trkpt lat="47.27408" lon="-1.54792">
        <ele>70.37671</ele>
        <time>2022-03-08T10:28:55Z</time>
      </trkpt>
      <trkpt lat="47.27408" lon="-1.548">
        <ele>70.491135</ele>
        <time>2022-03-08T10:28:59Z</time>
      </trkpt>
      <trkpt lat="47.27405" lon="-1.54806">
        <ele>70.681496</ele>
        <time>2022-03-08T10:29:02Z</time>
      </trkpt>
      <trkpt lat="47.27403" lon="-1.54814">
        <ele>70.93669</ele>
        <time>2022-03-08T10:29:06Z</time>
      </trkpt>
      <trkpt lat="47.27403" lon="-1.54821">
        <ele>71.10388</ele>
        <time>2022-03-08T10:29:10Z</time>
      </trkpt>
      <trkpt lat="47.27405" lon="-1.54828">
        <ele>71.30911</ele>
        <time>2022-03-08T10:29:14Z</time>
      </trkpt>
      <trkpt lat="47.27406" lon="-1.54834">
        <ele>71.38437</ele>
        <time>2022-03-08T10:29:17Z</time>
      </trkpt>
      <trkpt lat="47.27408" lon="-1.54842">
        <ele>71.32254</ele>
        <time>2022-03-08T10:29:23Z</time>
      </trkpt>
      <trkpt lat="47.27411" lon="-1.5485">
        <ele>71.121</ele>
        <time>2022-03-08T10:29:28Z</time>
      </trkpt>
      <trkpt lat="47.27412" lon="-1.54857">
        <ele>70.976265</ele>
        <time>2022-03-08T10:29:32Z</time>
      </trkpt>
      <trkpt lat="47.27414" lon="-1.54866">
        <ele>70.866394</ele>
        <time>2022-03-08T10:29:36Z</time>
      </trkpt>
      <trkpt lat="47.27416" lon="-1.54875">
        <ele>70.652855</ele>
        <time>2022-03-08T10:29:40Z</time>
      </trkpt>
      <trkpt lat="47.27415" lon="-1.54882">
        <ele>70.27112</ele>
        <time>2022-03-08T10:29:44Z</time>
      </trkpt>
      <trkpt lat="47.27413" lon="-1.5489">
        <ele>69.51256</ele>
        <time>2022-03-08T10:29:50Z</time>
      </trkpt>
      <trkpt lat="47.27413" lon="-1.54898">
        <ele>69.12817</ele>
        <time>2022-03-08T10:29:54Z</time>
      </trkpt>
      <trkpt lat="47.27414" lon="-1.54906">
        <ele>68.93486</ele>
        <time>2022-03-08T10:29:58Z</time>
      </trkpt>
      <trkpt lat="47.27414" lon="-1.54913">
        <ele>69.03034</ele>
        <time>2022-03-08T10:30:00Z</time>
      </trkpt>
      <trkpt lat="47.27414" lon="-1.5492">
        <ele>69.18921</ele>
        <time>2022-03-08T10:30:03Z</time>
      </trkpt>
      <trkpt lat="47.27415" lon="-1.54926">
        <ele>69.37967</ele>
        <time>2022-03-08T10:30:06Z</time>
      </trkpt>
      <trkpt lat="47.27415" lon="-1.54935">
        <ele>69.763664</ele>
        <time>2022-03-08T10:30:09Z</time>
      </trkpt>
      <trkpt lat="47.27416" lon="-1.54941">
        <ele>70.35897</ele>
        <time>2022-03-08T10:30:13Z</time>
      </trkpt>
      <trkpt lat="47.27417" lon="-1.54949">
        <ele>71.11009</ele>
        <time>2022-03-08T10:30:19Z</time>
      </trkpt>
      <trkpt lat="47.27418" lon="-1.54958">
        <ele>71.6549</ele>
        <time>2022-03-08T10:30:24Z</time>
      </trkpt>
      <trkpt lat="47.27419" lon="-1.54966">
        <ele>71.899956</ele>
        <time>2022-03-08T10:30:27Z</time>
      </trkpt>
      <trkpt lat="47.27419" lon="-1.54974">
        <ele>72.11463</ele>
        <time>2022-03-08T10:30:30Z</time>
      </trkpt>
      <trkpt lat="47.2742" lon="-1.54981">
        <ele>72.33549</ele>
        <time>2022-03-08T10:30:34Z</time>
      </trkpt>
      <trkpt lat="47.2742" lon="-1.54988">
        <ele>72.453705</ele>
        <time>2022-03-08T10:30:38Z</time>
      </trkpt>
      <trkpt lat="47.27421" lon="-1.54998">
        <ele>72.521706</ele>
        <time>2022-03-08T10:30:42Z</time>
      </trkpt>
      <trkpt lat="47.27422" lon="-1.55006">
        <ele>72.55128</ele>
        <time>2022-03-08T10:30:48Z</time>
      </trkpt>
      <trkpt lat="47.27422" lon="-1.55015">
        <ele>72.54402</ele>
        <time>2022-03-08T10:30:52Z</time>
      </trkpt>
      <trkpt lat="47.27422" lon="-1.55023">
        <ele>72.51</ele>
        <time>2022-03-08T10:30:55Z</time>
      </trkpt>
      <trkpt lat="47.2742" lon="-1.55029">
        <ele>72.42067</ele>
        <time>2022-03-08T10:30:58Z</time>
      </trkpt>
      <trkpt lat="47.27417" lon="-1.55037">
        <ele>72.43666</ele>
        <time>2022-03-08T10:31:02Z</time>
      </trkpt>
      <trkpt lat="47.27415" lon="-1.55046">
        <ele>72.61782</ele>
        <time>2022-03-08T10:31:05Z</time>
      </trkpt>
      <trkpt lat="47.27414" lon="-1.55054">
        <ele>72.89178</ele>
        <time>2022-03-08T10:31:09Z</time>
      </trkpt>
      <trkpt lat="47.27412" lon="-1.55061">
        <ele>73.150345</ele>
        <time>2022-03-08T10:31:14Z</time>
      </trkpt>
      <trkpt lat="47.27409" lon="-1.55066">
        <ele>73.17929</ele>
        <time>2022-03-08T10:31:17Z</time>
      </trkpt>
      <trkpt lat="47.27407" lon="-1.55074">
        <ele>73.25755</ele>
        <time>2022-03-08T10:31:20Z</time>
      </trkpt>
      <trkpt lat="47.27404" lon="-1.5508">
        <ele>73.51128</ele>
        <time>2022-03-08T10:31:23Z</time>
      </trkpt>
      <trkpt lat="47.274" lon="-1.55086">
        <ele>73.978065</ele>
        <time>2022-03-08T10:31:27Z</time>
      </trkpt>
      <trkpt lat="47.27397" lon="-1.55092">
        <ele>74.49135</ele>
        <time>2022-03-08T10:31:31Z</time>
      </trkpt>
      <trkpt lat="47.27392" lon="-1.55094">
        <ele>75.45864</ele>
        <time>2022-03-08T10:31:40Z</time>
      </trkpt>
      <trkpt lat="47.27387" lon="-1.55093">
        <ele>75.708855</ele>
        <time>2022-03-08T10:31:44Z</time>
      </trkpt>
      <trkpt lat="47.27382" lon="-1.55091">
        <ele>75.91581</ele>
        <time>2022-03-08T10:31:48Z</time>
      </trkpt>
      <trkpt lat="47.27377" lon="-1.5509">
        <ele>76.04328</ele>
        <time>2022-03-08T10:31:52Z</time>
      </trkpt>
      <trkpt lat="47.27372" lon="-1.5509">
        <ele>76.04374</ele>
        <time>2022-03-08T10:31:56Z</time>
      </trkpt>
      <trkpt lat="47.27367" lon="-1.5509">
        <ele>75.96337</ele>
        <time>2022-03-08T10:31:59Z</time>
      </trkpt>
      <trkpt lat="47.27361" lon="-1.55091">
        <ele>75.66544</ele>
        <time>2022-03-08T10:32:03Z</time>
      </trkpt>
      <trkpt lat="47.27356" lon="-1.55094">
        <ele>75.642235</ele>
        <time>2022-03-08T10:32:06Z</time>
      </trkpt>
      <trkpt lat="47.2735" lon="-1.55096">
        <ele>75.731316</ele>
        <time>2022-03-08T10:32:09Z</time>
      </trkpt>
      <trkpt lat="47.27344" lon="-1.55099">
        <ele>75.99501</ele>
        <time>2022-03-08T10:32:13Z</time>
      </trkpt>
      <trkpt lat="47.2734" lon="-1.55101">
        <ele>76.31053</ele>
        <time>2022-03-08T10:32:17Z</time>
      </trkpt>
      <trkpt lat="47.27334" lon="-1.55102">
        <ele>76.665535</ele>
        <time>2022-03-08T10:32:21Z</time>
      </trkpt>
      <trkpt lat="47.27329" lon="-1.55105">
        <ele>76.94005</ele>
        <time>2022-03-08T10:32:24Z</time>
      </trkpt>
      <trkpt lat="47.27323" lon="-1.55107">
        <ele>77.37058</ele>
        <time>2022-03-08T10:32:28Z</time>
      </trkpt>
      <trkpt lat="47.27317" lon="-1.5511">
        <ele>77.8764</ele>
        <time>2022-03-08T10:32:32Z</time>
      </trkpt>
      <trkpt lat="47.27316" lon="-1.5511">
        <ele>78.00465</ele>
        <time>2022-03-08T10:32:33Z</time>
      </trkpt>
      <trkpt lat="47.27316" lon="-1.55111">
        <ele>78.11926</ele>
        <time>2022-03-08T10:32:34Z</time>
      </trkpt>
      <trkpt lat="47.27314" lon="-1.55111">
        <ele>78.22428</ele>
        <time>2022-03-08T10:32:35Z</time>
      </trkpt>
      <trkpt lat="47.27313" lon="-1.55113">
        <ele>78.29333</ele>
        <time>2022-03-08T10:32:36Z</time>
      </trkpt>
      <trkpt lat="47.27312" lon="-1.55114">
        <ele>78.35765</ele>
        <time>2022-03-08T10:32:37Z</time>
      </trkpt>
      <trkpt lat="47.27311" lon="-1.55114">
        <ele>78.421265</ele>
        <time>2022-03-08T10:32:38Z</time>
      </trkpt>
      <trkpt lat="47.27309" lon="-1.55115">
        <ele>78.47738</ele>
        <time>2022-03-08T10:32:39Z</time>
      </trkpt>
      <trkpt lat="47.27307" lon="-1.55116">
        <ele>78.53159</ele>
        <time>2022-03-08T10:32:40Z</time>
      </trkpt>
      <trkpt lat="47.27306" lon="-1.55116">
        <ele>78.587814</ele>
        <time>2022-03-08T10:32:41Z</time>
      </trkpt>
      <trkpt lat="47.27305" lon="-1.55116">
        <ele>78.64515</ele>
        <time>2022-03-08T10:32:42Z</time>
      </trkpt>
      <trkpt lat="47.27303" lon="-1.55116">
        <ele>78.70893</ele>
        <time>2022-03-08T10:32:43Z</time>
      </trkpt>
      <trkpt lat="47.27302" lon="-1.55117">
        <ele>78.755005</ele>
        <time>2022-03-08T10:32:44Z</time>
      </trkpt>
      <trkpt lat="47.27301" lon="-1.55117">
        <ele>78.78912</ele>
        <time>2022-03-08T10:32:45Z</time>
      </trkpt>
      <trkpt lat="47.27299" lon="-1.55117">
        <ele>78.82239</ele>
        <time>2022-03-08T10:32:46Z</time>
      </trkpt>
      <trkpt lat="47.27298" lon="-1.55118">
        <ele>78.844475</ele>
        <time>2022-03-08T10:32:47Z</time>
      </trkpt>
      <trkpt lat="47.27297" lon="-1.55118">
        <ele>78.852684</ele>
        <time>2022-03-08T10:32:48Z</time>
      </trkpt>
      <trkpt lat="47.27295" lon="-1.55119">
        <ele>78.87798</ele>
        <time>2022-03-08T10:32:49Z</time>
      </trkpt>
      <trkpt lat="47.27294" lon="-1.55119">
        <ele>78.91517</ele>
        <time>2022-03-08T10:32:50Z</time>
      </trkpt>
      <trkpt lat="47.27292" lon="-1.5512">
        <ele>78.97666</ele>
        <time>2022-03-08T10:32:51Z</time>
      </trkpt>
      <trkpt lat="47.2729" lon="-1.55121">
        <ele>79.044205</ele>
        <time>2022-03-08T10:32:52Z</time>
      </trkpt>
      <trkpt lat="47.27288" lon="-1.55122">
        <ele>79.11299</ele>
        <time>2022-03-08T10:32:53Z</time>
      </trkpt>
      <trkpt lat="47.27287" lon="-1.55122">
        <ele>79.18168</ele>
        <time>2022-03-08T10:32:54Z</time>
      </trkpt>
      <trkpt lat="47.27285" lon="-1.55122">
        <ele>79.24685</ele>
        <time>2022-03-08T10:32:55Z</time>
      </trkpt>
      <trkpt lat="47.27284" lon="-1.55123">
        <ele>79.28931</ele>
        <time>2022-03-08T10:32:56Z</time>
      </trkpt>
      <trkpt lat="47.27282" lon="-1.55123">
        <ele>79.3241</ele>
        <time>2022-03-08T10:32:57Z</time>
      </trkpt>
      <trkpt lat="47.27281" lon="-1.55124">
        <ele>79.357376</ele>
        <time>2022-03-08T10:32:58Z</time>
      </trkpt>
      <trkpt lat="47.27279" lon="-1.55124">
        <ele>79.37524</ele>
        <time>2022-03-08T10:32:59Z</time>
      </trkpt>
      <trkpt lat="47.27277" lon="-1.55125">
        <ele>79.38714</ele>
        <time>2022-03-08T10:33:00Z</time>
      </trkpt>
      <trkpt lat="47.27275" lon="-1.55126">
        <ele>79.40233</ele>
        <time>2022-03-08T10:33:01Z</time>
      </trkpt>
      <trkpt lat="47.27273" lon="-1.55126">
        <ele>79.42121</ele>
        <time>2022-03-08T10:33:02Z</time>
      </trkpt>
      <trkpt lat="47.27271" lon="-1.55127">
        <ele>79.43257</ele>
        <time>2022-03-08T10:33:04Z</time>
      </trkpt>
      <trkpt lat="47.27269" lon="-1.55127">
        <ele>79.44037</ele>
        <time>2022-03-08T10:33:05Z</time>
      </trkpt>
      <trkpt lat="47.27268" lon="-1.55128">
        <ele>79.44989</ele>
        <time>2022-03-08T10:33:06Z</time>
      </trkpt>
      <trkpt lat="47.27266" lon="-1.55129">
        <ele>79.46606</ele>
        <time>2022-03-08T10:33:07Z</time>
      </trkpt>
      <trkpt lat="47.27265" lon="-1.55129">
        <ele>79.469475</ele>
        <time>2022-03-08T10:33:08Z</time>
      </trkpt>
      <trkpt lat="47.27263" lon="-1.55129">
        <ele>79.47186</ele>
        <time>2022-03-08T10:33:09Z</time>
      </trkpt>
      <trkpt lat="47.27262" lon="-1.55129">
        <ele>79.467705</ele>
        <time>2022-03-08T10:33:10Z</time>
      </trkpt>
      <trkpt lat="47.27256" lon="-1.55131">
        <ele>79.34375</ele>
        <time>2022-03-08T10:33:14Z</time>
      </trkpt>
      <trkpt lat="47.27251" lon="-1.55133">
        <ele>79.168365</ele>
        <time>2022-03-08T10:33:19Z</time>
      </trkpt>
      <trkpt lat="47.27247" lon="-1.55136">
        <ele>79.0338</ele>
        <time>2022-03-08T10:33:22Z</time>
      </trkpt>
      <trkpt lat="47.27242" lon="-1.55139">
        <ele>78.68068</ele>
        <time>2022-03-08T10:33:26Z</time>
      </trkpt>
      <trkpt lat="47.27237" lon="-1.55141">
        <ele>78.22149</ele>
        <time>2022-03-08T10:33:30Z</time>
      </trkpt>
      <trkpt lat="47.27233" lon="-1.55143">
        <ele>77.91008</ele>
        <time>2022-03-08T10:33:33Z</time>
      </trkpt>
      <trkpt lat="47.27228" lon="-1.55146">
        <ele>77.5975</ele>
        <time>2022-03-08T10:33:36Z</time>
      </trkpt>
      <trkpt lat="47.27224" lon="-1.55149">
        <ele>77.34666</ele>
        <time>2022-03-08T10:33:39Z</time>
      </trkpt>
      <trkpt lat="47.27219" lon="-1.55152">
        <ele>77.073524</ele>
        <time>2022-03-08T10:33:43Z</time>
      </trkpt>
      <trkpt lat="47.27213" lon="-1.55154">
        <ele>76.97977</ele>
        <time>2022-03-08T10:33:47Z</time>
      </trkpt>
      <trkpt lat="47.27208" lon="-1.55157">
        <ele>76.95006</ele>
        <time>2022-03-08T10:33:51Z</time>
      </trkpt>
      <trkpt lat="47.27204" lon="-1.5516">
        <ele>76.92213</ele>
        <time>2022-03-08T10:33:54Z</time>
      </trkpt>
      <trkpt lat="47.27199" lon="-1.55163">
        <ele>76.95596</ele>
        <time>2022-03-08T10:33:58Z</time>
      </trkpt>
      <trkpt lat="47.27194" lon="-1.55164">
        <ele>77.05984</ele>
        <time>2022-03-08T10:34:01Z</time>
      </trkpt>
      <trkpt lat="47.2719" lon="-1.55165">
        <ele>77.16246</ele>
        <time>2022-03-08T10:34:04Z</time>
      </trkpt>
      <trkpt lat="47.27185" lon="-1.55166">
        <ele>77.267525</ele>
        <time>2022-03-08T10:34:07Z</time>
      </trkpt>
      <trkpt lat="47.27179" lon="-1.55166">
        <ele>77.21461</ele>
        <time>2022-03-08T10:34:10Z</time>
      </trkpt>
      <trkpt lat="47.27174" lon="-1.55167">
        <ele>77.00021</ele>
        <time>2022-03-08T10:34:15Z</time>
      </trkpt>
      <trkpt lat="47.27169" lon="-1.55169">
        <ele>76.81071</ele>
        <time>2022-03-08T10:34:19Z</time>
      </trkpt>
      <trkpt lat="47.27163" lon="-1.55172">
        <ele>76.65705</ele>
        <time>2022-03-08T10:34:23Z</time>
      </trkpt>
      <trkpt lat="47.27157" lon="-1.55173">
        <ele>76.52497</ele>
        <time>2022-03-08T10:34:26Z</time>
      </trkpt>
      <trkpt lat="47.27152" lon="-1.55177">
        <ele>76.25409</ele>
        <time>2022-03-08T10:34:30Z</time>
      </trkpt>
      <trkpt lat="47.27147" lon="-1.55179">
        <ele>75.76586</ele>
        <time>2022-03-08T10:34:34Z</time>
      </trkpt>
      <trkpt lat="47.27142" lon="-1.5518">
        <ele>74.861465</ele>
        <time>2022-03-08T10:34:39Z</time>
      </trkpt>
      <trkpt lat="47.27137" lon="-1.5518">
        <ele>74.02355</ele>
        <time>2022-03-08T10:34:43Z</time>
      </trkpt>
      <trkpt lat="47.27132" lon="-1.55179">
        <ele>73.34436</ele>
        <time>2022-03-08T10:34:47Z</time>
      </trkpt>
      <trkpt lat="47.27128" lon="-1.55178">
        <ele>72.73039</ele>
        <time>2022-03-08T10:34:51Z</time>
      </trkpt>
      <trkpt lat="47.27123" lon="-1.55176">
        <ele>71.84367</ele>
        <time>2022-03-08T10:34:57Z</time>
      </trkpt>
      <trkpt lat="47.27118" lon="-1.55173">
        <ele>71.157104</ele>
        <time>2022-03-08T10:35:02Z</time>
      </trkpt>
      <trkpt lat="47.2711" lon="-1.55172">
        <ele>70.86601</ele>
        <time>2022-03-08T10:35:05Z</time>
      </trkpt>
      <trkpt lat="47.27105" lon="-1.55171">
        <ele>70.72467</ele>
        <time>2022-03-08T10:35:07Z</time>
      </trkpt>
      <trkpt lat="47.27099" lon="-1.55168">
        <ele>70.612076</ele>
        <time>2022-03-08T10:35:10Z</time>
      </trkpt>
      <trkpt lat="47.27095" lon="-1.55167">
        <ele>70.58711</ele>
        <time>2022-03-08T10:35:13Z</time>
      </trkpt>
      <trkpt lat="47.2709" lon="-1.55165">
        <ele>70.621315</ele>
        <time>2022-03-08T10:35:16Z</time>
      </trkpt>
      <trkpt lat="47.27085" lon="-1.55165">
        <ele>70.7486</ele>
        <time>2022-03-08T10:35:19Z</time>
      </trkpt>
      <trkpt lat="47.27079" lon="-1.55164">
        <ele>70.97447</ele>
        <time>2022-03-08T10:35:23Z</time>
      </trkpt>
      <trkpt lat="47.27074" lon="-1.55163">
        <ele>71.14742</ele>
        <time>2022-03-08T10:35:26Z</time>
      </trkpt>
      <trkpt lat="47.27069" lon="-1.55164">
        <ele>71.36673</ele>
        <time>2022-03-08T10:35:30Z</time>
      </trkpt>
      <trkpt lat="47.27064" lon="-1.55166">
        <ele>71.60246</ele>
        <time>2022-03-08T10:35:34Z</time>
      </trkpt>
      <trkpt lat="47.27058" lon="-1.55169">
        <ele>71.79904</ele>
        <time>2022-03-08T10:35:38Z</time>
      </trkpt>
      <trkpt lat="47.27052" lon="-1.5517">
        <ele>71.8444</ele>
        <time>2022-03-08T10:35:41Z</time>
      </trkpt>
      <trkpt lat="47.27047" lon="-1.55172">
        <ele>71.7605</ele>
        <time>2022-03-08T10:35:45Z</time>
      </trkpt>
      <trkpt lat="47.27043" lon="-1.55175">
        <ele>71.85773</ele>
        <time>2022-03-08T10:35:49Z</time>
      </trkpt>
      <trkpt lat="47.27038" lon="-1.55178">
        <ele>72.011566</ele>
        <time>2022-03-08T10:35:53Z</time>
      </trkpt>
      <trkpt lat="47.27033" lon="-1.55181">
        <ele>72.066826</ele>
        <time>2022-03-08T10:35:57Z</time>
      </trkpt>
      <trkpt lat="47.27027" lon="-1.55183">
        <ele>72.13862</ele>
        <time>2022-03-08T10:36:02Z</time>
      </trkpt>
      <trkpt lat="47.27021" lon="-1.55186">
        <ele>72.11292</ele>
        <time>2022-03-08T10:36:06Z</time>
      </trkpt>
      <trkpt lat="47.27016" lon="-1.55188">
        <ele>72.10102</ele>
        <time>2022-03-08T10:36:10Z</time>
      </trkpt>
      <trkpt lat="47.27011" lon="-1.5519">
        <ele>72.072716</ele>
        <time>2022-03-08T10:36:14Z</time>
      </trkpt>
      <trkpt lat="47.27006" lon="-1.55193">
        <ele>71.90166</ele>
        <time>2022-03-08T10:36:19Z</time>
      </trkpt>
      <trkpt lat="47.27" lon="-1.55194">
        <ele>71.66224</ele>
        <time>2022-03-08T10:36:22Z</time>
      </trkpt>
      <trkpt lat="47.26995" lon="-1.55198">
        <ele>71.41613</ele>
        <time>2022-03-08T10:36:27Z</time>
      </trkpt>
      <trkpt lat="47.26994" lon="-1.55206">
        <ele>71.11295</ele>
        <time>2022-03-08T10:36:34Z</time>
      </trkpt>
      <trkpt lat="47.26994" lon="-1.55213">
        <ele>70.984665</ele>
        <time>2022-03-08T10:36:37Z</time>
      </trkpt>
      <trkpt lat="47.26994" lon="-1.55215">
        <ele>70.924355</ele>
        <time>2022-03-08T10:36:40Z</time>
      </trkpt>
      <trkpt lat="47.26994" lon="-1.55215">
        <ele>70.924355</ele>
        <time>2022-03-08T10:36:40Z</time>
      </trkpt>
    </trkseg>
  </trk>
</gpx>